<?xml version="1.0" encoding="UTF-8" standalone="no" ?>
<gpx xmlns="http://www.topografix.com/GPX/1/1" xmlns:xsi="http://www.w3.org/2001/XMLSchema-instance" xsi:schemaLocation="http://www.topografix.com/GPX/1/1 http://www.topografix.com/GPX/1/1/gpx.xsd" version="1.1" creator="VisuGPX - https://www.visugpx.com">
  <metadata>
    <name>Rando - Neige au Pas du Touet</name>
    <desc><![CDATA[Belle randonnée sous la neige et avec un fort mistral, ambiance garantie ! Nous avons la chance de voir deux magnifiques cerfs adultes au dessus de la ferme du Detet.]]></desc>
  </metadata>
  <trk>
    <name><![CDATA[12-JAN-19 13:38:52]]></name>
    <trkseg>
      <trkpt lat="44.90327" lon="5.12731">
        <ele>518.77</ele>
        <time>2019-01-12T08:31:03Z</time>
      </trkpt>
      <trkpt lat="44.90327" lon="5.12731">
        <ele>522.61</ele>
        <time>2019-01-12T08:31:04Z</time>
      </trkpt>
      <trkpt lat="44.90327" lon="5.12731">
        <ele>521.17</ele>
        <time>2019-01-12T08:31:05Z</time>
      </trkpt>
      <trkpt lat="44.90327" lon="5.1273">
        <ele>525.02</ele>
        <time>2019-01-12T08:31:08Z</time>
      </trkpt>
      <trkpt lat="44.90327" lon="5.1273">
        <ele>523.58</ele>
        <time>2019-01-12T08:31:09Z</time>
      </trkpt>
      <trkpt lat="44.90327" lon="5.12732">
        <ele>527.42</ele>
        <time>2019-01-12T08:31:16Z</time>
      </trkpt>
      <trkpt lat="44.90327" lon="5.12733">
        <ele>538.48</ele>
        <time>2019-01-12T08:31:27Z</time>
      </trkpt>
      <trkpt lat="44.90327" lon="5.12733">
        <ele>530.79</ele>
        <time>2019-01-12T08:31:28Z</time>
      </trkpt>
      <trkpt lat="44.90327" lon="5.12734">
        <ele>530.3</ele>
        <time>2019-01-12T08:31:43Z</time>
      </trkpt>
      <trkpt lat="44.90325" lon="5.12736">
        <ele>531.27</ele>
        <time>2019-01-12T08:32:07Z</time>
      </trkpt>
      <trkpt lat="44.90325" lon="5.12737">
        <ele>530.79</ele>
        <time>2019-01-12T08:32:08Z</time>
      </trkpt>
      <trkpt lat="44.90324" lon="5.12743">
        <ele>531.75</ele>
        <time>2019-01-12T08:32:13Z</time>
      </trkpt>
      <trkpt lat="44.90326" lon="5.12755">
        <ele>532.71</ele>
        <time>2019-01-12T08:32:21Z</time>
      </trkpt>
      <trkpt lat="44.90326" lon="5.1276">
        <ele>532.71</ele>
        <time>2019-01-12T08:32:24Z</time>
      </trkpt>
      <trkpt lat="44.90324" lon="5.12772">
        <ele>534.15</ele>
        <time>2019-01-12T08:32:31Z</time>
      </trkpt>
      <trkpt lat="44.90323" lon="5.12784">
        <ele>535.11</ele>
        <time>2019-01-12T08:32:40Z</time>
      </trkpt>
      <trkpt lat="44.90321" lon="5.12795">
        <ele>536.55</ele>
        <time>2019-01-12T08:32:49Z</time>
      </trkpt>
      <trkpt lat="44.90319" lon="5.12803">
        <ele>537.03</ele>
        <time>2019-01-12T08:32:54Z</time>
      </trkpt>
      <trkpt lat="44.90318" lon="5.12813">
        <ele>537.99</ele>
        <time>2019-01-12T08:33:01Z</time>
      </trkpt>
      <trkpt lat="44.90317" lon="5.12819">
        <ele>538.48</ele>
        <time>2019-01-12T08:33:05Z</time>
      </trkpt>
      <trkpt lat="44.90318" lon="5.12834">
        <ele>540.4</ele>
        <time>2019-01-12T08:33:15Z</time>
      </trkpt>
      <trkpt lat="44.90317" lon="5.1284">
        <ele>541.36</ele>
        <time>2019-01-12T08:33:19Z</time>
      </trkpt>
      <trkpt lat="44.90316" lon="5.12853">
        <ele>542.8</ele>
        <time>2019-01-12T08:33:27Z</time>
      </trkpt>
      <trkpt lat="44.90315" lon="5.12865">
        <ele>544.24</ele>
        <time>2019-01-12T08:33:38Z</time>
      </trkpt>
      <trkpt lat="44.90315" lon="5.12867">
        <ele>544.72</ele>
        <time>2019-01-12T08:33:41Z</time>
      </trkpt>
      <trkpt lat="44.90315" lon="5.12877">
        <ele>545.2</ele>
        <time>2019-01-12T08:33:52Z</time>
      </trkpt>
      <trkpt lat="44.90314" lon="5.12883">
        <ele>546.17</ele>
        <time>2019-01-12T08:34:00Z</time>
      </trkpt>
      <trkpt lat="44.90312" lon="5.12888">
        <ele>547.13</ele>
        <time>2019-01-12T08:34:04Z</time>
      </trkpt>
      <trkpt lat="44.90306" lon="5.12907">
        <ele>549.05</ele>
        <time>2019-01-12T08:34:15Z</time>
      </trkpt>
      <trkpt lat="44.90302" lon="5.12917">
        <ele>550.49</ele>
        <time>2019-01-12T08:34:23Z</time>
      </trkpt>
      <trkpt lat="44.90301" lon="5.12922">
        <ele>550.49</ele>
        <time>2019-01-12T08:34:26Z</time>
      </trkpt>
      <trkpt lat="44.90299" lon="5.12928">
        <ele>552.41</ele>
        <time>2019-01-12T08:34:40Z</time>
      </trkpt>
      <trkpt lat="44.90298" lon="5.12933">
        <ele>552.9</ele>
        <time>2019-01-12T08:34:43Z</time>
      </trkpt>
      <trkpt lat="44.90299" lon="5.12942">
        <ele>553.86</ele>
        <time>2019-01-12T08:34:48Z</time>
      </trkpt>
      <trkpt lat="44.90299" lon="5.12955">
        <ele>555.3</ele>
        <time>2019-01-12T08:34:56Z</time>
      </trkpt>
      <trkpt lat="44.90299" lon="5.12965">
        <ele>556.26</ele>
        <time>2019-01-12T08:35:02Z</time>
      </trkpt>
      <trkpt lat="44.90296" lon="5.1298">
        <ele>558.66</ele>
        <time>2019-01-12T08:35:12Z</time>
      </trkpt>
      <trkpt lat="44.90297" lon="5.12985">
        <ele>559.14</ele>
        <time>2019-01-12T08:35:16Z</time>
      </trkpt>
      <trkpt lat="44.90296" lon="5.12996">
        <ele>560.59</ele>
        <time>2019-01-12T08:35:25Z</time>
      </trkpt>
      <trkpt lat="44.90296" lon="5.13012">
        <ele>562.51</ele>
        <time>2019-01-12T08:35:36Z</time>
      </trkpt>
      <trkpt lat="44.90297" lon="5.13014">
        <ele>562.99</ele>
        <time>2019-01-12T08:35:38Z</time>
      </trkpt>
      <trkpt lat="44.90299" lon="5.1303">
        <ele>565.39</ele>
        <time>2019-01-12T08:35:49Z</time>
      </trkpt>
      <trkpt lat="44.90299" lon="5.13033">
        <ele>565.87</ele>
        <time>2019-01-12T08:35:51Z</time>
      </trkpt>
      <trkpt lat="44.90301" lon="5.13039">
        <ele>566.35</ele>
        <time>2019-01-12T08:35:56Z</time>
      </trkpt>
      <trkpt lat="44.90302" lon="5.13045">
        <ele>567.32</ele>
        <time>2019-01-12T08:36:00Z</time>
      </trkpt>
      <trkpt lat="44.90304" lon="5.13056">
        <ele>568.76</ele>
        <time>2019-01-12T08:36:07Z</time>
      </trkpt>
      <trkpt lat="44.90309" lon="5.13072">
        <ele>570.68</ele>
        <time>2019-01-12T08:36:18Z</time>
      </trkpt>
      <trkpt lat="44.9031" lon="5.13079">
        <ele>572.12</ele>
        <time>2019-01-12T08:36:23Z</time>
      </trkpt>
      <trkpt lat="44.90311" lon="5.13083">
        <ele>572.12</ele>
        <time>2019-01-12T08:36:25Z</time>
      </trkpt>
      <trkpt lat="44.90309" lon="5.13089">
        <ele>573.56</ele>
        <time>2019-01-12T08:36:31Z</time>
      </trkpt>
      <trkpt lat="44.90308" lon="5.13094">
        <ele>574.04</ele>
        <time>2019-01-12T08:36:34Z</time>
      </trkpt>
      <trkpt lat="44.90304" lon="5.13098">
        <ele>575.01</ele>
        <time>2019-01-12T08:36:39Z</time>
      </trkpt>
      <trkpt lat="44.90298" lon="5.13105">
        <ele>576.45</ele>
        <time>2019-01-12T08:36:45Z</time>
      </trkpt>
      <trkpt lat="44.90297" lon="5.1311">
        <ele>576.45</ele>
        <time>2019-01-12T08:36:48Z</time>
      </trkpt>
      <trkpt lat="44.90295" lon="5.13117">
        <ele>577.89</ele>
        <time>2019-01-12T08:36:53Z</time>
      </trkpt>
      <trkpt lat="44.90294" lon="5.13125">
        <ele>578.37</ele>
        <time>2019-01-12T08:36:58Z</time>
      </trkpt>
      <trkpt lat="44.90292" lon="5.13136">
        <ele>579.81</ele>
        <time>2019-01-12T08:37:09Z</time>
      </trkpt>
      <trkpt lat="44.90292" lon="5.13139">
        <ele>580.77</ele>
        <time>2019-01-12T08:37:23Z</time>
      </trkpt>
      <trkpt lat="44.90294" lon="5.13154">
        <ele>584.14</ele>
        <time>2019-01-12T08:37:34Z</time>
      </trkpt>
      <trkpt lat="44.90295" lon="5.13173">
        <ele>585.58</ele>
        <time>2019-01-12T08:37:46Z</time>
      </trkpt>
      <trkpt lat="44.90296" lon="5.13181">
        <ele>587.02</ele>
        <time>2019-01-12T08:37:53Z</time>
      </trkpt>
      <trkpt lat="44.90296" lon="5.13186">
        <ele>587.5</ele>
        <time>2019-01-12T08:37:56Z</time>
      </trkpt>
      <trkpt lat="44.90297" lon="5.13202">
        <ele>590.87</ele>
        <time>2019-01-12T08:38:08Z</time>
      </trkpt>
      <trkpt lat="44.90298" lon="5.13219">
        <ele>593.27</ele>
        <time>2019-01-12T08:38:21Z</time>
      </trkpt>
      <trkpt lat="44.90302" lon="5.13229">
        <ele>594.71</ele>
        <time>2019-01-12T08:38:28Z</time>
      </trkpt>
      <trkpt lat="44.90304" lon="5.13249">
        <ele>597.12</ele>
        <time>2019-01-12T08:38:41Z</time>
      </trkpt>
      <trkpt lat="44.90304" lon="5.13251">
        <ele>597.12</ele>
        <time>2019-01-12T08:38:42Z</time>
      </trkpt>
      <trkpt lat="44.90305" lon="5.13262">
        <ele>598.56</ele>
        <time>2019-01-12T08:38:51Z</time>
      </trkpt>
      <trkpt lat="44.90307" lon="5.13277">
        <ele>600.48</ele>
        <time>2019-01-12T08:38:59Z</time>
      </trkpt>
      <trkpt lat="44.90303" lon="5.13293">
        <ele>602.88</ele>
        <time>2019-01-12T08:39:11Z</time>
      </trkpt>
      <trkpt lat="44.90303" lon="5.13296">
        <ele>602.88</ele>
        <time>2019-01-12T08:39:13Z</time>
      </trkpt>
      <trkpt lat="44.90302" lon="5.13304">
        <ele>603.85</ele>
        <time>2019-01-12T08:39:18Z</time>
      </trkpt>
      <trkpt lat="44.90302" lon="5.1332">
        <ele>605.77</ele>
        <time>2019-01-12T08:39:30Z</time>
      </trkpt>
      <trkpt lat="44.90301" lon="5.13334">
        <ele>607.21</ele>
        <time>2019-01-12T08:39:42Z</time>
      </trkpt>
      <trkpt lat="44.90301" lon="5.13341">
        <ele>608.17</ele>
        <time>2019-01-12T08:39:57Z</time>
      </trkpt>
      <trkpt lat="44.90301" lon="5.13345">
        <ele>608.65</ele>
        <time>2019-01-12T08:40:17Z</time>
      </trkpt>
      <trkpt lat="44.90299" lon="5.1336">
        <ele>611.06</ele>
        <time>2019-01-12T08:40:29Z</time>
      </trkpt>
      <trkpt lat="44.90301" lon="5.13381">
        <ele>613.94</ele>
        <time>2019-01-12T08:40:43Z</time>
      </trkpt>
      <trkpt lat="44.90301" lon="5.134">
        <ele>615.86</ele>
        <time>2019-01-12T08:40:56Z</time>
      </trkpt>
      <trkpt lat="44.903" lon="5.13421">
        <ele>617.78</ele>
        <time>2019-01-12T08:41:09Z</time>
      </trkpt>
      <trkpt lat="44.903" lon="5.13423">
        <ele>617.78</ele>
        <time>2019-01-12T08:41:10Z</time>
      </trkpt>
      <trkpt lat="44.90299" lon="5.13436">
        <ele>618.75</ele>
        <time>2019-01-12T08:41:19Z</time>
      </trkpt>
      <trkpt lat="44.903" lon="5.13441">
        <ele>619.23</ele>
        <time>2019-01-12T08:41:22Z</time>
      </trkpt>
      <trkpt lat="44.90299" lon="5.13459">
        <ele>620.67</ele>
        <time>2019-01-12T08:41:34Z</time>
      </trkpt>
      <trkpt lat="44.90301" lon="5.13479">
        <ele>621.63</ele>
        <time>2019-01-12T08:41:46Z</time>
      </trkpt>
      <trkpt lat="44.90305" lon="5.13495">
        <ele>623.07</ele>
        <time>2019-01-12T08:41:56Z</time>
      </trkpt>
      <trkpt lat="44.90308" lon="5.13507">
        <ele>624.51</ele>
        <time>2019-01-12T08:42:05Z</time>
      </trkpt>
      <trkpt lat="44.90318" lon="5.13521">
        <ele>625.96</ele>
        <time>2019-01-12T08:42:17Z</time>
      </trkpt>
      <trkpt lat="44.90319" lon="5.13522">
        <ele>626.44</ele>
        <time>2019-01-12T08:42:18Z</time>
      </trkpt>
      <trkpt lat="44.90323" lon="5.13526">
        <ele>626.92</ele>
        <time>2019-01-12T08:42:27Z</time>
      </trkpt>
      <trkpt lat="44.90331" lon="5.13533">
        <ele>628.36</ele>
        <time>2019-01-12T08:42:38Z</time>
      </trkpt>
      <trkpt lat="44.90334" lon="5.13537">
        <ele>628.84</ele>
        <time>2019-01-12T08:42:53Z</time>
      </trkpt>
      <trkpt lat="44.90341" lon="5.13542">
        <ele>629.32</ele>
        <time>2019-01-12T08:43:06Z</time>
      </trkpt>
      <trkpt lat="44.90348" lon="5.13555">
        <ele>630.76</ele>
        <time>2019-01-12T08:43:18Z</time>
      </trkpt>
      <trkpt lat="44.90353" lon="5.13568">
        <ele>630.76</ele>
        <time>2019-01-12T08:43:29Z</time>
      </trkpt>
      <trkpt lat="44.90357" lon="5.13585">
        <ele>632.68</ele>
        <time>2019-01-12T08:43:44Z</time>
      </trkpt>
      <trkpt lat="44.90356" lon="5.13598">
        <ele>635.57</ele>
        <time>2019-01-12T08:43:55Z</time>
      </trkpt>
      <trkpt lat="44.90357" lon="5.13611">
        <ele>636.05</ele>
        <time>2019-01-12T08:44:02Z</time>
      </trkpt>
      <trkpt lat="44.90356" lon="5.13619">
        <ele>636.53</ele>
        <time>2019-01-12T08:44:08Z</time>
      </trkpt>
      <trkpt lat="44.90358" lon="5.13631">
        <ele>636.05</ele>
        <time>2019-01-12T08:44:15Z</time>
      </trkpt>
      <trkpt lat="44.90365" lon="5.13657">
        <ele>635.09</ele>
        <time>2019-01-12T08:44:31Z</time>
      </trkpt>
      <trkpt lat="44.90369" lon="5.13653">
        <ele>635.57</ele>
        <time>2019-01-12T08:44:38Z</time>
      </trkpt>
      <trkpt lat="44.90381" lon="5.13652">
        <ele>636.53</ele>
        <time>2019-01-12T08:44:49Z</time>
      </trkpt>
      <trkpt lat="44.90392" lon="5.13654">
        <ele>639.41</ele>
        <time>2019-01-12T08:45:03Z</time>
      </trkpt>
      <trkpt lat="44.90394" lon="5.13653">
        <ele>640.86</ele>
        <time>2019-01-12T08:45:19Z</time>
      </trkpt>
      <trkpt lat="44.90397" lon="5.13653">
        <ele>640.86</ele>
        <time>2019-01-12T08:45:21Z</time>
      </trkpt>
      <trkpt lat="44.90406" lon="5.13651">
        <ele>643.74</ele>
        <time>2019-01-12T08:45:32Z</time>
      </trkpt>
      <trkpt lat="44.90412" lon="5.13645">
        <ele>645.66</ele>
        <time>2019-01-12T08:45:46Z</time>
      </trkpt>
      <trkpt lat="44.90421" lon="5.13635">
        <ele>649.03</ele>
        <time>2019-01-12T08:45:58Z</time>
      </trkpt>
      <trkpt lat="44.90428" lon="5.13631">
        <ele>651.43</ele>
        <time>2019-01-12T08:46:08Z</time>
      </trkpt>
      <trkpt lat="44.90431" lon="5.13629">
        <ele>651.43</ele>
        <time>2019-01-12T08:46:16Z</time>
      </trkpt>
      <trkpt lat="44.90433" lon="5.13626">
        <ele>652.87</ele>
        <time>2019-01-12T08:46:28Z</time>
      </trkpt>
      <trkpt lat="44.90433" lon="5.13626">
        <ele>652.87</ele>
        <time>2019-01-12T08:47:00Z</time>
      </trkpt>
      <trkpt lat="44.90433" lon="5.13626">
        <ele>652.87</ele>
        <time>2019-01-12T08:47:07Z</time>
      </trkpt>
      <trkpt lat="44.90431" lon="5.13627">
        <ele>652.39</ele>
        <time>2019-01-12T08:47:21Z</time>
      </trkpt>
      <trkpt lat="44.90432" lon="5.13626">
        <ele>653.35</ele>
        <time>2019-01-12T08:47:37Z</time>
      </trkpt>
      <trkpt lat="44.90433" lon="5.13626">
        <ele>653.83</ele>
        <time>2019-01-12T08:47:53Z</time>
      </trkpt>
      <trkpt lat="44.90433" lon="5.13625">
        <ele>653.83</ele>
        <time>2019-01-12T08:48:14Z</time>
      </trkpt>
      <trkpt lat="44.90433" lon="5.13624">
        <ele>653.35</ele>
        <time>2019-01-12T08:48:28Z</time>
      </trkpt>
      <trkpt lat="44.90434" lon="5.13624">
        <ele>653.83</ele>
        <time>2019-01-12T08:48:46Z</time>
      </trkpt>
      <trkpt lat="44.90436" lon="5.13623">
        <ele>654.8</ele>
        <time>2019-01-12T08:49:17Z</time>
      </trkpt>
      <trkpt lat="44.9044" lon="5.13622">
        <ele>655.28</ele>
        <time>2019-01-12T08:49:21Z</time>
      </trkpt>
      <trkpt lat="44.90446" lon="5.1363">
        <ele>657.2</ele>
        <time>2019-01-12T08:49:33Z</time>
      </trkpt>
      <trkpt lat="44.90446" lon="5.13641">
        <ele>660.08</ele>
        <time>2019-01-12T08:49:44Z</time>
      </trkpt>
      <trkpt lat="44.90448" lon="5.1365">
        <ele>661.52</ele>
        <time>2019-01-12T08:49:56Z</time>
      </trkpt>
      <trkpt lat="44.90449" lon="5.13661">
        <ele>663.93</ele>
        <time>2019-01-12T08:50:09Z</time>
      </trkpt>
      <trkpt lat="44.90451" lon="5.13668">
        <ele>665.85</ele>
        <time>2019-01-12T08:50:20Z</time>
      </trkpt>
      <trkpt lat="44.90452" lon="5.1367">
        <ele>665.85</ele>
        <time>2019-01-12T08:50:25Z</time>
      </trkpt>
      <trkpt lat="44.90454" lon="5.13676">
        <ele>667.29</ele>
        <time>2019-01-12T08:50:30Z</time>
      </trkpt>
      <trkpt lat="44.90455" lon="5.13692">
        <ele>669.22</ele>
        <time>2019-01-12T08:50:40Z</time>
      </trkpt>
      <trkpt lat="44.90456" lon="5.13707">
        <ele>672.58</ele>
        <time>2019-01-12T08:50:53Z</time>
      </trkpt>
      <trkpt lat="44.90456" lon="5.13722">
        <ele>674.98</ele>
        <time>2019-01-12T08:51:05Z</time>
      </trkpt>
      <trkpt lat="44.90454" lon="5.13733">
        <ele>677.39</ele>
        <time>2019-01-12T08:51:16Z</time>
      </trkpt>
      <trkpt lat="44.90455" lon="5.13749">
        <ele>679.79</ele>
        <time>2019-01-12T08:51:27Z</time>
      </trkpt>
      <trkpt lat="44.90455" lon="5.13764">
        <ele>682.19</ele>
        <time>2019-01-12T08:51:40Z</time>
      </trkpt>
      <trkpt lat="44.90456" lon="5.13778">
        <ele>685.56</ele>
        <time>2019-01-12T08:51:52Z</time>
      </trkpt>
      <trkpt lat="44.90456" lon="5.13797">
        <ele>687.96</ele>
        <time>2019-01-12T08:52:04Z</time>
      </trkpt>
      <trkpt lat="44.90455" lon="5.13808">
        <ele>690.36</ele>
        <time>2019-01-12T08:52:15Z</time>
      </trkpt>
      <trkpt lat="44.90454" lon="5.13817">
        <ele>692.29</ele>
        <time>2019-01-12T08:52:24Z</time>
      </trkpt>
      <trkpt lat="44.90463" lon="5.13835">
        <ele>694.69</ele>
        <time>2019-01-12T08:52:38Z</time>
      </trkpt>
      <trkpt lat="44.90467" lon="5.1384">
        <ele>694.69</ele>
        <time>2019-01-12T08:52:50Z</time>
      </trkpt>
      <trkpt lat="44.90467" lon="5.1384">
        <ele>694.69</ele>
        <time>2019-01-12T08:53:15Z</time>
      </trkpt>
      <trkpt lat="44.90466" lon="5.13841">
        <ele>696.13</ele>
        <time>2019-01-12T08:53:29Z</time>
      </trkpt>
      <trkpt lat="44.90457" lon="5.13847">
        <ele>698.53</ele>
        <time>2019-01-12T08:53:42Z</time>
      </trkpt>
      <trkpt lat="44.90449" lon="5.13855">
        <ele>699.98</ele>
        <time>2019-01-12T08:53:57Z</time>
      </trkpt>
      <trkpt lat="44.90443" lon="5.1386">
        <ele>703.34</ele>
        <time>2019-01-12T08:54:08Z</time>
      </trkpt>
      <trkpt lat="44.90433" lon="5.13874">
        <ele>705.75</ele>
        <time>2019-01-12T08:54:19Z</time>
      </trkpt>
      <trkpt lat="44.90432" lon="5.13877">
        <ele>706.71</ele>
        <time>2019-01-12T08:54:22Z</time>
      </trkpt>
      <trkpt lat="44.90424" lon="5.13885">
        <ele>709.11</ele>
        <time>2019-01-12T08:54:33Z</time>
      </trkpt>
      <trkpt lat="44.90417" lon="5.13895">
        <ele>711.03</ele>
        <time>2019-01-12T08:54:45Z</time>
      </trkpt>
      <trkpt lat="44.90408" lon="5.13903">
        <ele>713.92</ele>
        <time>2019-01-12T08:54:56Z</time>
      </trkpt>
      <trkpt lat="44.90403" lon="5.13911">
        <ele>715.36</ele>
        <time>2019-01-12T08:55:08Z</time>
      </trkpt>
      <trkpt lat="44.90399" lon="5.13917">
        <ele>717.28</ele>
        <time>2019-01-12T08:55:22Z</time>
      </trkpt>
      <trkpt lat="44.90393" lon="5.13922">
        <ele>719.2</ele>
        <time>2019-01-12T08:55:31Z</time>
      </trkpt>
      <trkpt lat="44.9039" lon="5.13921">
        <ele>720.16</ele>
        <time>2019-01-12T08:55:35Z</time>
      </trkpt>
      <trkpt lat="44.90388" lon="5.13925">
        <ele>720.65</ele>
        <time>2019-01-12T08:55:38Z</time>
      </trkpt>
      <trkpt lat="44.90386" lon="5.13929">
        <ele>720.65</ele>
        <time>2019-01-12T08:55:41Z</time>
      </trkpt>
      <trkpt lat="44.90386" lon="5.13935">
        <ele>723.53</ele>
        <time>2019-01-12T08:55:49Z</time>
      </trkpt>
      <trkpt lat="44.90394" lon="5.13943">
        <ele>725.45</ele>
        <time>2019-01-12T08:56:00Z</time>
      </trkpt>
      <trkpt lat="44.90407" lon="5.13948">
        <ele>726.41</ele>
        <time>2019-01-12T08:56:12Z</time>
      </trkpt>
      <trkpt lat="44.90414" lon="5.1395">
        <ele>726.41</ele>
        <time>2019-01-12T08:56:18Z</time>
      </trkpt>
      <trkpt lat="44.90417" lon="5.13956">
        <ele>728.34</ele>
        <time>2019-01-12T08:56:36Z</time>
      </trkpt>
      <trkpt lat="44.90417" lon="5.13956">
        <ele>727.86</ele>
        <time>2019-01-12T08:57:04Z</time>
      </trkpt>
      <trkpt lat="44.90413" lon="5.13961">
        <ele>730.74</ele>
        <time>2019-01-12T08:57:16Z</time>
      </trkpt>
      <trkpt lat="44.90411" lon="5.13964">
        <ele>733.14</ele>
        <time>2019-01-12T08:57:29Z</time>
      </trkpt>
      <trkpt lat="44.90407" lon="5.13967">
        <ele>734.58</ele>
        <time>2019-01-12T08:57:36Z</time>
      </trkpt>
      <trkpt lat="44.90405" lon="5.13973">
        <ele>736.51</ele>
        <time>2019-01-12T08:57:48Z</time>
      </trkpt>
      <trkpt lat="44.90402" lon="5.13978">
        <ele>739.87</ele>
        <time>2019-01-12T08:57:59Z</time>
      </trkpt>
      <trkpt lat="44.90397" lon="5.13986">
        <ele>742.28</ele>
        <time>2019-01-12T08:58:11Z</time>
      </trkpt>
      <trkpt lat="44.90389" lon="5.13997">
        <ele>745.64</ele>
        <time>2019-01-12T08:58:24Z</time>
      </trkpt>
      <trkpt lat="44.90387" lon="5.14005">
        <ele>748.52</ele>
        <time>2019-01-12T08:58:38Z</time>
      </trkpt>
      <trkpt lat="44.90386" lon="5.14008">
        <ele>750.45</ele>
        <time>2019-01-12T08:58:54Z</time>
      </trkpt>
      <trkpt lat="44.90383" lon="5.14013">
        <ele>753.81</ele>
        <time>2019-01-12T08:59:07Z</time>
      </trkpt>
      <trkpt lat="44.90383" lon="5.14013">
        <ele>754.29</ele>
        <time>2019-01-12T08:59:27Z</time>
      </trkpt>
      <trkpt lat="44.90383" lon="5.14014">
        <ele>755.25</ele>
        <time>2019-01-12T08:59:45Z</time>
      </trkpt>
      <trkpt lat="44.90379" lon="5.14014">
        <ele>757.18</ele>
        <time>2019-01-12T08:59:59Z</time>
      </trkpt>
      <trkpt lat="44.90379" lon="5.14014">
        <ele>758.62</ele>
        <time>2019-01-12T09:00:14Z</time>
      </trkpt>
      <trkpt lat="44.90377" lon="5.14024">
        <ele>760.54</ele>
        <time>2019-01-12T09:00:27Z</time>
      </trkpt>
      <trkpt lat="44.90377" lon="5.14024">
        <ele>762.46</ele>
        <time>2019-01-12T09:00:41Z</time>
      </trkpt>
      <trkpt lat="44.90377" lon="5.14024">
        <ele>762.94</ele>
        <time>2019-01-12T09:00:58Z</time>
      </trkpt>
      <trkpt lat="44.90378" lon="5.14027">
        <ele>763.9</ele>
        <time>2019-01-12T09:01:22Z</time>
      </trkpt>
      <trkpt lat="44.90378" lon="5.14027">
        <ele>763.42</ele>
        <time>2019-01-12T09:01:41Z</time>
      </trkpt>
      <trkpt lat="44.90378" lon="5.14027">
        <ele>762.94</ele>
        <time>2019-01-12T09:02:08Z</time>
      </trkpt>
      <trkpt lat="44.90378" lon="5.14028">
        <ele>762.94</ele>
        <time>2019-01-12T09:02:32Z</time>
      </trkpt>
      <trkpt lat="44.90378" lon="5.14028">
        <ele>762.46</ele>
        <time>2019-01-12T09:03:01Z</time>
      </trkpt>
      <trkpt lat="44.90378" lon="5.14028">
        <ele>762.46</ele>
        <time>2019-01-12T09:03:26Z</time>
      </trkpt>
      <trkpt lat="44.9037" lon="5.14045">
        <ele>764.87</ele>
        <time>2019-01-12T09:03:45Z</time>
      </trkpt>
      <trkpt lat="44.90363" lon="5.14047">
        <ele>766.79</ele>
        <time>2019-01-12T09:03:57Z</time>
      </trkpt>
      <trkpt lat="44.90358" lon="5.14052">
        <ele>768.71</ele>
        <time>2019-01-12T09:04:03Z</time>
      </trkpt>
      <trkpt lat="44.90325" lon="5.14072">
        <ele>771.11</ele>
        <time>2019-01-12T09:04:16Z</time>
      </trkpt>
      <trkpt lat="44.90323" lon="5.14074">
        <ele>772.08</ele>
        <time>2019-01-12T09:04:20Z</time>
      </trkpt>
      <trkpt lat="44.90316" lon="5.14077">
        <ele>774.48</ele>
        <time>2019-01-12T09:04:30Z</time>
      </trkpt>
      <trkpt lat="44.90307" lon="5.14078">
        <ele>776.88</ele>
        <time>2019-01-12T09:04:42Z</time>
      </trkpt>
      <trkpt lat="44.90303" lon="5.14079">
        <ele>778.32</ele>
        <time>2019-01-12T09:04:47Z</time>
      </trkpt>
      <trkpt lat="44.90299" lon="5.14087">
        <ele>781.21</ele>
        <time>2019-01-12T09:04:58Z</time>
      </trkpt>
      <trkpt lat="44.90301" lon="5.141">
        <ele>784.09</ele>
        <time>2019-01-12T09:05:12Z</time>
      </trkpt>
      <trkpt lat="44.90306" lon="5.14104">
        <ele>786.98</ele>
        <time>2019-01-12T09:05:25Z</time>
      </trkpt>
      <trkpt lat="44.90308" lon="5.14109">
        <ele>789.86</ele>
        <time>2019-01-12T09:05:35Z</time>
      </trkpt>
      <trkpt lat="44.90301" lon="5.14107">
        <ele>791.78</ele>
        <time>2019-01-12T09:05:46Z</time>
      </trkpt>
      <trkpt lat="44.90297" lon="5.1411">
        <ele>795.15</ele>
        <time>2019-01-12T09:05:56Z</time>
      </trkpt>
      <trkpt lat="44.90292" lon="5.14115">
        <ele>797.07</ele>
        <time>2019-01-12T09:06:11Z</time>
      </trkpt>
      <trkpt lat="44.90293" lon="5.14131">
        <ele>799.47</ele>
        <time>2019-01-12T09:06:25Z</time>
      </trkpt>
      <trkpt lat="44.90293" lon="5.14134">
        <ele>800.92</ele>
        <time>2019-01-12T09:06:28Z</time>
      </trkpt>
      <trkpt lat="44.90288" lon="5.14135">
        <ele>802.84</ele>
        <time>2019-01-12T09:06:39Z</time>
      </trkpt>
      <trkpt lat="44.90283" lon="5.14139">
        <ele>803.8</ele>
        <time>2019-01-12T09:06:45Z</time>
      </trkpt>
      <trkpt lat="44.90278" lon="5.14142">
        <ele>805.24</ele>
        <time>2019-01-12T09:06:51Z</time>
      </trkpt>
      <trkpt lat="44.9027" lon="5.14147">
        <ele>808.13</ele>
        <time>2019-01-12T09:07:03Z</time>
      </trkpt>
      <trkpt lat="44.90269" lon="5.14149">
        <ele>809.09</ele>
        <time>2019-01-12T09:07:07Z</time>
      </trkpt>
      <trkpt lat="44.90266" lon="5.14153">
        <ele>810.53</ele>
        <time>2019-01-12T09:07:13Z</time>
      </trkpt>
      <trkpt lat="44.90259" lon="5.14162">
        <ele>813.41</ele>
        <time>2019-01-12T09:07:25Z</time>
      </trkpt>
      <trkpt lat="44.90253" lon="5.14169">
        <ele>815.82</ele>
        <time>2019-01-12T09:07:37Z</time>
      </trkpt>
      <trkpt lat="44.9025" lon="5.14173">
        <ele>819.18</ele>
        <time>2019-01-12T09:07:48Z</time>
      </trkpt>
      <trkpt lat="44.90242" lon="5.14184">
        <ele>822.06</ele>
        <time>2019-01-12T09:08:00Z</time>
      </trkpt>
      <trkpt lat="44.90237" lon="5.14195">
        <ele>824.95</ele>
        <time>2019-01-12T09:08:11Z</time>
      </trkpt>
      <trkpt lat="44.90233" lon="5.14205">
        <ele>827.35</ele>
        <time>2019-01-12T09:08:22Z</time>
      </trkpt>
      <trkpt lat="44.90226" lon="5.14213">
        <ele>829.76</ele>
        <time>2019-01-12T09:08:34Z</time>
      </trkpt>
      <trkpt lat="44.90222" lon="5.14219">
        <ele>832.16</ele>
        <time>2019-01-12T09:08:46Z</time>
      </trkpt>
      <trkpt lat="44.90214" lon="5.14228">
        <ele>834.56</ele>
        <time>2019-01-12T09:08:57Z</time>
      </trkpt>
      <trkpt lat="44.90219" lon="5.14238">
        <ele>837.45</ele>
        <time>2019-01-12T09:09:09Z</time>
      </trkpt>
      <trkpt lat="44.90227" lon="5.14238">
        <ele>840.81</ele>
        <time>2019-01-12T09:09:23Z</time>
      </trkpt>
      <trkpt lat="44.90235" lon="5.14238">
        <ele>843.69</ele>
        <time>2019-01-12T09:09:36Z</time>
      </trkpt>
      <trkpt lat="44.90239" lon="5.14241">
        <ele>845.62</ele>
        <time>2019-01-12T09:09:47Z</time>
      </trkpt>
      <trkpt lat="44.90249" lon="5.14243">
        <ele>848.98</ele>
        <time>2019-01-12T09:09:58Z</time>
      </trkpt>
      <trkpt lat="44.90251" lon="5.14243">
        <ele>848.98</ele>
        <time>2019-01-12T09:10:00Z</time>
      </trkpt>
      <trkpt lat="44.90259" lon="5.14242">
        <ele>850.42</ele>
        <time>2019-01-12T09:10:08Z</time>
      </trkpt>
      <trkpt lat="44.90271" lon="5.1424">
        <ele>852.83</ele>
        <time>2019-01-12T09:10:21Z</time>
      </trkpt>
      <trkpt lat="44.90281" lon="5.14241">
        <ele>854.27</ele>
        <time>2019-01-12T09:10:33Z</time>
      </trkpt>
      <trkpt lat="44.90296" lon="5.14244">
        <ele>857.63</ele>
        <time>2019-01-12T09:10:49Z</time>
      </trkpt>
      <trkpt lat="44.90308" lon="5.14244">
        <ele>859.08</ele>
        <time>2019-01-12T09:11:06Z</time>
      </trkpt>
      <trkpt lat="44.9031" lon="5.14245">
        <ele>859.56</ele>
        <time>2019-01-12T09:11:30Z</time>
      </trkpt>
      <trkpt lat="44.9031" lon="5.14246">
        <ele>860.04</ele>
        <time>2019-01-12T09:12:00Z</time>
      </trkpt>
      <trkpt lat="44.90319" lon="5.14252">
        <ele>862.44</ele>
        <time>2019-01-12T09:12:14Z</time>
      </trkpt>
      <trkpt lat="44.90318" lon="5.14252">
        <ele>864.84</ele>
        <time>2019-01-12T09:12:25Z</time>
      </trkpt>
      <trkpt lat="44.90309" lon="5.14253">
        <ele>867.73</ele>
        <time>2019-01-12T09:12:38Z</time>
      </trkpt>
      <trkpt lat="44.90308" lon="5.14255">
        <ele>868.21</ele>
        <time>2019-01-12T09:12:41Z</time>
      </trkpt>
      <trkpt lat="44.90305" lon="5.14258">
        <ele>869.17</ele>
        <time>2019-01-12T09:12:47Z</time>
      </trkpt>
      <trkpt lat="44.90297" lon="5.14263">
        <ele>871.57</ele>
        <time>2019-01-12T09:12:58Z</time>
      </trkpt>
      <trkpt lat="44.90291" lon="5.14271">
        <ele>874.46</ele>
        <time>2019-01-12T09:13:09Z</time>
      </trkpt>
      <trkpt lat="44.90282" lon="5.14275">
        <ele>876.86</ele>
        <time>2019-01-12T09:13:20Z</time>
      </trkpt>
      <trkpt lat="44.90273" lon="5.1428">
        <ele>878.78</ele>
        <time>2019-01-12T09:13:31Z</time>
      </trkpt>
      <trkpt lat="44.90273" lon="5.1428">
        <ele>878.78</ele>
        <time>2019-01-12T09:13:50Z</time>
      </trkpt>
      <trkpt lat="44.90273" lon="5.14281">
        <ele>878.3</ele>
        <time>2019-01-12T09:14:12Z</time>
      </trkpt>
      <trkpt lat="44.9027" lon="5.14286">
        <ele>879.26</ele>
        <time>2019-01-12T09:14:27Z</time>
      </trkpt>
      <trkpt lat="44.90265" lon="5.14296">
        <ele>882.15</ele>
        <time>2019-01-12T09:14:38Z</time>
      </trkpt>
      <trkpt lat="44.90264" lon="5.14302">
        <ele>882.63</ele>
        <time>2019-01-12T09:14:43Z</time>
      </trkpt>
      <trkpt lat="44.90258" lon="5.14308">
        <ele>885.99</ele>
        <time>2019-01-12T09:14:55Z</time>
      </trkpt>
      <trkpt lat="44.90254" lon="5.14316">
        <ele>888.88</ele>
        <time>2019-01-12T09:15:06Z</time>
      </trkpt>
      <trkpt lat="44.90252" lon="5.14323">
        <ele>890.8</ele>
        <time>2019-01-12T09:15:13Z</time>
      </trkpt>
      <trkpt lat="44.90246" lon="5.14328">
        <ele>892.24</ele>
        <time>2019-01-12T09:15:20Z</time>
      </trkpt>
      <trkpt lat="44.9024" lon="5.14337">
        <ele>895.61</ele>
        <time>2019-01-12T09:15:32Z</time>
      </trkpt>
      <trkpt lat="44.90236" lon="5.14341">
        <ele>896.57</ele>
        <time>2019-01-12T09:15:38Z</time>
      </trkpt>
      <trkpt lat="44.90233" lon="5.1435">
        <ele>898.49</ele>
        <time>2019-01-12T09:15:45Z</time>
      </trkpt>
      <trkpt lat="44.90232" lon="5.14356">
        <ele>900.89</ele>
        <time>2019-01-12T09:15:55Z</time>
      </trkpt>
      <trkpt lat="44.90231" lon="5.14359">
        <ele>901.37</ele>
        <time>2019-01-12T09:15:57Z</time>
      </trkpt>
      <trkpt lat="44.90227" lon="5.14362">
        <ele>902.82</ele>
        <time>2019-01-12T09:16:03Z</time>
      </trkpt>
      <trkpt lat="44.9022" lon="5.14372">
        <ele>905.22</ele>
        <time>2019-01-12T09:16:15Z</time>
      </trkpt>
      <trkpt lat="44.90215" lon="5.14376">
        <ele>906.66</ele>
        <time>2019-01-12T09:16:24Z</time>
      </trkpt>
      <trkpt lat="44.9021" lon="5.14382">
        <ele>909.06</ele>
        <time>2019-01-12T09:16:34Z</time>
      </trkpt>
      <trkpt lat="44.90214" lon="5.14385">
        <ele>910.99</ele>
        <time>2019-01-12T09:16:46Z</time>
      </trkpt>
      <trkpt lat="44.90216" lon="5.14388">
        <ele>911.95</ele>
        <time>2019-01-12T09:16:52Z</time>
      </trkpt>
      <trkpt lat="44.90215" lon="5.14392">
        <ele>912.91</ele>
        <time>2019-01-12T09:16:56Z</time>
      </trkpt>
      <trkpt lat="44.90209" lon="5.14393">
        <ele>915.31</ele>
        <time>2019-01-12T09:17:07Z</time>
      </trkpt>
      <trkpt lat="44.90206" lon="5.14401">
        <ele>917.24</ele>
        <time>2019-01-12T09:17:20Z</time>
      </trkpt>
      <trkpt lat="44.90203" lon="5.14406">
        <ele>920.12</ele>
        <time>2019-01-12T09:17:32Z</time>
      </trkpt>
      <trkpt lat="44.90203" lon="5.14406">
        <ele>920.6</ele>
        <time>2019-01-12T09:17:33Z</time>
      </trkpt>
      <trkpt lat="44.90196" lon="5.14415">
        <ele>922.04</ele>
        <time>2019-01-12T09:17:43Z</time>
      </trkpt>
      <trkpt lat="44.90193" lon="5.14429">
        <ele>924.45</ele>
        <time>2019-01-12T09:17:55Z</time>
      </trkpt>
      <trkpt lat="44.90191" lon="5.14433">
        <ele>925.89</ele>
        <time>2019-01-12T09:18:00Z</time>
      </trkpt>
      <trkpt lat="44.90187" lon="5.14442">
        <ele>927.81</ele>
        <time>2019-01-12T09:18:12Z</time>
      </trkpt>
      <trkpt lat="44.90185" lon="5.14454">
        <ele>929.25</ele>
        <time>2019-01-12T09:18:23Z</time>
      </trkpt>
      <trkpt lat="44.90184" lon="5.14457">
        <ele>930.21</ele>
        <time>2019-01-12T09:18:29Z</time>
      </trkpt>
      <trkpt lat="44.90185" lon="5.14468">
        <ele>931.65</ele>
        <time>2019-01-12T09:18:43Z</time>
      </trkpt>
      <trkpt lat="44.90184" lon="5.14483">
        <ele>934.06</ele>
        <time>2019-01-12T09:18:56Z</time>
      </trkpt>
      <trkpt lat="44.90184" lon="5.14493">
        <ele>935.98</ele>
        <time>2019-01-12T09:19:06Z</time>
      </trkpt>
      <trkpt lat="44.90183" lon="5.145">
        <ele>936.94</ele>
        <time>2019-01-12T09:19:16Z</time>
      </trkpt>
      <trkpt lat="44.90183" lon="5.14504">
        <ele>937.9</ele>
        <time>2019-01-12T09:19:27Z</time>
      </trkpt>
      <trkpt lat="44.90184" lon="5.14505">
        <ele>936.46</ele>
        <time>2019-01-12T09:19:34Z</time>
      </trkpt>
      <trkpt lat="44.90183" lon="5.14506">
        <ele>940.31</ele>
        <time>2019-01-12T09:19:35Z</time>
      </trkpt>
      <trkpt lat="44.90183" lon="5.14506">
        <ele>938.38</ele>
        <time>2019-01-12T09:19:38Z</time>
      </trkpt>
      <trkpt lat="44.90184" lon="5.1451">
        <ele>939.83</ele>
        <time>2019-01-12T09:19:54Z</time>
      </trkpt>
      <trkpt lat="44.90183" lon="5.1451">
        <ele>939.83</ele>
        <time>2019-01-12T09:19:58Z</time>
      </trkpt>
      <trkpt lat="44.90184" lon="5.14522">
        <ele>942.71</ele>
        <time>2019-01-12T09:20:10Z</time>
      </trkpt>
      <trkpt lat="44.90184" lon="5.14531">
        <ele>945.11</ele>
        <time>2019-01-12T09:20:21Z</time>
      </trkpt>
      <trkpt lat="44.90185" lon="5.1454">
        <ele>946.56</ele>
        <time>2019-01-12T09:20:35Z</time>
      </trkpt>
      <trkpt lat="44.90184" lon="5.14554">
        <ele>948.96</ele>
        <time>2019-01-12T09:20:48Z</time>
      </trkpt>
      <trkpt lat="44.90184" lon="5.14558">
        <ele>950.88</ele>
        <time>2019-01-12T09:21:00Z</time>
      </trkpt>
      <trkpt lat="44.90184" lon="5.14561">
        <ele>951.84</ele>
        <time>2019-01-12T09:21:13Z</time>
      </trkpt>
      <trkpt lat="44.90182" lon="5.14567">
        <ele>952.32</ele>
        <time>2019-01-12T09:21:26Z</time>
      </trkpt>
      <trkpt lat="44.90181" lon="5.14573">
        <ele>952.8</ele>
        <time>2019-01-12T09:21:36Z</time>
      </trkpt>
      <trkpt lat="44.90178" lon="5.14581">
        <ele>953.28</ele>
        <time>2019-01-12T09:21:45Z</time>
      </trkpt>
      <trkpt lat="44.90176" lon="5.14587">
        <ele>954.73</ele>
        <time>2019-01-12T09:21:54Z</time>
      </trkpt>
      <trkpt lat="44.90176" lon="5.14592">
        <ele>956.17</ele>
        <time>2019-01-12T09:22:08Z</time>
      </trkpt>
      <trkpt lat="44.90176" lon="5.14601">
        <ele>958.09</ele>
        <time>2019-01-12T09:22:17Z</time>
      </trkpt>
      <trkpt lat="44.90181" lon="5.14615">
        <ele>959.53</ele>
        <time>2019-01-12T09:22:28Z</time>
      </trkpt>
      <trkpt lat="44.90183" lon="5.14621">
        <ele>961.94</ele>
        <time>2019-01-12T09:22:41Z</time>
      </trkpt>
      <trkpt lat="44.90184" lon="5.14632">
        <ele>963.86</ele>
        <time>2019-01-12T09:22:53Z</time>
      </trkpt>
      <trkpt lat="44.90186" lon="5.14635">
        <ele>966.74</ele>
        <time>2019-01-12T09:23:06Z</time>
      </trkpt>
      <trkpt lat="44.90197" lon="5.1464">
        <ele>968.18</ele>
        <time>2019-01-12T09:23:20Z</time>
      </trkpt>
      <trkpt lat="44.90203" lon="5.14639">
        <ele>970.11</ele>
        <time>2019-01-12T09:23:32Z</time>
      </trkpt>
      <trkpt lat="44.90206" lon="5.14639">
        <ele>971.07</ele>
        <time>2019-01-12T09:23:48Z</time>
      </trkpt>
      <trkpt lat="44.90206" lon="5.14639">
        <ele>971.07</ele>
        <time>2019-01-12T09:24:13Z</time>
      </trkpt>
      <trkpt lat="44.90206" lon="5.14639">
        <ele>970.59</ele>
        <time>2019-01-12T09:24:44Z</time>
      </trkpt>
      <trkpt lat="44.90206" lon="5.14639">
        <ele>971.55</ele>
        <time>2019-01-12T09:25:13Z</time>
      </trkpt>
      <trkpt lat="44.90208" lon="5.14642">
        <ele>972.99</ele>
        <time>2019-01-12T09:25:28Z</time>
      </trkpt>
      <trkpt lat="44.90208" lon="5.14647">
        <ele>976.36</ele>
        <time>2019-01-12T09:25:39Z</time>
      </trkpt>
      <trkpt lat="44.90206" lon="5.14654">
        <ele>979.24</ele>
        <time>2019-01-12T09:25:49Z</time>
      </trkpt>
      <trkpt lat="44.90205" lon="5.14655">
        <ele>979.24</ele>
        <time>2019-01-12T09:25:50Z</time>
      </trkpt>
      <trkpt lat="44.902" lon="5.1467">
        <ele>980.68</ele>
        <time>2019-01-12T09:26:02Z</time>
      </trkpt>
      <trkpt lat="44.902" lon="5.14672">
        <ele>981.64</ele>
        <time>2019-01-12T09:26:03Z</time>
      </trkpt>
      <trkpt lat="44.90198" lon="5.14676">
        <ele>982.6</ele>
        <time>2019-01-12T09:26:07Z</time>
      </trkpt>
      <trkpt lat="44.90199" lon="5.14681">
        <ele>983.57</ele>
        <time>2019-01-12T09:26:11Z</time>
      </trkpt>
      <trkpt lat="44.90201" lon="5.14694">
        <ele>986.45</ele>
        <time>2019-01-12T09:26:23Z</time>
      </trkpt>
      <trkpt lat="44.902" lon="5.14695">
        <ele>987.41</ele>
        <time>2019-01-12T09:26:27Z</time>
      </trkpt>
      <trkpt lat="44.90196" lon="5.14704">
        <ele>990.78</ele>
        <time>2019-01-12T09:26:40Z</time>
      </trkpt>
      <trkpt lat="44.90195" lon="5.14713">
        <ele>992.7</ele>
        <time>2019-01-12T09:26:51Z</time>
      </trkpt>
      <trkpt lat="44.90195" lon="5.14716">
        <ele>993.66</ele>
        <time>2019-01-12T09:27:02Z</time>
      </trkpt>
      <trkpt lat="44.90192" lon="5.14721">
        <ele>995.58</ele>
        <time>2019-01-12T09:27:13Z</time>
      </trkpt>
      <trkpt lat="44.90191" lon="5.14724">
        <ele>997.51</ele>
        <time>2019-01-12T09:27:24Z</time>
      </trkpt>
      <trkpt lat="44.90185" lon="5.14731">
        <ele>999.91</ele>
        <time>2019-01-12T09:27:36Z</time>
      </trkpt>
      <trkpt lat="44.90182" lon="5.14738">
        <ele>1001.83</ele>
        <time>2019-01-12T09:27:47Z</time>
      </trkpt>
      <trkpt lat="44.90183" lon="5.14749">
        <ele>1003.75</ele>
        <time>2019-01-12T09:28:01Z</time>
      </trkpt>
      <trkpt lat="44.90181" lon="5.14754">
        <ele>1006.16</ele>
        <time>2019-01-12T09:28:17Z</time>
      </trkpt>
      <trkpt lat="44.90178" lon="5.14763">
        <ele>1008.56</ele>
        <time>2019-01-12T09:28:30Z</time>
      </trkpt>
      <trkpt lat="44.90174" lon="5.14767">
        <ele>1010.48</ele>
        <time>2019-01-12T09:28:42Z</time>
      </trkpt>
      <trkpt lat="44.90171" lon="5.14771">
        <ele>1012.89</ele>
        <time>2019-01-12T09:28:54Z</time>
      </trkpt>
      <trkpt lat="44.90164" lon="5.14783">
        <ele>1014.33</ele>
        <time>2019-01-12T09:29:06Z</time>
      </trkpt>
      <trkpt lat="44.90161" lon="5.1479">
        <ele>1015.77</ele>
        <time>2019-01-12T09:29:18Z</time>
      </trkpt>
      <trkpt lat="44.90158" lon="5.14791">
        <ele>1018.17</ele>
        <time>2019-01-12T09:29:32Z</time>
      </trkpt>
      <trkpt lat="44.90152" lon="5.14795">
        <ele>1020.58</ele>
        <time>2019-01-12T09:29:44Z</time>
      </trkpt>
      <trkpt lat="44.90148" lon="5.14798">
        <ele>1022.5</ele>
        <time>2019-01-12T09:29:57Z</time>
      </trkpt>
      <trkpt lat="44.90147" lon="5.14801">
        <ele>1023.46</ele>
        <time>2019-01-12T09:30:09Z</time>
      </trkpt>
      <trkpt lat="44.90148" lon="5.14802">
        <ele>1026.34</ele>
        <time>2019-01-12T09:30:24Z</time>
      </trkpt>
      <trkpt lat="44.90151" lon="5.14808">
        <ele>1028.27</ele>
        <time>2019-01-12T09:30:41Z</time>
      </trkpt>
      <trkpt lat="44.90151" lon="5.14814">
        <ele>1030.19</ele>
        <time>2019-01-12T09:30:53Z</time>
      </trkpt>
      <trkpt lat="44.90153" lon="5.14821">
        <ele>1031.63</ele>
        <time>2019-01-12T09:31:03Z</time>
      </trkpt>
      <trkpt lat="44.90151" lon="5.14822">
        <ele>1034.04</ele>
        <time>2019-01-12T09:31:15Z</time>
      </trkpt>
      <trkpt lat="44.90149" lon="5.14824">
        <ele>1036.44</ele>
        <time>2019-01-12T09:31:28Z</time>
      </trkpt>
      <trkpt lat="44.90152" lon="5.14827">
        <ele>1039.32</ele>
        <time>2019-01-12T09:31:45Z</time>
      </trkpt>
      <trkpt lat="44.90158" lon="5.14828">
        <ele>1041.25</ele>
        <time>2019-01-12T09:31:59Z</time>
      </trkpt>
      <trkpt lat="44.90164" lon="5.14824">
        <ele>1042.69</ele>
        <time>2019-01-12T09:32:13Z</time>
      </trkpt>
      <trkpt lat="44.90166" lon="5.14824">
        <ele>1045.09</ele>
        <time>2019-01-12T09:32:24Z</time>
      </trkpt>
      <trkpt lat="44.90165" lon="5.14829">
        <ele>1046.53</ele>
        <time>2019-01-12T09:32:37Z</time>
      </trkpt>
      <trkpt lat="44.90163" lon="5.14831">
        <ele>1048.45</ele>
        <time>2019-01-12T09:32:47Z</time>
      </trkpt>
      <trkpt lat="44.90166" lon="5.14835">
        <ele>1050.38</ele>
        <time>2019-01-12T09:33:00Z</time>
      </trkpt>
      <trkpt lat="44.90167" lon="5.14843">
        <ele>1052.78</ele>
        <time>2019-01-12T09:33:15Z</time>
      </trkpt>
      <trkpt lat="44.90167" lon="5.14844">
        <ele>1055.67</ele>
        <time>2019-01-12T09:33:26Z</time>
      </trkpt>
      <trkpt lat="44.90167" lon="5.14844">
        <ele>1057.11</ele>
        <time>2019-01-12T09:33:28Z</time>
      </trkpt>
      <trkpt lat="44.90165" lon="5.14851">
        <ele>1056.63</ele>
        <time>2019-01-12T09:33:40Z</time>
      </trkpt>
      <trkpt lat="44.90158" lon="5.14864">
        <ele>1058.07</ele>
        <time>2019-01-12T09:33:53Z</time>
      </trkpt>
      <trkpt lat="44.90158" lon="5.14865">
        <ele>1058.07</ele>
        <time>2019-01-12T09:34:17Z</time>
      </trkpt>
      <trkpt lat="44.90156" lon="5.14867">
        <ele>1058.07</ele>
        <time>2019-01-12T09:34:35Z</time>
      </trkpt>
      <trkpt lat="44.90153" lon="5.14871">
        <ele>1058.55</ele>
        <time>2019-01-12T09:34:37Z</time>
      </trkpt>
      <trkpt lat="44.90152" lon="5.14877">
        <ele>1059.51</ele>
        <time>2019-01-12T09:34:41Z</time>
      </trkpt>
      <trkpt lat="44.90152" lon="5.14886">
        <ele>1061.43</ele>
        <time>2019-01-12T09:34:51Z</time>
      </trkpt>
      <trkpt lat="44.90154" lon="5.14888">
        <ele>1061.91</ele>
        <time>2019-01-12T09:34:52Z</time>
      </trkpt>
      <trkpt lat="44.9016" lon="5.14903">
        <ele>1063.36</ele>
        <time>2019-01-12T09:35:00Z</time>
      </trkpt>
      <trkpt lat="44.9016" lon="5.14905">
        <ele>1063.84</ele>
        <time>2019-01-12T09:35:18Z</time>
      </trkpt>
      <trkpt lat="44.90161" lon="5.14909">
        <ele>1063.84</ele>
        <time>2019-01-12T09:35:36Z</time>
      </trkpt>
      <trkpt lat="44.90162" lon="5.14912">
        <ele>1065.28</ele>
        <time>2019-01-12T09:35:43Z</time>
      </trkpt>
      <trkpt lat="44.90163" lon="5.14911">
        <ele>1064.32</ele>
        <time>2019-01-12T09:35:58Z</time>
      </trkpt>
      <trkpt lat="44.90163" lon="5.14911">
        <ele>1064.8</ele>
        <time>2019-01-12T09:36:24Z</time>
      </trkpt>
      <trkpt lat="44.90162" lon="5.14911">
        <ele>1064.32</ele>
        <time>2019-01-12T09:36:32Z</time>
      </trkpt>
      <trkpt lat="44.90165" lon="5.14914">
        <ele>1064.8</ele>
        <time>2019-01-12T09:36:41Z</time>
      </trkpt>
      <trkpt lat="44.90163" lon="5.14912">
        <ele>1064.32</ele>
        <time>2019-01-12T09:36:54Z</time>
      </trkpt>
      <trkpt lat="44.90165" lon="5.14914">
        <ele>1065.28</ele>
        <time>2019-01-12T09:37:15Z</time>
      </trkpt>
      <trkpt lat="44.90164" lon="5.14915">
        <ele>1063.84</ele>
        <time>2019-01-12T09:37:25Z</time>
      </trkpt>
      <trkpt lat="44.90164" lon="5.14912">
        <ele>1064.32</ele>
        <time>2019-01-12T09:37:40Z</time>
      </trkpt>
      <trkpt lat="44.90164" lon="5.14912">
        <ele>1063.36</ele>
        <time>2019-01-12T09:37:59Z</time>
      </trkpt>
      <trkpt lat="44.90164" lon="5.14912">
        <ele>1064.8</ele>
        <time>2019-01-12T09:38:17Z</time>
      </trkpt>
      <trkpt lat="44.90165" lon="5.14913">
        <ele>1064.8</ele>
        <time>2019-01-12T09:38:32Z</time>
      </trkpt>
      <trkpt lat="44.90165" lon="5.14915">
        <ele>1064.8</ele>
        <time>2019-01-12T09:38:38Z</time>
      </trkpt>
      <trkpt lat="44.90168" lon="5.14923">
        <ele>1065.28</ele>
        <time>2019-01-12T09:38:51Z</time>
      </trkpt>
      <trkpt lat="44.90171" lon="5.14931">
        <ele>1065.28</ele>
        <time>2019-01-12T09:38:56Z</time>
      </trkpt>
      <trkpt lat="44.90177" lon="5.1494">
        <ele>1067.2</ele>
        <time>2019-01-12T09:39:07Z</time>
      </trkpt>
      <trkpt lat="44.90179" lon="5.14951">
        <ele>1068.16</ele>
        <time>2019-01-12T09:39:15Z</time>
      </trkpt>
      <trkpt lat="44.9018" lon="5.14962">
        <ele>1068.64</ele>
        <time>2019-01-12T09:39:28Z</time>
      </trkpt>
      <trkpt lat="44.90182" lon="5.14965">
        <ele>1070.08</ele>
        <time>2019-01-12T09:39:31Z</time>
      </trkpt>
      <trkpt lat="44.90185" lon="5.14968">
        <ele>1070.08</ele>
        <time>2019-01-12T09:39:37Z</time>
      </trkpt>
      <trkpt lat="44.9019" lon="5.14976">
        <ele>1070.57</ele>
        <time>2019-01-12T09:39:47Z</time>
      </trkpt>
      <trkpt lat="44.90192" lon="5.14978">
        <ele>1068.16</ele>
        <time>2019-01-12T09:39:58Z</time>
      </trkpt>
      <trkpt lat="44.90192" lon="5.14978">
        <ele>1070.08</ele>
        <time>2019-01-12T09:40:15Z</time>
      </trkpt>
      <trkpt lat="44.90193" lon="5.14976">
        <ele>1069.6</ele>
        <time>2019-01-12T09:40:32Z</time>
      </trkpt>
      <trkpt lat="44.90193" lon="5.14976">
        <ele>1069.6</ele>
        <time>2019-01-12T09:40:43Z</time>
      </trkpt>
      <trkpt lat="44.90193" lon="5.14976">
        <ele>1069.12</ele>
        <time>2019-01-12T09:40:57Z</time>
      </trkpt>
      <trkpt lat="44.90193" lon="5.14976">
        <ele>1070.57</ele>
        <time>2019-01-12T09:41:13Z</time>
      </trkpt>
      <trkpt lat="44.90193" lon="5.14976">
        <ele>1068.16</ele>
        <time>2019-01-12T09:41:29Z</time>
      </trkpt>
      <trkpt lat="44.90194" lon="5.14976">
        <ele>1070.08</ele>
        <time>2019-01-12T09:41:32Z</time>
      </trkpt>
      <trkpt lat="44.90194" lon="5.14976">
        <ele>1071.53</ele>
        <time>2019-01-12T09:41:34Z</time>
      </trkpt>
      <trkpt lat="44.90194" lon="5.14978">
        <ele>1071.53</ele>
        <time>2019-01-12T09:41:36Z</time>
      </trkpt>
      <trkpt lat="44.90199" lon="5.14989">
        <ele>1070.08</ele>
        <time>2019-01-12T09:41:42Z</time>
      </trkpt>
      <trkpt lat="44.90201" lon="5.14994">
        <ele>1069.6</ele>
        <time>2019-01-12T09:41:46Z</time>
      </trkpt>
      <trkpt lat="44.90212" lon="5.15013">
        <ele>1066.72</ele>
        <time>2019-01-12T09:41:57Z</time>
      </trkpt>
      <trkpt lat="44.90219" lon="5.15022">
        <ele>1065.76</ele>
        <time>2019-01-12T09:42:05Z</time>
      </trkpt>
      <trkpt lat="44.90219" lon="5.15024">
        <ele>1064.8</ele>
        <time>2019-01-12T09:42:07Z</time>
      </trkpt>
      <trkpt lat="44.90221" lon="5.15037">
        <ele>1061.91</ele>
        <time>2019-01-12T09:42:16Z</time>
      </trkpt>
      <trkpt lat="44.90223" lon="5.15047">
        <ele>1062.39</ele>
        <time>2019-01-12T09:42:26Z</time>
      </trkpt>
      <trkpt lat="44.90223" lon="5.15051">
        <ele>1062.39</ele>
        <time>2019-01-12T09:42:31Z</time>
      </trkpt>
      <trkpt lat="44.90223" lon="5.15056">
        <ele>1062.87</ele>
        <time>2019-01-12T09:42:35Z</time>
      </trkpt>
      <trkpt lat="44.90223" lon="5.15069">
        <ele>1061.91</ele>
        <time>2019-01-12T09:42:43Z</time>
      </trkpt>
      <trkpt lat="44.90225" lon="5.15074">
        <ele>1061.43</ele>
        <time>2019-01-12T09:42:47Z</time>
      </trkpt>
      <trkpt lat="44.90225" lon="5.15077">
        <ele>1061.43</ele>
        <time>2019-01-12T09:42:50Z</time>
      </trkpt>
      <trkpt lat="44.90224" lon="5.15079">
        <ele>1061.43</ele>
        <time>2019-01-12T09:42:52Z</time>
      </trkpt>
      <trkpt lat="44.90222" lon="5.15087">
        <ele>1064.8</ele>
        <time>2019-01-12T09:42:57Z</time>
      </trkpt>
      <trkpt lat="44.90221" lon="5.15087">
        <ele>1064.8</ele>
        <time>2019-01-12T09:42:58Z</time>
      </trkpt>
      <trkpt lat="44.90221" lon="5.15087">
        <ele>1061.43</ele>
        <time>2019-01-12T09:43:00Z</time>
      </trkpt>
      <trkpt lat="44.90221" lon="5.15087">
        <ele>1061.91</ele>
        <time>2019-01-12T09:43:01Z</time>
      </trkpt>
      <trkpt lat="44.90221" lon="5.15087">
        <ele>1063.36</ele>
        <time>2019-01-12T09:43:29Z</time>
      </trkpt>
      <trkpt lat="44.90222" lon="5.15087">
        <ele>1061.43</ele>
        <time>2019-01-12T09:43:54Z</time>
      </trkpt>
      <trkpt lat="44.90222" lon="5.15087">
        <ele>1060.47</ele>
        <time>2019-01-12T09:44:20Z</time>
      </trkpt>
      <trkpt lat="44.90222" lon="5.15087">
        <ele>1061.43</ele>
        <time>2019-01-12T09:44:43Z</time>
      </trkpt>
      <trkpt lat="44.90222" lon="5.15086">
        <ele>1060.95</ele>
        <time>2019-01-12T09:44:48Z</time>
      </trkpt>
      <trkpt lat="44.90223" lon="5.15086">
        <ele>1061.91</ele>
        <time>2019-01-12T09:44:55Z</time>
      </trkpt>
      <trkpt lat="44.90223" lon="5.15086">
        <ele>1062.87</ele>
        <time>2019-01-12T09:45:10Z</time>
      </trkpt>
      <trkpt lat="44.90223" lon="5.15087">
        <ele>1061.91</ele>
        <time>2019-01-12T09:45:14Z</time>
      </trkpt>
      <trkpt lat="44.90225" lon="5.15096">
        <ele>1062.39</ele>
        <time>2019-01-12T09:45:21Z</time>
      </trkpt>
      <trkpt lat="44.90225" lon="5.15099">
        <ele>1063.36</ele>
        <time>2019-01-12T09:45:23Z</time>
      </trkpt>
      <trkpt lat="44.90225" lon="5.151">
        <ele>1063.36</ele>
        <time>2019-01-12T09:45:24Z</time>
      </trkpt>
      <trkpt lat="44.90227" lon="5.15105">
        <ele>1064.32</ele>
        <time>2019-01-12T09:45:27Z</time>
      </trkpt>
      <trkpt lat="44.90228" lon="5.15109">
        <ele>1064.32</ele>
        <time>2019-01-12T09:45:30Z</time>
      </trkpt>
      <trkpt lat="44.90231" lon="5.15127">
        <ele>1062.39</ele>
        <time>2019-01-12T09:45:40Z</time>
      </trkpt>
      <trkpt lat="44.90231" lon="5.15131">
        <ele>1061.91</ele>
        <time>2019-01-12T09:45:44Z</time>
      </trkpt>
      <trkpt lat="44.90231" lon="5.15136">
        <ele>1059.99</ele>
        <time>2019-01-12T09:45:50Z</time>
      </trkpt>
      <trkpt lat="44.90233" lon="5.15144">
        <ele>1061.43</ele>
        <time>2019-01-12T09:45:55Z</time>
      </trkpt>
      <trkpt lat="44.90234" lon="5.15154">
        <ele>1061.91</ele>
        <time>2019-01-12T09:46:02Z</time>
      </trkpt>
      <trkpt lat="44.90235" lon="5.15162">
        <ele>1061.43</ele>
        <time>2019-01-12T09:46:07Z</time>
      </trkpt>
      <trkpt lat="44.90232" lon="5.1518">
        <ele>1059.03</ele>
        <time>2019-01-12T09:46:19Z</time>
      </trkpt>
      <trkpt lat="44.90232" lon="5.15184">
        <ele>1058.55</ele>
        <time>2019-01-12T09:46:21Z</time>
      </trkpt>
      <trkpt lat="44.90229" lon="5.15192">
        <ele>1059.99</ele>
        <time>2019-01-12T09:46:27Z</time>
      </trkpt>
      <trkpt lat="44.90228" lon="5.15195">
        <ele>1059.03</ele>
        <time>2019-01-12T09:46:29Z</time>
      </trkpt>
      <trkpt lat="44.90226" lon="5.15196">
        <ele>1059.03</ele>
        <time>2019-01-12T09:46:31Z</time>
      </trkpt>
      <trkpt lat="44.90224" lon="5.15199">
        <ele>1058.55</ele>
        <time>2019-01-12T09:46:46Z</time>
      </trkpt>
      <trkpt lat="44.90224" lon="5.15199">
        <ele>1058.07</ele>
        <time>2019-01-12T09:47:16Z</time>
      </trkpt>
      <trkpt lat="44.90222" lon="5.15203">
        <ele>1058.55</ele>
        <time>2019-01-12T09:47:29Z</time>
      </trkpt>
      <trkpt lat="44.90219" lon="5.15208">
        <ele>1058.55</ele>
        <time>2019-01-12T09:47:33Z</time>
      </trkpt>
      <trkpt lat="44.90214" lon="5.15216">
        <ele>1059.51</ele>
        <time>2019-01-12T09:47:39Z</time>
      </trkpt>
      <trkpt lat="44.90211" lon="5.1522">
        <ele>1058.07</ele>
        <time>2019-01-12T09:47:43Z</time>
      </trkpt>
      <trkpt lat="44.90205" lon="5.15227">
        <ele>1061.43</ele>
        <time>2019-01-12T09:47:49Z</time>
      </trkpt>
      <trkpt lat="44.90205" lon="5.15228">
        <ele>1063.36</ele>
        <time>2019-01-12T09:47:50Z</time>
      </trkpt>
      <trkpt lat="44.90201" lon="5.1523">
        <ele>1060.47</ele>
        <time>2019-01-12T09:47:54Z</time>
      </trkpt>
      <trkpt lat="44.90201" lon="5.1523">
        <ele>1061.43</ele>
        <time>2019-01-12T09:47:55Z</time>
      </trkpt>
      <trkpt lat="44.902" lon="5.15231">
        <ele>1060.47</ele>
        <time>2019-01-12T09:47:56Z</time>
      </trkpt>
      <trkpt lat="44.90195" lon="5.1524">
        <ele>1054.22</ele>
        <time>2019-01-12T09:48:02Z</time>
      </trkpt>
      <trkpt lat="44.90188" lon="5.15257">
        <ele>1054.7</ele>
        <time>2019-01-12T09:48:13Z</time>
      </trkpt>
      <trkpt lat="44.90182" lon="5.1527">
        <ele>1054.22</ele>
        <time>2019-01-12T09:48:22Z</time>
      </trkpt>
      <trkpt lat="44.9018" lon="5.15279">
        <ele>1052.78</ele>
        <time>2019-01-12T09:48:31Z</time>
      </trkpt>
      <trkpt lat="44.90176" lon="5.15286">
        <ele>1052.78</ele>
        <time>2019-01-12T09:48:37Z</time>
      </trkpt>
      <trkpt lat="44.90175" lon="5.15288">
        <ele>1052.3</ele>
        <time>2019-01-12T09:48:39Z</time>
      </trkpt>
      <trkpt lat="44.90172" lon="5.15294">
        <ele>1050.86</ele>
        <time>2019-01-12T09:48:44Z</time>
      </trkpt>
      <trkpt lat="44.90166" lon="5.1531">
        <ele>1048.94</ele>
        <time>2019-01-12T09:48:55Z</time>
      </trkpt>
      <trkpt lat="44.90165" lon="5.15311">
        <ele>1049.42</ele>
        <time>2019-01-12T09:48:56Z</time>
      </trkpt>
      <trkpt lat="44.90163" lon="5.15319">
        <ele>1048.45</ele>
        <time>2019-01-12T09:49:01Z</time>
      </trkpt>
      <trkpt lat="44.90158" lon="5.15334">
        <ele>1047.97</ele>
        <time>2019-01-12T09:49:12Z</time>
      </trkpt>
      <trkpt lat="44.90155" lon="5.15345">
        <ele>1048.94</ele>
        <time>2019-01-12T09:49:20Z</time>
      </trkpt>
      <trkpt lat="44.90149" lon="5.15362">
        <ele>1048.94</ele>
        <time>2019-01-12T09:49:31Z</time>
      </trkpt>
      <trkpt lat="44.90149" lon="5.15363">
        <ele>1048.45</ele>
        <time>2019-01-12T09:49:32Z</time>
      </trkpt>
      <trkpt lat="44.90147" lon="5.15366">
        <ele>1048.45</ele>
        <time>2019-01-12T09:49:45Z</time>
      </trkpt>
      <trkpt lat="44.90147" lon="5.15366">
        <ele>1047.01</ele>
        <time>2019-01-12T09:50:08Z</time>
      </trkpt>
      <trkpt lat="44.90146" lon="5.15374">
        <ele>1047.49</ele>
        <time>2019-01-12T09:50:15Z</time>
      </trkpt>
      <trkpt lat="44.90144" lon="5.15381">
        <ele>1047.01</ele>
        <time>2019-01-12T09:50:21Z</time>
      </trkpt>
      <trkpt lat="44.90141" lon="5.15391">
        <ele>1045.57</ele>
        <time>2019-01-12T09:50:28Z</time>
      </trkpt>
      <trkpt lat="44.90135" lon="5.15409">
        <ele>1045.57</ele>
        <time>2019-01-12T09:50:40Z</time>
      </trkpt>
      <trkpt lat="44.9013" lon="5.15426">
        <ele>1044.13</ele>
        <time>2019-01-12T09:50:52Z</time>
      </trkpt>
      <trkpt lat="44.90128" lon="5.15439">
        <ele>1044.61</ele>
        <time>2019-01-12T09:50:58Z</time>
      </trkpt>
      <trkpt lat="44.90129" lon="5.15453">
        <ele>1044.13</ele>
        <time>2019-01-12T09:51:10Z</time>
      </trkpt>
      <trkpt lat="44.90128" lon="5.15458">
        <ele>1042.21</ele>
        <time>2019-01-12T09:51:14Z</time>
      </trkpt>
      <trkpt lat="44.90128" lon="5.1546">
        <ele>1041.73</ele>
        <time>2019-01-12T09:51:16Z</time>
      </trkpt>
      <trkpt lat="44.90123" lon="5.15466">
        <ele>1043.65</ele>
        <time>2019-01-12T09:51:24Z</time>
      </trkpt>
      <trkpt lat="44.90122" lon="5.15467">
        <ele>1043.65</ele>
        <time>2019-01-12T09:51:26Z</time>
      </trkpt>
      <trkpt lat="44.90113" lon="5.1548">
        <ele>1041.73</ele>
        <time>2019-01-12T09:51:42Z</time>
      </trkpt>
      <trkpt lat="44.90113" lon="5.15486">
        <ele>1042.21</ele>
        <time>2019-01-12T09:51:46Z</time>
      </trkpt>
      <trkpt lat="44.90112" lon="5.15495">
        <ele>1040.28</ele>
        <time>2019-01-12T09:51:52Z</time>
      </trkpt>
      <trkpt lat="44.90108" lon="5.1552">
        <ele>1038.36</ele>
        <time>2019-01-12T09:52:05Z</time>
      </trkpt>
      <trkpt lat="44.90107" lon="5.15531">
        <ele>1037.88</ele>
        <time>2019-01-12T09:52:14Z</time>
      </trkpt>
      <trkpt lat="44.90106" lon="5.15534">
        <ele>1038.36</ele>
        <time>2019-01-12T09:52:16Z</time>
      </trkpt>
      <trkpt lat="44.90108" lon="5.15552">
        <ele>1037.88</ele>
        <time>2019-01-12T09:52:26Z</time>
      </trkpt>
      <trkpt lat="44.90109" lon="5.15564">
        <ele>1035.96</ele>
        <time>2019-01-12T09:52:32Z</time>
      </trkpt>
      <trkpt lat="44.90112" lon="5.15575">
        <ele>1036.44</ele>
        <time>2019-01-12T09:52:39Z</time>
      </trkpt>
      <trkpt lat="44.90113" lon="5.15597">
        <ele>1035.48</ele>
        <time>2019-01-12T09:52:51Z</time>
      </trkpt>
      <trkpt lat="44.90113" lon="5.15614">
        <ele>1035.96</ele>
        <time>2019-01-12T09:53:01Z</time>
      </trkpt>
      <trkpt lat="44.90116" lon="5.15635">
        <ele>1034.04</ele>
        <time>2019-01-12T09:53:13Z</time>
      </trkpt>
      <trkpt lat="44.90117" lon="5.15644">
        <ele>1034.52</ele>
        <time>2019-01-12T09:53:20Z</time>
      </trkpt>
      <trkpt lat="44.90118" lon="5.15659">
        <ele>1035</ele>
        <time>2019-01-12T09:53:31Z</time>
      </trkpt>
      <trkpt lat="44.90118" lon="5.15669">
        <ele>1035.48</ele>
        <time>2019-01-12T09:53:36Z</time>
      </trkpt>
      <trkpt lat="44.90118" lon="5.15671">
        <ele>1036.92</ele>
        <time>2019-01-12T09:53:37Z</time>
      </trkpt>
      <trkpt lat="44.90117" lon="5.15678">
        <ele>1034.04</ele>
        <time>2019-01-12T09:53:43Z</time>
      </trkpt>
      <trkpt lat="44.90117" lon="5.15679">
        <ele>1033.07</ele>
        <time>2019-01-12T09:53:47Z</time>
      </trkpt>
      <trkpt lat="44.90117" lon="5.1568">
        <ele>1034.52</ele>
        <time>2019-01-12T09:54:06Z</time>
      </trkpt>
      <trkpt lat="44.90118" lon="5.1568">
        <ele>1031.63</ele>
        <time>2019-01-12T09:54:21Z</time>
      </trkpt>
      <trkpt lat="44.90118" lon="5.1568">
        <ele>1031.63</ele>
        <time>2019-01-12T09:54:27Z</time>
      </trkpt>
      <trkpt lat="44.90118" lon="5.1568">
        <ele>1032.59</ele>
        <time>2019-01-12T09:54:30Z</time>
      </trkpt>
      <trkpt lat="44.90123" lon="5.15689">
        <ele>1033.07</ele>
        <time>2019-01-12T09:54:39Z</time>
      </trkpt>
      <trkpt lat="44.90128" lon="5.15692">
        <ele>1030.67</ele>
        <time>2019-01-12T09:54:45Z</time>
      </trkpt>
      <trkpt lat="44.9013" lon="5.15697">
        <ele>1033.55</ele>
        <time>2019-01-12T09:54:49Z</time>
      </trkpt>
      <trkpt lat="44.90134" lon="5.15701">
        <ele>1033.55</ele>
        <time>2019-01-12T09:54:54Z</time>
      </trkpt>
      <trkpt lat="44.90144" lon="5.1571">
        <ele>1033.07</ele>
        <time>2019-01-12T09:55:05Z</time>
      </trkpt>
      <trkpt lat="44.90144" lon="5.1571">
        <ele>1032.59</ele>
        <time>2019-01-12T09:55:06Z</time>
      </trkpt>
      <trkpt lat="44.90146" lon="5.15713">
        <ele>1033.07</ele>
        <time>2019-01-12T09:55:10Z</time>
      </trkpt>
      <trkpt lat="44.90151" lon="5.15722">
        <ele>1033.55</ele>
        <time>2019-01-12T09:55:16Z</time>
      </trkpt>
      <trkpt lat="44.90152" lon="5.15724">
        <ele>1033.55</ele>
        <time>2019-01-12T09:55:18Z</time>
      </trkpt>
      <trkpt lat="44.90155" lon="5.15728">
        <ele>1032.59</ele>
        <time>2019-01-12T09:55:22Z</time>
      </trkpt>
      <trkpt lat="44.90157" lon="5.15735">
        <ele>1033.07</ele>
        <time>2019-01-12T09:55:27Z</time>
      </trkpt>
      <trkpt lat="44.90158" lon="5.15738">
        <ele>1034.52</ele>
        <time>2019-01-12T09:55:29Z</time>
      </trkpt>
      <trkpt lat="44.90163" lon="5.15747">
        <ele>1034.52</ele>
        <time>2019-01-12T09:55:37Z</time>
      </trkpt>
      <trkpt lat="44.90165" lon="5.15753">
        <ele>1035.48</ele>
        <time>2019-01-12T09:55:42Z</time>
      </trkpt>
      <trkpt lat="44.90167" lon="5.15758">
        <ele>1035.48</ele>
        <time>2019-01-12T09:55:45Z</time>
      </trkpt>
      <trkpt lat="44.90168" lon="5.1576">
        <ele>1036.44</ele>
        <time>2019-01-12T09:55:47Z</time>
      </trkpt>
      <trkpt lat="44.9017" lon="5.15762">
        <ele>1034.52</ele>
        <time>2019-01-12T09:55:49Z</time>
      </trkpt>
      <trkpt lat="44.90176" lon="5.15762">
        <ele>1035</ele>
        <time>2019-01-12T09:55:54Z</time>
      </trkpt>
      <trkpt lat="44.90185" lon="5.15776">
        <ele>1035.48</ele>
        <time>2019-01-12T09:56:06Z</time>
      </trkpt>
      <trkpt lat="44.90189" lon="5.15785">
        <ele>1035</ele>
        <time>2019-01-12T09:56:13Z</time>
      </trkpt>
      <trkpt lat="44.90193" lon="5.15786">
        <ele>1035.96</ele>
        <time>2019-01-12T09:56:18Z</time>
      </trkpt>
      <trkpt lat="44.90195" lon="5.1579">
        <ele>1036.44</ele>
        <time>2019-01-12T09:56:21Z</time>
      </trkpt>
      <trkpt lat="44.90205" lon="5.15799">
        <ele>1035.96</ele>
        <time>2019-01-12T09:56:31Z</time>
      </trkpt>
      <trkpt lat="44.90206" lon="5.15799">
        <ele>1035</ele>
        <time>2019-01-12T09:56:33Z</time>
      </trkpt>
      <trkpt lat="44.9021" lon="5.15805">
        <ele>1036.44</ele>
        <time>2019-01-12T09:56:38Z</time>
      </trkpt>
      <trkpt lat="44.90215" lon="5.15808">
        <ele>1036.44</ele>
        <time>2019-01-12T09:56:43Z</time>
      </trkpt>
      <trkpt lat="44.90217" lon="5.15811">
        <ele>1037.88</ele>
        <time>2019-01-12T09:56:45Z</time>
      </trkpt>
      <trkpt lat="44.9022" lon="5.15814">
        <ele>1036.44</ele>
        <time>2019-01-12T09:56:48Z</time>
      </trkpt>
      <trkpt lat="44.90221" lon="5.15814">
        <ele>1037.4</ele>
        <time>2019-01-12T09:56:49Z</time>
      </trkpt>
      <trkpt lat="44.90224" lon="5.15814">
        <ele>1037.4</ele>
        <time>2019-01-12T09:56:52Z</time>
      </trkpt>
      <trkpt lat="44.90234" lon="5.15812">
        <ele>1037.88</ele>
        <time>2019-01-12T09:57:02Z</time>
      </trkpt>
      <trkpt lat="44.90236" lon="5.15812">
        <ele>1038.84</ele>
        <time>2019-01-12T09:57:04Z</time>
      </trkpt>
      <trkpt lat="44.90242" lon="5.15814">
        <ele>1038.36</ele>
        <time>2019-01-12T09:57:11Z</time>
      </trkpt>
      <trkpt lat="44.90242" lon="5.15814">
        <ele>1040.28</ele>
        <time>2019-01-12T09:57:14Z</time>
      </trkpt>
      <trkpt lat="44.90242" lon="5.15814">
        <ele>1039.32</ele>
        <time>2019-01-12T09:57:19Z</time>
      </trkpt>
      <trkpt lat="44.90242" lon="5.15814">
        <ele>1040.28</ele>
        <time>2019-01-12T09:57:20Z</time>
      </trkpt>
      <trkpt lat="44.90249" lon="5.15816">
        <ele>1040.28</ele>
        <time>2019-01-12T09:57:33Z</time>
      </trkpt>
      <trkpt lat="44.90252" lon="5.15817">
        <ele>1040.76</ele>
        <time>2019-01-12T09:57:36Z</time>
      </trkpt>
      <trkpt lat="44.90255" lon="5.15821">
        <ele>1038.84</ele>
        <time>2019-01-12T09:57:49Z</time>
      </trkpt>
      <trkpt lat="44.90257" lon="5.15824">
        <ele>1040.76</ele>
        <time>2019-01-12T09:57:52Z</time>
      </trkpt>
      <trkpt lat="44.90261" lon="5.15827">
        <ele>1041.73</ele>
        <time>2019-01-12T09:57:55Z</time>
      </trkpt>
      <trkpt lat="44.90265" lon="5.1583">
        <ele>1039.32</ele>
        <time>2019-01-12T09:58:00Z</time>
      </trkpt>
      <trkpt lat="44.90268" lon="5.15832">
        <ele>1037.4</ele>
        <time>2019-01-12T09:58:03Z</time>
      </trkpt>
      <trkpt lat="44.90272" lon="5.15833">
        <ele>1036.44</ele>
        <time>2019-01-12T09:58:07Z</time>
      </trkpt>
      <trkpt lat="44.9028" lon="5.15834">
        <ele>1035.96</ele>
        <time>2019-01-12T09:58:14Z</time>
      </trkpt>
      <trkpt lat="44.90283" lon="5.15835">
        <ele>1033.55</ele>
        <time>2019-01-12T09:58:17Z</time>
      </trkpt>
      <trkpt lat="44.9029" lon="5.15834">
        <ele>1037.88</ele>
        <time>2019-01-12T09:58:23Z</time>
      </trkpt>
      <trkpt lat="44.90291" lon="5.15833">
        <ele>1037.4</ele>
        <time>2019-01-12T09:58:24Z</time>
      </trkpt>
      <trkpt lat="44.90292" lon="5.15832">
        <ele>1033.55</ele>
        <time>2019-01-12T09:58:25Z</time>
      </trkpt>
      <trkpt lat="44.90293" lon="5.15832">
        <ele>1035</ele>
        <time>2019-01-12T09:58:27Z</time>
      </trkpt>
      <trkpt lat="44.90298" lon="5.15831">
        <ele>1037.4</ele>
        <time>2019-01-12T09:58:32Z</time>
      </trkpt>
      <trkpt lat="44.90301" lon="5.1583">
        <ele>1037.4</ele>
        <time>2019-01-12T09:58:35Z</time>
      </trkpt>
      <trkpt lat="44.90311" lon="5.15831">
        <ele>1035.96</ele>
        <time>2019-01-12T09:58:46Z</time>
      </trkpt>
      <trkpt lat="44.90323" lon="5.15827">
        <ele>1034.52</ele>
        <time>2019-01-12T09:58:58Z</time>
      </trkpt>
      <trkpt lat="44.90323" lon="5.15827">
        <ele>1031.63</ele>
        <time>2019-01-12T09:59:00Z</time>
      </trkpt>
      <trkpt lat="44.90323" lon="5.15827">
        <ele>1035.48</ele>
        <time>2019-01-12T09:59:01Z</time>
      </trkpt>
      <trkpt lat="44.90323" lon="5.15827">
        <ele>1035.48</ele>
        <time>2019-01-12T09:59:02Z</time>
      </trkpt>
      <trkpt lat="44.90323" lon="5.15827">
        <ele>1038.36</ele>
        <time>2019-01-12T09:59:03Z</time>
      </trkpt>
      <trkpt lat="44.90323" lon="5.15827">
        <ele>1031.15</ele>
        <time>2019-01-12T09:59:05Z</time>
      </trkpt>
      <trkpt lat="44.90323" lon="5.15827">
        <ele>1040.28</ele>
        <time>2019-01-12T09:59:06Z</time>
      </trkpt>
      <trkpt lat="44.90323" lon="5.15827">
        <ele>1038.36</ele>
        <time>2019-01-12T09:59:07Z</time>
      </trkpt>
      <trkpt lat="44.90323" lon="5.15827">
        <ele>1035</ele>
        <time>2019-01-12T09:59:08Z</time>
      </trkpt>
      <trkpt lat="44.90323" lon="5.15827">
        <ele>1036.92</ele>
        <time>2019-01-12T09:59:09Z</time>
      </trkpt>
      <trkpt lat="44.90323" lon="5.15827">
        <ele>1042.69</ele>
        <time>2019-01-12T09:59:11Z</time>
      </trkpt>
      <trkpt lat="44.90323" lon="5.15827">
        <ele>1037.88</ele>
        <time>2019-01-12T09:59:12Z</time>
      </trkpt>
      <trkpt lat="44.90323" lon="5.15827">
        <ele>1038.36</ele>
        <time>2019-01-12T09:59:16Z</time>
      </trkpt>
      <trkpt lat="44.90325" lon="5.15827">
        <ele>1035.96</ele>
        <time>2019-01-12T09:59:18Z</time>
      </trkpt>
      <trkpt lat="44.90329" lon="5.15826">
        <ele>1038.84</ele>
        <time>2019-01-12T09:59:21Z</time>
      </trkpt>
      <trkpt lat="44.9033" lon="5.15826">
        <ele>1038.36</ele>
        <time>2019-01-12T09:59:22Z</time>
      </trkpt>
      <trkpt lat="44.90344" lon="5.15827">
        <ele>1038.84</ele>
        <time>2019-01-12T09:59:35Z</time>
      </trkpt>
      <trkpt lat="44.90345" lon="5.15826">
        <ele>1039.8</ele>
        <time>2019-01-12T09:59:36Z</time>
      </trkpt>
      <trkpt lat="44.9035" lon="5.15827">
        <ele>1038.36</ele>
        <time>2019-01-12T09:59:40Z</time>
      </trkpt>
      <trkpt lat="44.90363" lon="5.15825">
        <ele>1038.84</ele>
        <time>2019-01-12T09:59:51Z</time>
      </trkpt>
      <trkpt lat="44.90364" lon="5.15825">
        <ele>1038.84</ele>
        <time>2019-01-12T09:59:53Z</time>
      </trkpt>
      <trkpt lat="44.90375" lon="5.15823">
        <ele>1040.28</ele>
        <time>2019-01-12T10:00:04Z</time>
      </trkpt>
      <trkpt lat="44.90382" lon="5.15825">
        <ele>1040.28</ele>
        <time>2019-01-12T10:00:11Z</time>
      </trkpt>
      <trkpt lat="44.90385" lon="5.15825">
        <ele>1040.76</ele>
        <time>2019-01-12T10:00:13Z</time>
      </trkpt>
      <trkpt lat="44.9039" lon="5.15829">
        <ele>1040.28</ele>
        <time>2019-01-12T10:00:18Z</time>
      </trkpt>
      <trkpt lat="44.90393" lon="5.15828">
        <ele>1040.28</ele>
        <time>2019-01-12T10:00:20Z</time>
      </trkpt>
      <trkpt lat="44.90399" lon="5.15829">
        <ele>1040.76</ele>
        <time>2019-01-12T10:00:24Z</time>
      </trkpt>
      <trkpt lat="44.90403" lon="5.1583">
        <ele>1040.28</ele>
        <time>2019-01-12T10:00:26Z</time>
      </trkpt>
      <trkpt lat="44.90408" lon="5.15834">
        <ele>1040.76</ele>
        <time>2019-01-12T10:00:32Z</time>
      </trkpt>
      <trkpt lat="44.90421" lon="5.15835">
        <ele>1042.21</ele>
        <time>2019-01-12T10:00:42Z</time>
      </trkpt>
      <trkpt lat="44.90426" lon="5.15837">
        <ele>1042.21</ele>
        <time>2019-01-12T10:00:46Z</time>
      </trkpt>
      <trkpt lat="44.90434" lon="5.15843">
        <ele>1041.25</ele>
        <time>2019-01-12T10:00:56Z</time>
      </trkpt>
      <trkpt lat="44.90442" lon="5.15845">
        <ele>1040.28</ele>
        <time>2019-01-12T10:01:04Z</time>
      </trkpt>
      <trkpt lat="44.90444" lon="5.15846">
        <ele>1039.32</ele>
        <time>2019-01-12T10:01:06Z</time>
      </trkpt>
      <trkpt lat="44.90448" lon="5.15847">
        <ele>1045.09</ele>
        <time>2019-01-12T10:01:09Z</time>
      </trkpt>
      <trkpt lat="44.90449" lon="5.15848">
        <ele>1040.76</ele>
        <time>2019-01-12T10:01:10Z</time>
      </trkpt>
      <trkpt lat="44.90463" lon="5.15853">
        <ele>1041.25</ele>
        <time>2019-01-12T10:01:22Z</time>
      </trkpt>
      <trkpt lat="44.90475" lon="5.15856">
        <ele>1040.28</ele>
        <time>2019-01-12T10:01:32Z</time>
      </trkpt>
      <trkpt lat="44.90481" lon="5.15857">
        <ele>1042.69</ele>
        <time>2019-01-12T10:01:37Z</time>
      </trkpt>
      <trkpt lat="44.90495" lon="5.15866">
        <ele>1042.69</ele>
        <time>2019-01-12T10:01:51Z</time>
      </trkpt>
      <trkpt lat="44.90499" lon="5.15868">
        <ele>1041.73</ele>
        <time>2019-01-12T10:01:55Z</time>
      </trkpt>
      <trkpt lat="44.90508" lon="5.15871">
        <ele>1042.21</ele>
        <time>2019-01-12T10:02:02Z</time>
      </trkpt>
      <trkpt lat="44.90515" lon="5.15874">
        <ele>1038.36</ele>
        <time>2019-01-12T10:02:07Z</time>
      </trkpt>
      <trkpt lat="44.90516" lon="5.15874">
        <ele>1044.13</ele>
        <time>2019-01-12T10:02:08Z</time>
      </trkpt>
      <trkpt lat="44.90517" lon="5.15874">
        <ele>1044.13</ele>
        <time>2019-01-12T10:02:09Z</time>
      </trkpt>
      <trkpt lat="44.90524" lon="5.15876">
        <ele>1043.17</ele>
        <time>2019-01-12T10:02:14Z</time>
      </trkpt>
      <trkpt lat="44.90525" lon="5.15876">
        <ele>1039.32</ele>
        <time>2019-01-12T10:02:15Z</time>
      </trkpt>
      <trkpt lat="44.90527" lon="5.15877">
        <ele>1043.65</ele>
        <time>2019-01-12T10:02:17Z</time>
      </trkpt>
      <trkpt lat="44.90528" lon="5.15877">
        <ele>1042.21</ele>
        <time>2019-01-12T10:02:18Z</time>
      </trkpt>
      <trkpt lat="44.90531" lon="5.15878">
        <ele>1045.57</ele>
        <time>2019-01-12T10:02:20Z</time>
      </trkpt>
      <trkpt lat="44.90547" lon="5.15875">
        <ele>1044.13</ele>
        <time>2019-01-12T10:02:32Z</time>
      </trkpt>
      <trkpt lat="44.90554" lon="5.15872">
        <ele>1041.73</ele>
        <time>2019-01-12T10:02:37Z</time>
      </trkpt>
      <trkpt lat="44.90557" lon="5.15871">
        <ele>1042.21</ele>
        <time>2019-01-12T10:02:39Z</time>
      </trkpt>
      <trkpt lat="44.90575" lon="5.15865">
        <ele>1041.25</ele>
        <time>2019-01-12T10:02:54Z</time>
      </trkpt>
      <trkpt lat="44.9058" lon="5.15866">
        <ele>1038.84</ele>
        <time>2019-01-12T10:02:59Z</time>
      </trkpt>
      <trkpt lat="44.90586" lon="5.15867">
        <ele>1039.8</ele>
        <time>2019-01-12T10:03:03Z</time>
      </trkpt>
      <trkpt lat="44.90595" lon="5.15869">
        <ele>1039.8</ele>
        <time>2019-01-12T10:03:09Z</time>
      </trkpt>
      <trkpt lat="44.90604" lon="5.15872">
        <ele>1040.76</ele>
        <time>2019-01-12T10:03:15Z</time>
      </trkpt>
      <trkpt lat="44.90611" lon="5.15875">
        <ele>1041.73</ele>
        <time>2019-01-12T10:03:20Z</time>
      </trkpt>
      <trkpt lat="44.90621" lon="5.15884">
        <ele>1042.69</ele>
        <time>2019-01-12T10:03:31Z</time>
      </trkpt>
      <trkpt lat="44.90627" lon="5.15891">
        <ele>1041.73</ele>
        <time>2019-01-12T10:03:38Z</time>
      </trkpt>
      <trkpt lat="44.90634" lon="5.15897">
        <ele>1044.61</ele>
        <time>2019-01-12T10:03:44Z</time>
      </trkpt>
      <trkpt lat="44.90637" lon="5.15898">
        <ele>1045.57</ele>
        <time>2019-01-12T10:03:47Z</time>
      </trkpt>
      <trkpt lat="44.90651" lon="5.15904">
        <ele>1043.65</ele>
        <time>2019-01-12T10:03:58Z</time>
      </trkpt>
      <trkpt lat="44.90657" lon="5.15907">
        <ele>1043.65</ele>
        <time>2019-01-12T10:04:03Z</time>
      </trkpt>
      <trkpt lat="44.90669" lon="5.1591">
        <ele>1044.13</ele>
        <time>2019-01-12T10:04:12Z</time>
      </trkpt>
      <trkpt lat="44.90682" lon="5.15898">
        <ele>1043.65</ele>
        <time>2019-01-12T10:04:25Z</time>
      </trkpt>
      <trkpt lat="44.90682" lon="5.15896">
        <ele>1043.65</ele>
        <time>2019-01-12T10:04:26Z</time>
      </trkpt>
      <trkpt lat="44.90686" lon="5.15882">
        <ele>1044.13</ele>
        <time>2019-01-12T10:04:37Z</time>
      </trkpt>
      <trkpt lat="44.90687" lon="5.15875">
        <ele>1044.61</ele>
        <time>2019-01-12T10:04:43Z</time>
      </trkpt>
      <trkpt lat="44.90688" lon="5.1587">
        <ele>1044.61</ele>
        <time>2019-01-12T10:04:46Z</time>
      </trkpt>
      <trkpt lat="44.90689" lon="5.15853">
        <ele>1042.21</ele>
        <time>2019-01-12T10:04:57Z</time>
      </trkpt>
      <trkpt lat="44.90689" lon="5.15851">
        <ele>1043.65</ele>
        <time>2019-01-12T10:05:01Z</time>
      </trkpt>
      <trkpt lat="44.90693" lon="5.15844">
        <ele>1042.21</ele>
        <time>2019-01-12T10:05:08Z</time>
      </trkpt>
      <trkpt lat="44.90699" lon="5.15837">
        <ele>1045.57</ele>
        <time>2019-01-12T10:05:14Z</time>
      </trkpt>
      <trkpt lat="44.907" lon="5.15835">
        <ele>1047.01</ele>
        <time>2019-01-12T10:05:16Z</time>
      </trkpt>
      <trkpt lat="44.90703" lon="5.15831">
        <ele>1045.57</ele>
        <time>2019-01-12T10:05:19Z</time>
      </trkpt>
      <trkpt lat="44.90703" lon="5.1583">
        <ele>1045.09</ele>
        <time>2019-01-12T10:05:20Z</time>
      </trkpt>
      <trkpt lat="44.90708" lon="5.15828">
        <ele>1043.17</ele>
        <time>2019-01-12T10:05:24Z</time>
      </trkpt>
      <trkpt lat="44.90713" lon="5.15827">
        <ele>1044.61</ele>
        <time>2019-01-12T10:05:28Z</time>
      </trkpt>
      <trkpt lat="44.90714" lon="5.15826">
        <ele>1044.61</ele>
        <time>2019-01-12T10:05:31Z</time>
      </trkpt>
      <trkpt lat="44.90717" lon="5.15825">
        <ele>1045.57</ele>
        <time>2019-01-12T10:05:33Z</time>
      </trkpt>
      <trkpt lat="44.90718" lon="5.15825">
        <ele>1045.57</ele>
        <time>2019-01-12T10:05:34Z</time>
      </trkpt>
      <trkpt lat="44.90724" lon="5.15828">
        <ele>1046.05</ele>
        <time>2019-01-12T10:05:40Z</time>
      </trkpt>
      <trkpt lat="44.90731" lon="5.15826">
        <ele>1046.53</ele>
        <time>2019-01-12T10:05:46Z</time>
      </trkpt>
      <trkpt lat="44.90736" lon="5.15827">
        <ele>1046.05</ele>
        <time>2019-01-12T10:05:51Z</time>
      </trkpt>
      <trkpt lat="44.90743" lon="5.15836">
        <ele>1046.53</ele>
        <time>2019-01-12T10:06:03Z</time>
      </trkpt>
      <trkpt lat="44.90744" lon="5.15836">
        <ele>1047.01</ele>
        <time>2019-01-12T10:06:20Z</time>
      </trkpt>
      <trkpt lat="44.90744" lon="5.15836">
        <ele>1046.53</ele>
        <time>2019-01-12T10:06:45Z</time>
      </trkpt>
      <trkpt lat="44.90744" lon="5.15836">
        <ele>1046.53</ele>
        <time>2019-01-12T10:07:09Z</time>
      </trkpt>
      <trkpt lat="44.90743" lon="5.15836">
        <ele>1045.57</ele>
        <time>2019-01-12T10:07:35Z</time>
      </trkpt>
      <trkpt lat="44.90747" lon="5.15846">
        <ele>1046.53</ele>
        <time>2019-01-12T10:07:44Z</time>
      </trkpt>
      <trkpt lat="44.90748" lon="5.15852">
        <ele>1046.05</ele>
        <time>2019-01-12T10:07:48Z</time>
      </trkpt>
      <trkpt lat="44.9075" lon="5.15858">
        <ele>1047.97</ele>
        <time>2019-01-12T10:07:53Z</time>
      </trkpt>
      <trkpt lat="44.90751" lon="5.15862">
        <ele>1047.97</ele>
        <time>2019-01-12T10:07:55Z</time>
      </trkpt>
      <trkpt lat="44.90753" lon="5.15868">
        <ele>1047.01</ele>
        <time>2019-01-12T10:07:59Z</time>
      </trkpt>
      <trkpt lat="44.90757" lon="5.15872">
        <ele>1046.53</ele>
        <time>2019-01-12T10:08:04Z</time>
      </trkpt>
      <trkpt lat="44.90759" lon="5.15879">
        <ele>1047.49</ele>
        <time>2019-01-12T10:08:09Z</time>
      </trkpt>
      <trkpt lat="44.90761" lon="5.15889">
        <ele>1047.01</ele>
        <time>2019-01-12T10:08:17Z</time>
      </trkpt>
      <trkpt lat="44.90762" lon="5.15893">
        <ele>1046.05</ele>
        <time>2019-01-12T10:08:20Z</time>
      </trkpt>
      <trkpt lat="44.90766" lon="5.15908">
        <ele>1046.53</ele>
        <time>2019-01-12T10:08:32Z</time>
      </trkpt>
      <trkpt lat="44.90766" lon="5.15918">
        <ele>1047.97</ele>
        <time>2019-01-12T10:08:40Z</time>
      </trkpt>
      <trkpt lat="44.90768" lon="5.15923">
        <ele>1048.45</ele>
        <time>2019-01-12T10:08:44Z</time>
      </trkpt>
      <trkpt lat="44.90768" lon="5.1593">
        <ele>1048.94</ele>
        <time>2019-01-12T10:08:48Z</time>
      </trkpt>
      <trkpt lat="44.9077" lon="5.15931">
        <ele>1048.94</ele>
        <time>2019-01-12T10:08:50Z</time>
      </trkpt>
      <trkpt lat="44.90773" lon="5.15947">
        <ele>1049.9</ele>
        <time>2019-01-12T10:09:00Z</time>
      </trkpt>
      <trkpt lat="44.90776" lon="5.15956">
        <ele>1051.82</ele>
        <time>2019-01-12T10:09:07Z</time>
      </trkpt>
      <trkpt lat="44.90779" lon="5.15971">
        <ele>1051.34</ele>
        <time>2019-01-12T10:09:17Z</time>
      </trkpt>
      <trkpt lat="44.9078" lon="5.15972">
        <ele>1051.34</ele>
        <time>2019-01-12T10:09:18Z</time>
      </trkpt>
      <trkpt lat="44.90782" lon="5.15974">
        <ele>1051.34</ele>
        <time>2019-01-12T10:09:20Z</time>
      </trkpt>
      <trkpt lat="44.90786" lon="5.15977">
        <ele>1051.82</ele>
        <time>2019-01-12T10:09:24Z</time>
      </trkpt>
      <trkpt lat="44.9079" lon="5.1598">
        <ele>1052.3</ele>
        <time>2019-01-12T10:09:28Z</time>
      </trkpt>
      <trkpt lat="44.90797" lon="5.15984">
        <ele>1051.82</ele>
        <time>2019-01-12T10:09:34Z</time>
      </trkpt>
      <trkpt lat="44.908" lon="5.15986">
        <ele>1052.78</ele>
        <time>2019-01-12T10:09:36Z</time>
      </trkpt>
      <trkpt lat="44.90803" lon="5.15987">
        <ele>1052.3</ele>
        <time>2019-01-12T10:09:38Z</time>
      </trkpt>
      <trkpt lat="44.90808" lon="5.15987">
        <ele>1051.34</ele>
        <time>2019-01-12T10:09:42Z</time>
      </trkpt>
      <trkpt lat="44.90811" lon="5.1599">
        <ele>1052.78</ele>
        <time>2019-01-12T10:09:46Z</time>
      </trkpt>
      <trkpt lat="44.90814" lon="5.15993">
        <ele>1053.26</ele>
        <time>2019-01-12T10:09:50Z</time>
      </trkpt>
      <trkpt lat="44.90821" lon="5.15999">
        <ele>1049.42</ele>
        <time>2019-01-12T10:10:00Z</time>
      </trkpt>
      <trkpt lat="44.90821" lon="5.15998">
        <ele>1049.9</ele>
        <time>2019-01-12T10:10:08Z</time>
      </trkpt>
      <trkpt lat="44.90821" lon="5.15998">
        <ele>1050.38</ele>
        <time>2019-01-12T10:10:27Z</time>
      </trkpt>
      <trkpt lat="44.90822" lon="5.15998">
        <ele>1049.42</ele>
        <time>2019-01-12T10:10:45Z</time>
      </trkpt>
      <trkpt lat="44.90822" lon="5.15998">
        <ele>1051.82</ele>
        <time>2019-01-12T10:11:08Z</time>
      </trkpt>
      <trkpt lat="44.90822" lon="5.15998">
        <ele>1050.86</ele>
        <time>2019-01-12T10:11:32Z</time>
      </trkpt>
      <trkpt lat="44.90822" lon="5.15997">
        <ele>1049.42</ele>
        <time>2019-01-12T10:11:59Z</time>
      </trkpt>
      <trkpt lat="44.90822" lon="5.15997">
        <ele>1051.34</ele>
        <time>2019-01-12T10:12:07Z</time>
      </trkpt>
      <trkpt lat="44.90822" lon="5.15997">
        <ele>1049.9</ele>
        <time>2019-01-12T10:12:10Z</time>
      </trkpt>
      <trkpt lat="44.90822" lon="5.15997">
        <ele>1048.94</ele>
        <time>2019-01-12T10:12:34Z</time>
      </trkpt>
      <trkpt lat="44.90822" lon="5.15998">
        <ele>1050.38</ele>
        <time>2019-01-12T10:12:42Z</time>
      </trkpt>
      <trkpt lat="44.90822" lon="5.15998">
        <ele>1049.42</ele>
        <time>2019-01-12T10:13:00Z</time>
      </trkpt>
      <trkpt lat="44.90822" lon="5.15998">
        <ele>1050.86</ele>
        <time>2019-01-12T10:13:03Z</time>
      </trkpt>
      <trkpt lat="44.90822" lon="5.15998">
        <ele>1049.9</ele>
        <time>2019-01-12T10:13:14Z</time>
      </trkpt>
      <trkpt lat="44.90823" lon="5.15998">
        <ele>1051.34</ele>
        <time>2019-01-12T10:13:32Z</time>
      </trkpt>
      <trkpt lat="44.90824" lon="5.15997">
        <ele>1051.82</ele>
        <time>2019-01-12T10:13:55Z</time>
      </trkpt>
      <trkpt lat="44.90824" lon="5.15997">
        <ele>1050.38</ele>
        <time>2019-01-12T10:14:14Z</time>
      </trkpt>
      <trkpt lat="44.90824" lon="5.15997">
        <ele>1049.42</ele>
        <time>2019-01-12T10:14:31Z</time>
      </trkpt>
      <trkpt lat="44.90827" lon="5.15999">
        <ele>1049.9</ele>
        <time>2019-01-12T10:14:35Z</time>
      </trkpt>
      <trkpt lat="44.90829" lon="5.16">
        <ele>1050.86</ele>
        <time>2019-01-12T10:14:38Z</time>
      </trkpt>
      <trkpt lat="44.90831" lon="5.16002">
        <ele>1049.9</ele>
        <time>2019-01-12T10:14:40Z</time>
      </trkpt>
      <trkpt lat="44.90837" lon="5.16002">
        <ele>1049.42</ele>
        <time>2019-01-12T10:14:45Z</time>
      </trkpt>
      <trkpt lat="44.90844" lon="5.16001">
        <ele>1049.9</ele>
        <time>2019-01-12T10:14:50Z</time>
      </trkpt>
      <trkpt lat="44.90863" lon="5.15993">
        <ele>1051.34</ele>
        <time>2019-01-12T10:15:03Z</time>
      </trkpt>
      <trkpt lat="44.90873" lon="5.15994">
        <ele>1050.86</ele>
        <time>2019-01-12T10:15:13Z</time>
      </trkpt>
      <trkpt lat="44.90874" lon="5.15996">
        <ele>1047.49</ele>
        <time>2019-01-12T10:15:17Z</time>
      </trkpt>
      <trkpt lat="44.90876" lon="5.15992">
        <ele>1050.86</ele>
        <time>2019-01-12T10:15:22Z</time>
      </trkpt>
      <trkpt lat="44.90881" lon="5.15989">
        <ele>1052.78</ele>
        <time>2019-01-12T10:15:26Z</time>
      </trkpt>
      <trkpt lat="44.90887" lon="5.15987">
        <ele>1052.78</ele>
        <time>2019-01-12T10:15:31Z</time>
      </trkpt>
      <trkpt lat="44.90897" lon="5.15983">
        <ele>1049.9</ele>
        <time>2019-01-12T10:15:41Z</time>
      </trkpt>
      <trkpt lat="44.909" lon="5.15982">
        <ele>1046.53</ele>
        <time>2019-01-12T10:15:47Z</time>
      </trkpt>
      <trkpt lat="44.909" lon="5.15981">
        <ele>1049.9</ele>
        <time>2019-01-12T10:15:53Z</time>
      </trkpt>
      <trkpt lat="44.90906" lon="5.15972">
        <ele>1049.9</ele>
        <time>2019-01-12T10:16:02Z</time>
      </trkpt>
      <trkpt lat="44.90909" lon="5.15972">
        <ele>1051.34</ele>
        <time>2019-01-12T10:16:06Z</time>
      </trkpt>
      <trkpt lat="44.90913" lon="5.15971">
        <ele>1049.9</ele>
        <time>2019-01-12T10:16:11Z</time>
      </trkpt>
      <trkpt lat="44.90925" lon="5.15966">
        <ele>1049.42</ele>
        <time>2019-01-12T10:16:21Z</time>
      </trkpt>
      <trkpt lat="44.90927" lon="5.15966">
        <ele>1050.38</ele>
        <time>2019-01-12T10:16:22Z</time>
      </trkpt>
      <trkpt lat="44.90931" lon="5.15965">
        <ele>1048.94</ele>
        <time>2019-01-12T10:16:25Z</time>
      </trkpt>
      <trkpt lat="44.90931" lon="5.15965">
        <ele>1048.45</ele>
        <time>2019-01-12T10:16:26Z</time>
      </trkpt>
      <trkpt lat="44.90934" lon="5.15964">
        <ele>1050.38</ele>
        <time>2019-01-12T10:16:28Z</time>
      </trkpt>
      <trkpt lat="44.90934" lon="5.15964">
        <ele>1051.34</ele>
        <time>2019-01-12T10:16:29Z</time>
      </trkpt>
      <trkpt lat="44.90941" lon="5.15965">
        <ele>1052.3</ele>
        <time>2019-01-12T10:16:34Z</time>
      </trkpt>
      <trkpt lat="44.90942" lon="5.15969">
        <ele>1051.82</ele>
        <time>2019-01-12T10:16:39Z</time>
      </trkpt>
      <trkpt lat="44.90944" lon="5.15971">
        <ele>1052.78</ele>
        <time>2019-01-12T10:16:41Z</time>
      </trkpt>
      <trkpt lat="44.90954" lon="5.15974">
        <ele>1051.34</ele>
        <time>2019-01-12T10:16:47Z</time>
      </trkpt>
      <trkpt lat="44.90955" lon="5.15975">
        <ele>1052.3</ele>
        <time>2019-01-12T10:16:49Z</time>
      </trkpt>
      <trkpt lat="44.90958" lon="5.15973">
        <ele>1051.34</ele>
        <time>2019-01-12T10:16:51Z</time>
      </trkpt>
      <trkpt lat="44.90961" lon="5.15972">
        <ele>1049.42</ele>
        <time>2019-01-12T10:16:54Z</time>
      </trkpt>
      <trkpt lat="44.9097" lon="5.15974">
        <ele>1052.78</ele>
        <time>2019-01-12T10:17:01Z</time>
      </trkpt>
      <trkpt lat="44.90971" lon="5.15975">
        <ele>1052.78</ele>
        <time>2019-01-12T10:17:02Z</time>
      </trkpt>
      <trkpt lat="44.90974" lon="5.15975">
        <ele>1050.86</ele>
        <time>2019-01-12T10:17:04Z</time>
      </trkpt>
      <trkpt lat="44.90982" lon="5.15977">
        <ele>1051.82</ele>
        <time>2019-01-12T10:17:12Z</time>
      </trkpt>
      <trkpt lat="44.9099" lon="5.15983">
        <ele>1052.78</ele>
        <time>2019-01-12T10:17:21Z</time>
      </trkpt>
      <trkpt lat="44.90993" lon="5.15985">
        <ele>1054.7</ele>
        <time>2019-01-12T10:17:24Z</time>
      </trkpt>
      <trkpt lat="44.90996" lon="5.15987">
        <ele>1053.26</ele>
        <time>2019-01-12T10:17:28Z</time>
      </trkpt>
      <trkpt lat="44.91005" lon="5.15992">
        <ele>1054.22</ele>
        <time>2019-01-12T10:17:36Z</time>
      </trkpt>
      <trkpt lat="44.91014" lon="5.15994">
        <ele>1053.74</ele>
        <time>2019-01-12T10:17:42Z</time>
      </trkpt>
      <trkpt lat="44.91019" lon="5.15996">
        <ele>1055.18</ele>
        <time>2019-01-12T10:17:46Z</time>
      </trkpt>
      <trkpt lat="44.91022" lon="5.16">
        <ele>1053.26</ele>
        <time>2019-01-12T10:17:49Z</time>
      </trkpt>
      <trkpt lat="44.91024" lon="5.16001">
        <ele>1053.74</ele>
        <time>2019-01-12T10:17:51Z</time>
      </trkpt>
      <trkpt lat="44.91026" lon="5.16002">
        <ele>1052.3</ele>
        <time>2019-01-12T10:17:55Z</time>
      </trkpt>
      <trkpt lat="44.91033" lon="5.16009">
        <ele>1053.74</ele>
        <time>2019-01-12T10:18:05Z</time>
      </trkpt>
      <trkpt lat="44.91043" lon="5.16014">
        <ele>1055.18</ele>
        <time>2019-01-12T10:18:16Z</time>
      </trkpt>
      <trkpt lat="44.91044" lon="5.16015">
        <ele>1055.18</ele>
        <time>2019-01-12T10:18:17Z</time>
      </trkpt>
      <trkpt lat="44.91047" lon="5.16016">
        <ele>1054.7</ele>
        <time>2019-01-12T10:18:20Z</time>
      </trkpt>
      <trkpt lat="44.91049" lon="5.16018">
        <ele>1054.22</ele>
        <time>2019-01-12T10:18:22Z</time>
      </trkpt>
      <trkpt lat="44.91053" lon="5.16022">
        <ele>1057.59</ele>
        <time>2019-01-12T10:18:30Z</time>
      </trkpt>
      <trkpt lat="44.91054" lon="5.16023">
        <ele>1056.15</ele>
        <time>2019-01-12T10:18:32Z</time>
      </trkpt>
      <trkpt lat="44.91059" lon="5.16028">
        <ele>1055.67</ele>
        <time>2019-01-12T10:18:38Z</time>
      </trkpt>
      <trkpt lat="44.91072" lon="5.16037">
        <ele>1057.11</ele>
        <time>2019-01-12T10:18:50Z</time>
      </trkpt>
      <trkpt lat="44.91079" lon="5.1604">
        <ele>1058.07</ele>
        <time>2019-01-12T10:18:55Z</time>
      </trkpt>
      <trkpt lat="44.91092" lon="5.1605">
        <ele>1057.59</ele>
        <time>2019-01-12T10:19:07Z</time>
      </trkpt>
      <trkpt lat="44.91101" lon="5.16062">
        <ele>1059.99</ele>
        <time>2019-01-12T10:19:17Z</time>
      </trkpt>
      <trkpt lat="44.91102" lon="5.16063">
        <ele>1059.99</ele>
        <time>2019-01-12T10:19:18Z</time>
      </trkpt>
      <trkpt lat="44.91107" lon="5.16072">
        <ele>1058.55</ele>
        <time>2019-01-12T10:19:25Z</time>
      </trkpt>
      <trkpt lat="44.91109" lon="5.16077">
        <ele>1059.51</ele>
        <time>2019-01-12T10:19:28Z</time>
      </trkpt>
      <trkpt lat="44.91112" lon="5.16083">
        <ele>1058.55</ele>
        <time>2019-01-12T10:19:32Z</time>
      </trkpt>
      <trkpt lat="44.91118" lon="5.16087">
        <ele>1059.51</ele>
        <time>2019-01-12T10:19:37Z</time>
      </trkpt>
      <trkpt lat="44.91122" lon="5.16087">
        <ele>1057.59</ele>
        <time>2019-01-12T10:19:41Z</time>
      </trkpt>
      <trkpt lat="44.91124" lon="5.16088">
        <ele>1060.47</ele>
        <time>2019-01-12T10:19:42Z</time>
      </trkpt>
      <trkpt lat="44.91129" lon="5.16091">
        <ele>1060.47</ele>
        <time>2019-01-12T10:19:47Z</time>
      </trkpt>
      <trkpt lat="44.91135" lon="5.16095">
        <ele>1062.87</ele>
        <time>2019-01-12T10:19:54Z</time>
      </trkpt>
      <trkpt lat="44.91148" lon="5.16097">
        <ele>1062.87</ele>
        <time>2019-01-12T10:20:04Z</time>
      </trkpt>
      <trkpt lat="44.9116" lon="5.161">
        <ele>1062.87</ele>
        <time>2019-01-12T10:20:16Z</time>
      </trkpt>
      <trkpt lat="44.91177" lon="5.161">
        <ele>1062.39</ele>
        <time>2019-01-12T10:20:29Z</time>
      </trkpt>
      <trkpt lat="44.91182" lon="5.16096">
        <ele>1062.87</ele>
        <time>2019-01-12T10:20:36Z</time>
      </trkpt>
      <trkpt lat="44.91185" lon="5.16093">
        <ele>1065.76</ele>
        <time>2019-01-12T10:20:40Z</time>
      </trkpt>
      <trkpt lat="44.91185" lon="5.16093">
        <ele>1064.32</ele>
        <time>2019-01-12T10:20:42Z</time>
      </trkpt>
      <trkpt lat="44.91194" lon="5.16088">
        <ele>1064.32</ele>
        <time>2019-01-12T10:20:55Z</time>
      </trkpt>
      <trkpt lat="44.91199" lon="5.16085">
        <ele>1064.8</ele>
        <time>2019-01-12T10:20:59Z</time>
      </trkpt>
      <trkpt lat="44.9121" lon="5.1608">
        <ele>1064.8</ele>
        <time>2019-01-12T10:21:11Z</time>
      </trkpt>
      <trkpt lat="44.91216" lon="5.16079">
        <ele>1064.8</ele>
        <time>2019-01-12T10:21:21Z</time>
      </trkpt>
      <trkpt lat="44.91217" lon="5.16078">
        <ele>1065.28</ele>
        <time>2019-01-12T10:21:22Z</time>
      </trkpt>
      <trkpt lat="44.91224" lon="5.16078">
        <ele>1065.28</ele>
        <time>2019-01-12T10:21:32Z</time>
      </trkpt>
      <trkpt lat="44.91224" lon="5.16078">
        <ele>1065.76</ele>
        <time>2019-01-12T10:21:49Z</time>
      </trkpt>
      <trkpt lat="44.91224" lon="5.16078">
        <ele>1065.76</ele>
        <time>2019-01-12T10:22:09Z</time>
      </trkpt>
      <trkpt lat="44.91225" lon="5.16079">
        <ele>1060.47</ele>
        <time>2019-01-12T10:22:19Z</time>
      </trkpt>
      <trkpt lat="44.91226" lon="5.16081">
        <ele>1066.72</ele>
        <time>2019-01-12T10:22:21Z</time>
      </trkpt>
      <trkpt lat="44.91227" lon="5.16081">
        <ele>1065.28</ele>
        <time>2019-01-12T10:22:23Z</time>
      </trkpt>
      <trkpt lat="44.91227" lon="5.16081">
        <ele>1065.28</ele>
        <time>2019-01-12T10:22:24Z</time>
      </trkpt>
      <trkpt lat="44.91226" lon="5.16078">
        <ele>1065.28</ele>
        <time>2019-01-12T10:22:35Z</time>
      </trkpt>
      <trkpt lat="44.91226" lon="5.16078">
        <ele>1064.32</ele>
        <time>2019-01-12T10:22:56Z</time>
      </trkpt>
      <trkpt lat="44.91226" lon="5.16078">
        <ele>1065.76</ele>
        <time>2019-01-12T10:22:58Z</time>
      </trkpt>
      <trkpt lat="44.91226" lon="5.16078">
        <ele>1069.6</ele>
        <time>2019-01-12T10:23:04Z</time>
      </trkpt>
      <trkpt lat="44.91226" lon="5.16078">
        <ele>1069.6</ele>
        <time>2019-01-12T10:23:05Z</time>
      </trkpt>
      <trkpt lat="44.91226" lon="5.16078">
        <ele>1066.24</ele>
        <time>2019-01-12T10:23:11Z</time>
      </trkpt>
      <trkpt lat="44.91226" lon="5.16078">
        <ele>1065.28</ele>
        <time>2019-01-12T10:23:17Z</time>
      </trkpt>
      <trkpt lat="44.91226" lon="5.16078">
        <ele>1063.84</ele>
        <time>2019-01-12T10:23:27Z</time>
      </trkpt>
      <trkpt lat="44.91226" lon="5.16078">
        <ele>1066.24</ele>
        <time>2019-01-12T10:23:31Z</time>
      </trkpt>
      <trkpt lat="44.91226" lon="5.16078">
        <ele>1066.24</ele>
        <time>2019-01-12T10:23:38Z</time>
      </trkpt>
      <trkpt lat="44.91228" lon="5.16077">
        <ele>1066.24</ele>
        <time>2019-01-12T10:23:52Z</time>
      </trkpt>
      <trkpt lat="44.91233" lon="5.16079">
        <ele>1066.24</ele>
        <time>2019-01-12T10:24:01Z</time>
      </trkpt>
      <trkpt lat="44.91238" lon="5.16082">
        <ele>1067.2</ele>
        <time>2019-01-12T10:24:06Z</time>
      </trkpt>
      <trkpt lat="44.91242" lon="5.16084">
        <ele>1067.68</ele>
        <time>2019-01-12T10:24:11Z</time>
      </trkpt>
      <trkpt lat="44.91245" lon="5.16086">
        <ele>1067.68</ele>
        <time>2019-01-12T10:24:14Z</time>
      </trkpt>
      <trkpt lat="44.91255" lon="5.16087">
        <ele>1066.24</ele>
        <time>2019-01-12T10:24:22Z</time>
      </trkpt>
      <trkpt lat="44.91264" lon="5.16089">
        <ele>1067.2</ele>
        <time>2019-01-12T10:24:32Z</time>
      </trkpt>
      <trkpt lat="44.91274" lon="5.16097">
        <ele>1067.2</ele>
        <time>2019-01-12T10:24:45Z</time>
      </trkpt>
      <trkpt lat="44.91274" lon="5.16097">
        <ele>1068.16</ele>
        <time>2019-01-12T10:24:47Z</time>
      </trkpt>
      <trkpt lat="44.91274" lon="5.16097">
        <ele>1065.28</ele>
        <time>2019-01-12T10:25:09Z</time>
      </trkpt>
      <trkpt lat="44.91274" lon="5.16095">
        <ele>1065.28</ele>
        <time>2019-01-12T10:25:35Z</time>
      </trkpt>
      <trkpt lat="44.91277" lon="5.16094">
        <ele>1065.76</ele>
        <time>2019-01-12T10:25:39Z</time>
      </trkpt>
      <trkpt lat="44.91283" lon="5.16094">
        <ele>1065.76</ele>
        <time>2019-01-12T10:25:43Z</time>
      </trkpt>
      <trkpt lat="44.9129" lon="5.16093">
        <ele>1066.72</ele>
        <time>2019-01-12T10:25:50Z</time>
      </trkpt>
      <trkpt lat="44.91294" lon="5.16093">
        <ele>1069.12</ele>
        <time>2019-01-12T10:25:55Z</time>
      </trkpt>
      <trkpt lat="44.91295" lon="5.16092">
        <ele>1067.68</ele>
        <time>2019-01-12T10:26:17Z</time>
      </trkpt>
      <trkpt lat="44.91299" lon="5.16099">
        <ele>1068.64</ele>
        <time>2019-01-12T10:26:27Z</time>
      </trkpt>
      <trkpt lat="44.91296" lon="5.1609">
        <ele>1068.64</ele>
        <time>2019-01-12T10:27:48Z</time>
      </trkpt>
      <trkpt lat="44.91288" lon="5.16111">
        <ele>1066.24</ele>
        <time>2019-01-12T10:28:09Z</time>
      </trkpt>
      <trkpt lat="44.91291" lon="5.16109">
        <ele>1067.2</ele>
        <time>2019-01-12T10:28:22Z</time>
      </trkpt>
      <trkpt lat="44.91302" lon="5.16102">
        <ele>1069.6</ele>
        <time>2019-01-12T10:28:32Z</time>
      </trkpt>
      <trkpt lat="44.91309" lon="5.161">
        <ele>1070.08</ele>
        <time>2019-01-12T10:28:42Z</time>
      </trkpt>
      <trkpt lat="44.91315" lon="5.16094">
        <ele>1072.49</ele>
        <time>2019-01-12T10:28:56Z</time>
      </trkpt>
      <trkpt lat="44.91317" lon="5.16091">
        <ele>1071.05</ele>
        <time>2019-01-12T10:28:59Z</time>
      </trkpt>
      <trkpt lat="44.91323" lon="5.16095">
        <ele>1072.97</ele>
        <time>2019-01-12T10:29:11Z</time>
      </trkpt>
      <trkpt lat="44.91331" lon="5.16107">
        <ele>1074.41</ele>
        <time>2019-01-12T10:29:26Z</time>
      </trkpt>
      <trkpt lat="44.91333" lon="5.16109">
        <ele>1075.37</ele>
        <time>2019-01-12T10:29:30Z</time>
      </trkpt>
      <trkpt lat="44.91337" lon="5.1612">
        <ele>1077.29</ele>
        <time>2019-01-12T10:29:42Z</time>
      </trkpt>
      <trkpt lat="44.91339" lon="5.16124">
        <ele>1078.26</ele>
        <time>2019-01-12T10:29:52Z</time>
      </trkpt>
      <trkpt lat="44.91344" lon="5.16132">
        <ele>1079.22</ele>
        <time>2019-01-12T10:30:01Z</time>
      </trkpt>
      <trkpt lat="44.91345" lon="5.16134">
        <ele>1082.1</ele>
        <time>2019-01-12T10:30:03Z</time>
      </trkpt>
      <trkpt lat="44.91347" lon="5.16137">
        <ele>1079.7</ele>
        <time>2019-01-12T10:30:05Z</time>
      </trkpt>
      <trkpt lat="44.91348" lon="5.16142">
        <ele>1080.18</ele>
        <time>2019-01-12T10:30:09Z</time>
      </trkpt>
      <trkpt lat="44.91351" lon="5.16149">
        <ele>1079.7</ele>
        <time>2019-01-12T10:30:18Z</time>
      </trkpt>
      <trkpt lat="44.91353" lon="5.1615">
        <ele>1080.66</ele>
        <time>2019-01-12T10:30:20Z</time>
      </trkpt>
      <trkpt lat="44.91362" lon="5.16163">
        <ele>1078.74</ele>
        <time>2019-01-12T10:30:33Z</time>
      </trkpt>
      <trkpt lat="44.91363" lon="5.16164">
        <ele>1082.58</ele>
        <time>2019-01-12T10:30:39Z</time>
      </trkpt>
      <trkpt lat="44.91363" lon="5.16164">
        <ele>1085.95</ele>
        <time>2019-01-12T10:30:42Z</time>
      </trkpt>
      <trkpt lat="44.91363" lon="5.16164">
        <ele>1077.78</ele>
        <time>2019-01-12T10:30:43Z</time>
      </trkpt>
      <trkpt lat="44.91363" lon="5.16164">
        <ele>1088.35</ele>
        <time>2019-01-12T10:30:44Z</time>
      </trkpt>
      <trkpt lat="44.91363" lon="5.16164">
        <ele>1080.18</ele>
        <time>2019-01-12T10:30:45Z</time>
      </trkpt>
      <trkpt lat="44.91363" lon="5.16164">
        <ele>1085.47</ele>
        <time>2019-01-12T10:30:46Z</time>
      </trkpt>
      <trkpt lat="44.91365" lon="5.16165">
        <ele>1081.14</ele>
        <time>2019-01-12T10:30:48Z</time>
      </trkpt>
      <trkpt lat="44.91371" lon="5.16172">
        <ele>1081.14</ele>
        <time>2019-01-12T10:30:56Z</time>
      </trkpt>
      <trkpt lat="44.9138" lon="5.16181">
        <ele>1082.1</ele>
        <time>2019-01-12T10:31:06Z</time>
      </trkpt>
      <trkpt lat="44.91388" lon="5.16188">
        <ele>1083.54</ele>
        <time>2019-01-12T10:31:17Z</time>
      </trkpt>
      <trkpt lat="44.91389" lon="5.1619">
        <ele>1083.54</ele>
        <time>2019-01-12T10:31:19Z</time>
      </trkpt>
      <trkpt lat="44.91394" lon="5.16198">
        <ele>1078.26</ele>
        <time>2019-01-12T10:31:27Z</time>
      </trkpt>
      <trkpt lat="44.91394" lon="5.16199">
        <ele>1086.43</ele>
        <time>2019-01-12T10:31:28Z</time>
      </trkpt>
      <trkpt lat="44.91395" lon="5.162">
        <ele>1086.43</ele>
        <time>2019-01-12T10:31:29Z</time>
      </trkpt>
      <trkpt lat="44.91396" lon="5.16201">
        <ele>1086.43</ele>
        <time>2019-01-12T10:31:31Z</time>
      </trkpt>
      <trkpt lat="44.91398" lon="5.16204">
        <ele>1088.35</ele>
        <time>2019-01-12T10:31:33Z</time>
      </trkpt>
      <trkpt lat="44.91399" lon="5.16204">
        <ele>1083.06</ele>
        <time>2019-01-12T10:31:34Z</time>
      </trkpt>
      <trkpt lat="44.914" lon="5.16206">
        <ele>1089.31</ele>
        <time>2019-01-12T10:31:35Z</time>
      </trkpt>
      <trkpt lat="44.91403" lon="5.16213">
        <ele>1086.91</ele>
        <time>2019-01-12T10:31:42Z</time>
      </trkpt>
      <trkpt lat="44.91407" lon="5.16218">
        <ele>1092.68</ele>
        <time>2019-01-12T10:31:48Z</time>
      </trkpt>
      <trkpt lat="44.91407" lon="5.16219">
        <ele>1088.83</ele>
        <time>2019-01-12T10:31:49Z</time>
      </trkpt>
      <trkpt lat="44.9141" lon="5.16221">
        <ele>1085.95</ele>
        <time>2019-01-12T10:31:53Z</time>
      </trkpt>
      <trkpt lat="44.91411" lon="5.16223">
        <ele>1089.31</ele>
        <time>2019-01-12T10:31:55Z</time>
      </trkpt>
      <trkpt lat="44.91416" lon="5.1623">
        <ele>1090.75</ele>
        <time>2019-01-12T10:32:06Z</time>
      </trkpt>
      <trkpt lat="44.91418" lon="5.16233">
        <ele>1091.23</ele>
        <time>2019-01-12T10:32:09Z</time>
      </trkpt>
      <trkpt lat="44.91421" lon="5.16236">
        <ele>1092.2</ele>
        <time>2019-01-12T10:32:14Z</time>
      </trkpt>
      <trkpt lat="44.91424" lon="5.16243">
        <ele>1097.48</ele>
        <time>2019-01-12T10:32:22Z</time>
      </trkpt>
      <trkpt lat="44.91424" lon="5.16243">
        <ele>1091.23</ele>
        <time>2019-01-12T10:32:23Z</time>
      </trkpt>
      <trkpt lat="44.91424" lon="5.16243">
        <ele>1097</ele>
        <time>2019-01-12T10:32:24Z</time>
      </trkpt>
      <trkpt lat="44.91424" lon="5.16243">
        <ele>1093.64</ele>
        <time>2019-01-12T10:32:25Z</time>
      </trkpt>
      <trkpt lat="44.91424" lon="5.16243">
        <ele>1087.39</ele>
        <time>2019-01-12T10:32:28Z</time>
      </trkpt>
      <trkpt lat="44.91424" lon="5.16243">
        <ele>1097.96</ele>
        <time>2019-01-12T10:32:29Z</time>
      </trkpt>
      <trkpt lat="44.91424" lon="5.16243">
        <ele>1093.64</ele>
        <time>2019-01-12T10:32:30Z</time>
      </trkpt>
      <trkpt lat="44.91432" lon="5.16243">
        <ele>1096.04</ele>
        <time>2019-01-12T10:32:45Z</time>
      </trkpt>
      <trkpt lat="44.91439" lon="5.16244">
        <ele>1097.96</ele>
        <time>2019-01-12T10:32:56Z</time>
      </trkpt>
      <trkpt lat="44.91444" lon="5.16245">
        <ele>1100.37</ele>
        <time>2019-01-12T10:33:04Z</time>
      </trkpt>
      <trkpt lat="44.91446" lon="5.16244">
        <ele>1100.85</ele>
        <time>2019-01-12T10:33:07Z</time>
      </trkpt>
      <trkpt lat="44.9145" lon="5.16226">
        <ele>1103.73</ele>
        <time>2019-01-12T10:33:21Z</time>
      </trkpt>
      <trkpt lat="44.91453" lon="5.16208">
        <ele>1104.21</ele>
        <time>2019-01-12T10:33:35Z</time>
      </trkpt>
      <trkpt lat="44.91454" lon="5.16203">
        <ele>1104.69</ele>
        <time>2019-01-12T10:33:40Z</time>
      </trkpt>
      <trkpt lat="44.91458" lon="5.16219">
        <ele>1108.54</ele>
        <time>2019-01-12T10:33:50Z</time>
      </trkpt>
      <trkpt lat="44.91458" lon="5.16219">
        <ele>1106.61</ele>
        <time>2019-01-12T10:33:51Z</time>
      </trkpt>
      <trkpt lat="44.91458" lon="5.16219">
        <ele>1105.65</ele>
        <time>2019-01-12T10:34:06Z</time>
      </trkpt>
      <trkpt lat="44.91458" lon="5.1622">
        <ele>1104.21</ele>
        <time>2019-01-12T10:34:21Z</time>
      </trkpt>
      <trkpt lat="44.91459" lon="5.16216">
        <ele>1104.69</ele>
        <time>2019-01-12T10:34:46Z</time>
      </trkpt>
      <trkpt lat="44.91458" lon="5.16213">
        <ele>1107.58</ele>
        <time>2019-01-12T10:34:51Z</time>
      </trkpt>
      <trkpt lat="44.91458" lon="5.16213">
        <ele>1108.54</ele>
        <time>2019-01-12T10:34:53Z</time>
      </trkpt>
      <trkpt lat="44.91457" lon="5.16211">
        <ele>1105.17</ele>
        <time>2019-01-12T10:34:58Z</time>
      </trkpt>
      <trkpt lat="44.91456" lon="5.16211">
        <ele>1104.69</ele>
        <time>2019-01-12T10:35:12Z</time>
      </trkpt>
      <trkpt lat="44.91455" lon="5.16208">
        <ele>1103.73</ele>
        <time>2019-01-12T10:35:28Z</time>
      </trkpt>
      <trkpt lat="44.91453" lon="5.16201">
        <ele>1099.89</ele>
        <time>2019-01-12T10:35:36Z</time>
      </trkpt>
      <trkpt lat="44.91452" lon="5.162">
        <ele>1106.61</ele>
        <time>2019-01-12T10:35:37Z</time>
      </trkpt>
      <trkpt lat="44.91452" lon="5.16197">
        <ele>1097.96</ele>
        <time>2019-01-12T10:35:40Z</time>
      </trkpt>
      <trkpt lat="44.91451" lon="5.16196">
        <ele>1104.21</ele>
        <time>2019-01-12T10:35:41Z</time>
      </trkpt>
      <trkpt lat="44.91451" lon="5.16196">
        <ele>1109.02</ele>
        <time>2019-01-12T10:35:42Z</time>
      </trkpt>
      <trkpt lat="44.91451" lon="5.16194">
        <ele>1105.17</ele>
        <time>2019-01-12T10:35:43Z</time>
      </trkpt>
      <trkpt lat="44.91451" lon="5.16194">
        <ele>1104.21</ele>
        <time>2019-01-12T10:35:58Z</time>
      </trkpt>
      <trkpt lat="44.91451" lon="5.16195">
        <ele>1104.21</ele>
        <time>2019-01-12T10:36:11Z</time>
      </trkpt>
      <trkpt lat="44.91451" lon="5.16189">
        <ele>1103.73</ele>
        <time>2019-01-12T10:36:24Z</time>
      </trkpt>
      <trkpt lat="44.91451" lon="5.16189">
        <ele>1106.61</ele>
        <time>2019-01-12T10:36:31Z</time>
      </trkpt>
      <trkpt lat="44.91451" lon="5.16189">
        <ele>1103.25</ele>
        <time>2019-01-12T10:36:34Z</time>
      </trkpt>
      <trkpt lat="44.91451" lon="5.16189">
        <ele>1102.29</ele>
        <time>2019-01-12T10:36:38Z</time>
      </trkpt>
      <trkpt lat="44.91451" lon="5.16189">
        <ele>1104.21</ele>
        <time>2019-01-12T10:37:01Z</time>
      </trkpt>
      <trkpt lat="44.91451" lon="5.16188">
        <ele>1102.29</ele>
        <time>2019-01-12T10:37:20Z</time>
      </trkpt>
      <trkpt lat="44.9145" lon="5.16177">
        <ele>1102.29</ele>
        <time>2019-01-12T10:37:28Z</time>
      </trkpt>
      <trkpt lat="44.91448" lon="5.1617">
        <ele>1102.29</ele>
        <time>2019-01-12T10:37:33Z</time>
      </trkpt>
      <trkpt lat="44.9145" lon="5.16163">
        <ele>1101.81</ele>
        <time>2019-01-12T10:37:37Z</time>
      </trkpt>
      <trkpt lat="44.9145" lon="5.16158">
        <ele>1102.77</ele>
        <time>2019-01-12T10:37:40Z</time>
      </trkpt>
      <trkpt lat="44.91455" lon="5.16145">
        <ele>1105.17</ele>
        <time>2019-01-12T10:37:50Z</time>
      </trkpt>
      <trkpt lat="44.91457" lon="5.16142">
        <ele>1103.25</ele>
        <time>2019-01-12T10:37:53Z</time>
      </trkpt>
      <trkpt lat="44.9146" lon="5.16133">
        <ele>1103.73</ele>
        <time>2019-01-12T10:38:03Z</time>
      </trkpt>
      <trkpt lat="44.91462" lon="5.1613">
        <ele>1103.73</ele>
        <time>2019-01-12T10:38:07Z</time>
      </trkpt>
      <trkpt lat="44.91462" lon="5.16126">
        <ele>1103.73</ele>
        <time>2019-01-12T10:38:10Z</time>
      </trkpt>
      <trkpt lat="44.91462" lon="5.16118">
        <ele>1102.77</ele>
        <time>2019-01-12T10:38:19Z</time>
      </trkpt>
      <trkpt lat="44.9146" lon="5.16112">
        <ele>1103.25</ele>
        <time>2019-01-12T10:38:28Z</time>
      </trkpt>
      <trkpt lat="44.91459" lon="5.16106">
        <ele>1104.69</ele>
        <time>2019-01-12T10:38:31Z</time>
      </trkpt>
      <trkpt lat="44.91459" lon="5.16104">
        <ele>1104.69</ele>
        <time>2019-01-12T10:38:33Z</time>
      </trkpt>
      <trkpt lat="44.91455" lon="5.16097">
        <ele>1105.17</ele>
        <time>2019-01-12T10:38:42Z</time>
      </trkpt>
      <trkpt lat="44.91453" lon="5.16093">
        <ele>1105.17</ele>
        <time>2019-01-12T10:38:45Z</time>
      </trkpt>
      <trkpt lat="44.91451" lon="5.16086">
        <ele>1104.21</ele>
        <time>2019-01-12T10:38:49Z</time>
      </trkpt>
      <trkpt lat="44.91449" lon="5.16079">
        <ele>1103.25</ele>
        <time>2019-01-12T10:38:53Z</time>
      </trkpt>
      <trkpt lat="44.91446" lon="5.16075">
        <ele>1105.17</ele>
        <time>2019-01-12T10:38:56Z</time>
      </trkpt>
      <trkpt lat="44.91445" lon="5.16069">
        <ele>1101.81</ele>
        <time>2019-01-12T10:39:00Z</time>
      </trkpt>
      <trkpt lat="44.91445" lon="5.16066">
        <ele>1102.29</ele>
        <time>2019-01-12T10:39:03Z</time>
      </trkpt>
      <trkpt lat="44.91442" lon="5.16046">
        <ele>1101.33</ele>
        <time>2019-01-12T10:39:14Z</time>
      </trkpt>
      <trkpt lat="44.91439" lon="5.1604">
        <ele>1102.77</ele>
        <time>2019-01-12T10:39:18Z</time>
      </trkpt>
      <trkpt lat="44.9144" lon="5.16029">
        <ele>1103.73</ele>
        <time>2019-01-12T10:39:25Z</time>
      </trkpt>
      <trkpt lat="44.91443" lon="5.16016">
        <ele>1102.77</ele>
        <time>2019-01-12T10:39:32Z</time>
      </trkpt>
      <trkpt lat="44.91445" lon="5.16006">
        <ele>1103.25</ele>
        <time>2019-01-12T10:39:38Z</time>
      </trkpt>
      <trkpt lat="44.91448" lon="5.15995">
        <ele>1104.69</ele>
        <time>2019-01-12T10:39:49Z</time>
      </trkpt>
      <trkpt lat="44.91449" lon="5.15993">
        <ele>1104.69</ele>
        <time>2019-01-12T10:39:51Z</time>
      </trkpt>
      <trkpt lat="44.91458" lon="5.15991">
        <ele>1106.61</ele>
        <time>2019-01-12T10:40:04Z</time>
      </trkpt>
      <trkpt lat="44.91464" lon="5.15985">
        <ele>1108.06</ele>
        <time>2019-01-12T10:40:13Z</time>
      </trkpt>
      <trkpt lat="44.91472" lon="5.15976">
        <ele>1106.61</ele>
        <time>2019-01-12T10:40:24Z</time>
      </trkpt>
      <trkpt lat="44.91475" lon="5.15978">
        <ele>1107.1</ele>
        <time>2019-01-12T10:40:34Z</time>
      </trkpt>
      <trkpt lat="44.91474" lon="5.15977">
        <ele>1107.1</ele>
        <time>2019-01-12T10:40:49Z</time>
      </trkpt>
      <trkpt lat="44.91475" lon="5.1598">
        <ele>1107.1</ele>
        <time>2019-01-12T10:40:57Z</time>
      </trkpt>
      <trkpt lat="44.91475" lon="5.15977">
        <ele>1106.13</ele>
        <time>2019-01-12T10:41:10Z</time>
      </trkpt>
      <trkpt lat="44.91476" lon="5.15977">
        <ele>1107.1</ele>
        <time>2019-01-12T10:41:23Z</time>
      </trkpt>
      <trkpt lat="44.91482" lon="5.15975">
        <ele>1106.13</ele>
        <time>2019-01-12T10:41:38Z</time>
      </trkpt>
      <trkpt lat="44.91485" lon="5.15971">
        <ele>1109.5</ele>
        <time>2019-01-12T10:41:44Z</time>
      </trkpt>
      <trkpt lat="44.9149" lon="5.1596">
        <ele>1110.94</ele>
        <time>2019-01-12T10:41:55Z</time>
      </trkpt>
      <trkpt lat="44.91491" lon="5.15957">
        <ele>1109.98</ele>
        <time>2019-01-12T10:41:57Z</time>
      </trkpt>
      <trkpt lat="44.91494" lon="5.15951">
        <ele>1110.46</ele>
        <time>2019-01-12T10:42:02Z</time>
      </trkpt>
      <trkpt lat="44.91495" lon="5.15946">
        <ele>1102.77</ele>
        <time>2019-01-12T10:42:07Z</time>
      </trkpt>
      <trkpt lat="44.91496" lon="5.15946">
        <ele>1118.15</ele>
        <time>2019-01-12T10:42:08Z</time>
      </trkpt>
      <trkpt lat="44.91497" lon="5.15946">
        <ele>1112.86</ele>
        <time>2019-01-12T10:42:09Z</time>
      </trkpt>
      <trkpt lat="44.91504" lon="5.15944">
        <ele>1110.94</ele>
        <time>2019-01-12T10:42:16Z</time>
      </trkpt>
      <trkpt lat="44.91506" lon="5.15943">
        <ele>1109.02</ele>
        <time>2019-01-12T10:42:19Z</time>
      </trkpt>
      <trkpt lat="44.91508" lon="5.15941">
        <ele>1110.94</ele>
        <time>2019-01-12T10:42:22Z</time>
      </trkpt>
      <trkpt lat="44.91509" lon="5.15939">
        <ele>1110.46</ele>
        <time>2019-01-12T10:42:23Z</time>
      </trkpt>
      <trkpt lat="44.91513" lon="5.15937">
        <ele>1110.94</ele>
        <time>2019-01-12T10:42:27Z</time>
      </trkpt>
      <trkpt lat="44.91522" lon="5.15928">
        <ele>1110.46</ele>
        <time>2019-01-12T10:42:40Z</time>
      </trkpt>
      <trkpt lat="44.91528" lon="5.15924">
        <ele>1110.46</ele>
        <time>2019-01-12T10:42:46Z</time>
      </trkpt>
      <trkpt lat="44.91534" lon="5.15923">
        <ele>1109.98</ele>
        <time>2019-01-12T10:42:52Z</time>
      </trkpt>
      <trkpt lat="44.91537" lon="5.15922">
        <ele>1111.42</ele>
        <time>2019-01-12T10:42:57Z</time>
      </trkpt>
      <trkpt lat="44.91539" lon="5.15921">
        <ele>1111.9</ele>
        <time>2019-01-12T10:42:59Z</time>
      </trkpt>
      <trkpt lat="44.9155" lon="5.15918">
        <ele>1110.46</ele>
        <time>2019-01-12T10:43:10Z</time>
      </trkpt>
      <trkpt lat="44.91553" lon="5.15914">
        <ele>1106.13</ele>
        <time>2019-01-12T10:43:13Z</time>
      </trkpt>
      <trkpt lat="44.91558" lon="5.15908">
        <ele>1106.13</ele>
        <time>2019-01-12T10:43:20Z</time>
      </trkpt>
      <trkpt lat="44.91565" lon="5.15903">
        <ele>1111.9</ele>
        <time>2019-01-12T10:43:29Z</time>
      </trkpt>
      <trkpt lat="44.91566" lon="5.15901">
        <ele>1108.06</ele>
        <time>2019-01-12T10:43:31Z</time>
      </trkpt>
      <trkpt lat="44.91567" lon="5.159">
        <ele>1111.42</ele>
        <time>2019-01-12T10:43:32Z</time>
      </trkpt>
      <trkpt lat="44.91568" lon="5.15898">
        <ele>1109.02</ele>
        <time>2019-01-12T10:43:34Z</time>
      </trkpt>
      <trkpt lat="44.91571" lon="5.15897">
        <ele>1111.9</ele>
        <time>2019-01-12T10:43:37Z</time>
      </trkpt>
      <trkpt lat="44.91574" lon="5.15893">
        <ele>1109.5</ele>
        <time>2019-01-12T10:43:41Z</time>
      </trkpt>
      <trkpt lat="44.91579" lon="5.1589">
        <ele>1110.46</ele>
        <time>2019-01-12T10:43:46Z</time>
      </trkpt>
      <trkpt lat="44.91587" lon="5.15887">
        <ele>1109.5</ele>
        <time>2019-01-12T10:43:56Z</time>
      </trkpt>
      <trkpt lat="44.91591" lon="5.15886">
        <ele>1109.5</ele>
        <time>2019-01-12T10:44:00Z</time>
      </trkpt>
      <trkpt lat="44.91597" lon="5.15883">
        <ele>1109.02</ele>
        <time>2019-01-12T10:44:08Z</time>
      </trkpt>
      <trkpt lat="44.91602" lon="5.15882">
        <ele>1111.42</ele>
        <time>2019-01-12T10:44:11Z</time>
      </trkpt>
      <trkpt lat="44.91609" lon="5.15879">
        <ele>1111.42</ele>
        <time>2019-01-12T10:44:18Z</time>
      </trkpt>
      <trkpt lat="44.91612" lon="5.15879">
        <ele>1109.98</ele>
        <time>2019-01-12T10:44:22Z</time>
      </trkpt>
      <trkpt lat="44.91615" lon="5.15879">
        <ele>1109.02</ele>
        <time>2019-01-12T10:44:25Z</time>
      </trkpt>
      <trkpt lat="44.9162" lon="5.15877">
        <ele>1111.9</ele>
        <time>2019-01-12T10:44:29Z</time>
      </trkpt>
      <trkpt lat="44.91623" lon="5.15876">
        <ele>1108.54</ele>
        <time>2019-01-12T10:44:32Z</time>
      </trkpt>
      <trkpt lat="44.91628" lon="5.15876">
        <ele>1111.9</ele>
        <time>2019-01-12T10:44:36Z</time>
      </trkpt>
      <trkpt lat="44.91631" lon="5.15875">
        <ele>1111.42</ele>
        <time>2019-01-12T10:44:42Z</time>
      </trkpt>
      <trkpt lat="44.91634" lon="5.15874">
        <ele>1109.5</ele>
        <time>2019-01-12T10:44:45Z</time>
      </trkpt>
      <trkpt lat="44.91643" lon="5.15873">
        <ele>1109.98</ele>
        <time>2019-01-12T10:44:52Z</time>
      </trkpt>
      <trkpt lat="44.9165" lon="5.15875">
        <ele>1111.9</ele>
        <time>2019-01-12T10:44:58Z</time>
      </trkpt>
      <trkpt lat="44.91653" lon="5.15876">
        <ele>1110.46</ele>
        <time>2019-01-12T10:45:00Z</time>
      </trkpt>
      <trkpt lat="44.91672" lon="5.15876">
        <ele>1109.5</ele>
        <time>2019-01-12T10:45:13Z</time>
      </trkpt>
      <trkpt lat="44.91684" lon="5.1588">
        <ele>1110.94</ele>
        <time>2019-01-12T10:45:24Z</time>
      </trkpt>
      <trkpt lat="44.91684" lon="5.15879">
        <ele>1109.98</ele>
        <time>2019-01-12T10:45:27Z</time>
      </trkpt>
      <trkpt lat="44.91682" lon="5.1588">
        <ele>1110.94</ele>
        <time>2019-01-12T10:45:34Z</time>
      </trkpt>
      <trkpt lat="44.91696" lon="5.15878">
        <ele>1112.38</ele>
        <time>2019-01-12T10:45:44Z</time>
      </trkpt>
      <trkpt lat="44.91698" lon="5.15877">
        <ele>1112.86</ele>
        <time>2019-01-12T10:45:46Z</time>
      </trkpt>
      <trkpt lat="44.91702" lon="5.15874">
        <ele>1111.42</ele>
        <time>2019-01-12T10:45:50Z</time>
      </trkpt>
      <trkpt lat="44.9171" lon="5.15863">
        <ele>1113.34</ele>
        <time>2019-01-12T10:45:59Z</time>
      </trkpt>
      <trkpt lat="44.91713" lon="5.15861">
        <ele>1113.82</ele>
        <time>2019-01-12T10:46:01Z</time>
      </trkpt>
      <trkpt lat="44.9172" lon="5.15857">
        <ele>1115.27</ele>
        <time>2019-01-12T10:46:13Z</time>
      </trkpt>
      <trkpt lat="44.9172" lon="5.15857">
        <ele>1111.9</ele>
        <time>2019-01-12T10:46:24Z</time>
      </trkpt>
      <trkpt lat="44.9172" lon="5.15857">
        <ele>1116.23</ele>
        <time>2019-01-12T10:46:33Z</time>
      </trkpt>
      <trkpt lat="44.9172" lon="5.15857">
        <ele>1115.75</ele>
        <time>2019-01-12T10:46:34Z</time>
      </trkpt>
      <trkpt lat="44.9172" lon="5.15857">
        <ele>1115.75</ele>
        <time>2019-01-12T10:46:38Z</time>
      </trkpt>
      <trkpt lat="44.9172" lon="5.15857">
        <ele>1115.75</ele>
        <time>2019-01-12T10:46:43Z</time>
      </trkpt>
      <trkpt lat="44.9172" lon="5.15857">
        <ele>1114.79</ele>
        <time>2019-01-12T10:46:47Z</time>
      </trkpt>
      <trkpt lat="44.9172" lon="5.15857">
        <ele>1115.75</ele>
        <time>2019-01-12T10:46:49Z</time>
      </trkpt>
      <trkpt lat="44.91719" lon="5.15856">
        <ele>1112.86</ele>
        <time>2019-01-12T10:47:08Z</time>
      </trkpt>
      <trkpt lat="44.91719" lon="5.15856">
        <ele>1112.86</ele>
        <time>2019-01-12T10:47:13Z</time>
      </trkpt>
      <trkpt lat="44.91719" lon="5.15856">
        <ele>1114.79</ele>
        <time>2019-01-12T10:47:15Z</time>
      </trkpt>
      <trkpt lat="44.91719" lon="5.15856">
        <ele>1114.31</ele>
        <time>2019-01-12T10:47:23Z</time>
      </trkpt>
      <trkpt lat="44.9172" lon="5.15856">
        <ele>1110.94</ele>
        <time>2019-01-12T10:47:24Z</time>
      </trkpt>
      <trkpt lat="44.9172" lon="5.15856">
        <ele>1112.86</ele>
        <time>2019-01-12T10:47:25Z</time>
      </trkpt>
      <trkpt lat="44.9172" lon="5.15856">
        <ele>1113.82</ele>
        <time>2019-01-12T10:47:30Z</time>
      </trkpt>
      <trkpt lat="44.9172" lon="5.15856">
        <ele>1113.34</ele>
        <time>2019-01-12T10:47:38Z</time>
      </trkpt>
      <trkpt lat="44.9172" lon="5.15856">
        <ele>1113.82</ele>
        <time>2019-01-12T10:47:59Z</time>
      </trkpt>
      <trkpt lat="44.91718" lon="5.1586">
        <ele>1116.23</ele>
        <time>2019-01-12T10:48:03Z</time>
      </trkpt>
      <trkpt lat="44.91717" lon="5.15861">
        <ele>1115.75</ele>
        <time>2019-01-12T10:48:04Z</time>
      </trkpt>
      <trkpt lat="44.91715" lon="5.15863">
        <ele>1113.34</ele>
        <time>2019-01-12T10:48:07Z</time>
      </trkpt>
      <trkpt lat="44.91713" lon="5.15865">
        <ele>1112.86</ele>
        <time>2019-01-12T10:48:10Z</time>
      </trkpt>
      <trkpt lat="44.91713" lon="5.15868">
        <ele>1114.31</ele>
        <time>2019-01-12T10:48:12Z</time>
      </trkpt>
      <trkpt lat="44.91712" lon="5.15872">
        <ele>1113.82</ele>
        <time>2019-01-12T10:48:15Z</time>
      </trkpt>
      <trkpt lat="44.91713" lon="5.15878">
        <ele>1111.9</ele>
        <time>2019-01-12T10:48:19Z</time>
      </trkpt>
      <trkpt lat="44.91715" lon="5.15881">
        <ele>1115.27</ele>
        <time>2019-01-12T10:48:23Z</time>
      </trkpt>
      <trkpt lat="44.91715" lon="5.15882">
        <ele>1114.31</ele>
        <time>2019-01-12T10:48:24Z</time>
      </trkpt>
      <trkpt lat="44.9172" lon="5.15884">
        <ele>1113.34</ele>
        <time>2019-01-12T10:48:29Z</time>
      </trkpt>
      <trkpt lat="44.91722" lon="5.15886">
        <ele>1113.82</ele>
        <time>2019-01-12T10:48:30Z</time>
      </trkpt>
      <trkpt lat="44.91724" lon="5.15893">
        <ele>1112.86</ele>
        <time>2019-01-12T10:48:35Z</time>
      </trkpt>
      <trkpt lat="44.91726" lon="5.15897">
        <ele>1110.94</ele>
        <time>2019-01-12T10:48:38Z</time>
      </trkpt>
      <trkpt lat="44.91727" lon="5.15898">
        <ele>1110.94</ele>
        <time>2019-01-12T10:48:39Z</time>
      </trkpt>
      <trkpt lat="44.9173" lon="5.15901">
        <ele>1110.94</ele>
        <time>2019-01-12T10:48:42Z</time>
      </trkpt>
      <trkpt lat="44.91738" lon="5.15908">
        <ele>1110.94</ele>
        <time>2019-01-12T10:48:52Z</time>
      </trkpt>
      <trkpt lat="44.9174" lon="5.1591">
        <ele>1109.5</ele>
        <time>2019-01-12T10:48:55Z</time>
      </trkpt>
      <trkpt lat="44.91742" lon="5.15912">
        <ele>1108.54</ele>
        <time>2019-01-12T10:48:57Z</time>
      </trkpt>
      <trkpt lat="44.91745" lon="5.15917">
        <ele>1105.17</ele>
        <time>2019-01-12T10:49:03Z</time>
      </trkpt>
      <trkpt lat="44.91745" lon="5.15918">
        <ele>1105.17</ele>
        <time>2019-01-12T10:49:08Z</time>
      </trkpt>
      <trkpt lat="44.91745" lon="5.15918">
        <ele>1101.81</ele>
        <time>2019-01-12T10:49:17Z</time>
      </trkpt>
      <trkpt lat="44.91745" lon="5.15918">
        <ele>1099.4</ele>
        <time>2019-01-12T10:49:20Z</time>
      </trkpt>
      <trkpt lat="44.91745" lon="5.15918">
        <ele>1096.52</ele>
        <time>2019-01-12T10:49:31Z</time>
      </trkpt>
      <trkpt lat="44.91745" lon="5.15918">
        <ele>1095.56</ele>
        <time>2019-01-12T10:49:33Z</time>
      </trkpt>
      <trkpt lat="44.91745" lon="5.15918">
        <ele>1093.16</ele>
        <time>2019-01-12T10:49:38Z</time>
      </trkpt>
      <trkpt lat="44.91745" lon="5.15918">
        <ele>1095.08</ele>
        <time>2019-01-12T10:49:41Z</time>
      </trkpt>
      <trkpt lat="44.91745" lon="5.15918">
        <ele>1091.71</ele>
        <time>2019-01-12T10:49:47Z</time>
      </trkpt>
      <trkpt lat="44.91745" lon="5.15918">
        <ele>1090.27</ele>
        <time>2019-01-12T10:50:04Z</time>
      </trkpt>
      <trkpt lat="44.91748" lon="5.15919">
        <ele>1087.39</ele>
        <time>2019-01-12T10:50:11Z</time>
      </trkpt>
      <trkpt lat="44.91749" lon="5.15919">
        <ele>1087.39</ele>
        <time>2019-01-12T10:50:22Z</time>
      </trkpt>
      <trkpt lat="44.91759" lon="5.15921">
        <ele>1084.5</ele>
        <time>2019-01-12T10:50:36Z</time>
      </trkpt>
      <trkpt lat="44.91759" lon="5.15921">
        <ele>1084.02</ele>
        <time>2019-01-12T10:50:49Z</time>
      </trkpt>
      <trkpt lat="44.91759" lon="5.15921">
        <ele>1085.47</ele>
        <time>2019-01-12T10:51:07Z</time>
      </trkpt>
      <trkpt lat="44.91768" lon="5.15922">
        <ele>1084.5</ele>
        <time>2019-01-12T10:51:11Z</time>
      </trkpt>
      <trkpt lat="44.91781" lon="5.15921">
        <ele>1083.54</ele>
        <time>2019-01-12T10:51:22Z</time>
      </trkpt>
      <trkpt lat="44.91786" lon="5.15923">
        <ele>1085.47</ele>
        <time>2019-01-12T10:51:38Z</time>
      </trkpt>
      <trkpt lat="44.918" lon="5.1593">
        <ele>1084.5</ele>
        <time>2019-01-12T10:51:49Z</time>
      </trkpt>
      <trkpt lat="44.91803" lon="5.15931">
        <ele>1081.14</ele>
        <time>2019-01-12T10:51:52Z</time>
      </trkpt>
      <trkpt lat="44.91804" lon="5.15931">
        <ele>1081.62</ele>
        <time>2019-01-12T10:51:53Z</time>
      </trkpt>
      <trkpt lat="44.91809" lon="5.15934">
        <ele>1078.26</ele>
        <time>2019-01-12T10:51:58Z</time>
      </trkpt>
      <trkpt lat="44.91811" lon="5.15934">
        <ele>1081.62</ele>
        <time>2019-01-12T10:52:01Z</time>
      </trkpt>
      <trkpt lat="44.91811" lon="5.15934">
        <ele>1082.1</ele>
        <time>2019-01-12T10:52:02Z</time>
      </trkpt>
      <trkpt lat="44.91811" lon="5.15934">
        <ele>1080.66</ele>
        <time>2019-01-12T10:52:05Z</time>
      </trkpt>
      <trkpt lat="44.91818" lon="5.15939">
        <ele>1076.81</ele>
        <time>2019-01-12T10:52:16Z</time>
      </trkpt>
      <trkpt lat="44.9182" lon="5.1594">
        <ele>1074.41</ele>
        <time>2019-01-12T10:52:19Z</time>
      </trkpt>
      <trkpt lat="44.91822" lon="5.15941">
        <ele>1076.33</ele>
        <time>2019-01-12T10:52:22Z</time>
      </trkpt>
      <trkpt lat="44.91824" lon="5.15943">
        <ele>1073.45</ele>
        <time>2019-01-12T10:52:24Z</time>
      </trkpt>
      <trkpt lat="44.91828" lon="5.15941">
        <ele>1076.81</ele>
        <time>2019-01-12T10:52:28Z</time>
      </trkpt>
      <trkpt lat="44.91829" lon="5.15938">
        <ele>1077.29</ele>
        <time>2019-01-12T10:52:30Z</time>
      </trkpt>
      <trkpt lat="44.91827" lon="5.15935">
        <ele>1074.41</ele>
        <time>2019-01-12T10:52:33Z</time>
      </trkpt>
      <trkpt lat="44.91826" lon="5.15933">
        <ele>1072.97</ele>
        <time>2019-01-12T10:52:35Z</time>
      </trkpt>
      <trkpt lat="44.91824" lon="5.15928">
        <ele>1073.45</ele>
        <time>2019-01-12T10:52:53Z</time>
      </trkpt>
      <trkpt lat="44.91824" lon="5.15928">
        <ele>1072.01</ele>
        <time>2019-01-12T10:53:03Z</time>
      </trkpt>
      <trkpt lat="44.91824" lon="5.15928">
        <ele>1073.45</ele>
        <time>2019-01-12T10:53:08Z</time>
      </trkpt>
      <trkpt lat="44.91824" lon="5.15928">
        <ele>1071.05</ele>
        <time>2019-01-12T10:53:12Z</time>
      </trkpt>
      <trkpt lat="44.91824" lon="5.15928">
        <ele>1073.93</ele>
        <time>2019-01-12T10:53:16Z</time>
      </trkpt>
      <trkpt lat="44.91824" lon="5.15928">
        <ele>1074.41</ele>
        <time>2019-01-12T10:53:17Z</time>
      </trkpt>
      <trkpt lat="44.91824" lon="5.15928">
        <ele>1073.93</ele>
        <time>2019-01-12T10:53:24Z</time>
      </trkpt>
      <trkpt lat="44.91824" lon="5.15928">
        <ele>1072.01</ele>
        <time>2019-01-12T10:53:50Z</time>
      </trkpt>
      <trkpt lat="44.91824" lon="5.15928">
        <ele>1072.49</ele>
        <time>2019-01-12T10:53:58Z</time>
      </trkpt>
      <trkpt lat="44.91821" lon="5.15926">
        <ele>1072.97</ele>
        <time>2019-01-12T10:54:00Z</time>
      </trkpt>
      <trkpt lat="44.91821" lon="5.15923">
        <ele>1072.01</ele>
        <time>2019-01-12T10:54:02Z</time>
      </trkpt>
      <trkpt lat="44.91817" lon="5.15915">
        <ele>1070.57</ele>
        <time>2019-01-12T10:54:07Z</time>
      </trkpt>
      <trkpt lat="44.91812" lon="5.15908">
        <ele>1067.68</ele>
        <time>2019-01-12T10:54:15Z</time>
      </trkpt>
      <trkpt lat="44.91807" lon="5.15902">
        <ele>1065.76</ele>
        <time>2019-01-12T10:54:27Z</time>
      </trkpt>
      <trkpt lat="44.91806" lon="5.15901">
        <ele>1064.8</ele>
        <time>2019-01-12T10:54:29Z</time>
      </trkpt>
      <trkpt lat="44.91803" lon="5.15893">
        <ele>1063.84</ele>
        <time>2019-01-12T10:54:41Z</time>
      </trkpt>
      <trkpt lat="44.91801" lon="5.15889">
        <ele>1061.91</ele>
        <time>2019-01-12T10:54:47Z</time>
      </trkpt>
      <trkpt lat="44.91794" lon="5.15879">
        <ele>1058.55</ele>
        <time>2019-01-12T10:54:55Z</time>
      </trkpt>
      <trkpt lat="44.91793" lon="5.15876">
        <ele>1056.15</ele>
        <time>2019-01-12T10:54:59Z</time>
      </trkpt>
      <trkpt lat="44.91792" lon="5.15875">
        <ele>1055.67</ele>
        <time>2019-01-12T10:55:10Z</time>
      </trkpt>
      <trkpt lat="44.91791" lon="5.15874">
        <ele>1052.3</ele>
        <time>2019-01-12T10:55:18Z</time>
      </trkpt>
      <trkpt lat="44.91788" lon="5.15866">
        <ele>1049.42</ele>
        <time>2019-01-12T10:55:24Z</time>
      </trkpt>
      <trkpt lat="44.91787" lon="5.15861">
        <ele>1050.38</ele>
        <time>2019-01-12T10:55:40Z</time>
      </trkpt>
      <trkpt lat="44.91786" lon="5.15858">
        <ele>1047.49</ele>
        <time>2019-01-12T10:55:58Z</time>
      </trkpt>
      <trkpt lat="44.9178" lon="5.15841">
        <ele>1044.61</ele>
        <time>2019-01-12T10:56:10Z</time>
      </trkpt>
      <trkpt lat="44.9178" lon="5.15841">
        <ele>1044.13</ele>
        <time>2019-01-12T10:56:24Z</time>
      </trkpt>
      <trkpt lat="44.91775" lon="5.15834">
        <ele>1040.28</ele>
        <time>2019-01-12T10:56:34Z</time>
      </trkpt>
      <trkpt lat="44.91773" lon="5.15831">
        <ele>1040.76</ele>
        <time>2019-01-12T10:56:36Z</time>
      </trkpt>
      <trkpt lat="44.9177" lon="5.15826">
        <ele>1040.28</ele>
        <time>2019-01-12T10:56:47Z</time>
      </trkpt>
      <trkpt lat="44.91762" lon="5.15813">
        <ele>1038.36</ele>
        <time>2019-01-12T10:56:57Z</time>
      </trkpt>
      <trkpt lat="44.9176" lon="5.15805">
        <ele>1036.44</ele>
        <time>2019-01-12T10:57:06Z</time>
      </trkpt>
      <trkpt lat="44.91752" lon="5.15785">
        <ele>1033.55</ele>
        <time>2019-01-12T10:57:17Z</time>
      </trkpt>
      <trkpt lat="44.91744" lon="5.15773">
        <ele>1030.19</ele>
        <time>2019-01-12T10:57:25Z</time>
      </trkpt>
      <trkpt lat="44.91739" lon="5.15769">
        <ele>1028.27</ele>
        <time>2019-01-12T10:57:29Z</time>
      </trkpt>
      <trkpt lat="44.91733" lon="5.15756">
        <ele>1024.9</ele>
        <time>2019-01-12T10:57:37Z</time>
      </trkpt>
      <trkpt lat="44.91733" lon="5.15755">
        <ele>1024.42</ele>
        <time>2019-01-12T10:57:38Z</time>
      </trkpt>
      <trkpt lat="44.9173" lon="5.15749">
        <ele>1022.98</ele>
        <time>2019-01-12T10:57:42Z</time>
      </trkpt>
      <trkpt lat="44.91724" lon="5.15739">
        <ele>1021.06</ele>
        <time>2019-01-12T10:57:54Z</time>
      </trkpt>
      <trkpt lat="44.91718" lon="5.15731">
        <ele>1017.21</ele>
        <time>2019-01-12T10:58:03Z</time>
      </trkpt>
      <trkpt lat="44.91718" lon="5.15731">
        <ele>1016.25</ele>
        <time>2019-01-12T10:58:05Z</time>
      </trkpt>
      <trkpt lat="44.91718" lon="5.15731">
        <ele>1013.37</ele>
        <time>2019-01-12T10:58:14Z</time>
      </trkpt>
      <trkpt lat="44.91718" lon="5.15731">
        <ele>1011.93</ele>
        <time>2019-01-12T10:58:17Z</time>
      </trkpt>
      <trkpt lat="44.91714" lon="5.15725">
        <ele>1008.56</ele>
        <time>2019-01-12T10:58:24Z</time>
      </trkpt>
      <trkpt lat="44.91714" lon="5.15725">
        <ele>1005.68</ele>
        <time>2019-01-12T10:58:29Z</time>
      </trkpt>
      <trkpt lat="44.91713" lon="5.15723">
        <ele>1005.68</ele>
        <time>2019-01-12T10:58:30Z</time>
      </trkpt>
      <trkpt lat="44.91707" lon="5.15714">
        <ele>1002.31</ele>
        <time>2019-01-12T10:58:39Z</time>
      </trkpt>
      <trkpt lat="44.91707" lon="5.15711">
        <ele>1003.27</ele>
        <time>2019-01-12T10:58:42Z</time>
      </trkpt>
      <trkpt lat="44.91702" lon="5.15704">
        <ele>1000.39</ele>
        <time>2019-01-12T10:58:49Z</time>
      </trkpt>
      <trkpt lat="44.91702" lon="5.15704">
        <ele>999.91</ele>
        <time>2019-01-12T10:58:50Z</time>
      </trkpt>
      <trkpt lat="44.91697" lon="5.15696">
        <ele>996.54</ele>
        <time>2019-01-12T10:58:54Z</time>
      </trkpt>
      <trkpt lat="44.91687" lon="5.1568">
        <ele>993.18</ele>
        <time>2019-01-12T10:59:05Z</time>
      </trkpt>
      <trkpt lat="44.91685" lon="5.15679">
        <ele>993.18</ele>
        <time>2019-01-12T10:59:06Z</time>
      </trkpt>
      <trkpt lat="44.91676" lon="5.1566">
        <ele>989.81</ele>
        <time>2019-01-12T10:59:18Z</time>
      </trkpt>
      <trkpt lat="44.91675" lon="5.15655">
        <ele>986.93</ele>
        <time>2019-01-12T10:59:30Z</time>
      </trkpt>
      <trkpt lat="44.91675" lon="5.15655">
        <ele>984.53</ele>
        <time>2019-01-12T10:59:35Z</time>
      </trkpt>
      <trkpt lat="44.91668" lon="5.15641">
        <ele>981.64</ele>
        <time>2019-01-12T10:59:44Z</time>
      </trkpt>
      <trkpt lat="44.91668" lon="5.15641">
        <ele>980.2</ele>
        <time>2019-01-12T10:59:55Z</time>
      </trkpt>
      <trkpt lat="44.9166" lon="5.15618">
        <ele>977.8</ele>
        <time>2019-01-12T11:00:08Z</time>
      </trkpt>
      <trkpt lat="44.91657" lon="5.15604">
        <ele>974.91</ele>
        <time>2019-01-12T11:00:18Z</time>
      </trkpt>
      <trkpt lat="44.91653" lon="5.15597">
        <ele>974.43</ele>
        <time>2019-01-12T11:00:24Z</time>
      </trkpt>
      <trkpt lat="44.9165" lon="5.15587">
        <ele>972.03</ele>
        <time>2019-01-12T11:00:31Z</time>
      </trkpt>
      <trkpt lat="44.91647" lon="5.15579">
        <ele>970.11</ele>
        <time>2019-01-12T11:00:37Z</time>
      </trkpt>
      <trkpt lat="44.91644" lon="5.15571">
        <ele>968.18</ele>
        <time>2019-01-12T11:00:46Z</time>
      </trkpt>
      <trkpt lat="44.91644" lon="5.15568">
        <ele>967.22</ele>
        <time>2019-01-12T11:00:48Z</time>
      </trkpt>
      <trkpt lat="44.91649" lon="5.15565">
        <ele>964.34</ele>
        <time>2019-01-12T11:01:01Z</time>
      </trkpt>
      <trkpt lat="44.91652" lon="5.15564">
        <ele>962.9</ele>
        <time>2019-01-12T11:01:13Z</time>
      </trkpt>
      <trkpt lat="44.91651" lon="5.15562">
        <ele>952.32</ele>
        <time>2019-01-12T11:01:17Z</time>
      </trkpt>
      <trkpt lat="44.91651" lon="5.15562">
        <ele>970.11</ele>
        <time>2019-01-12T11:01:18Z</time>
      </trkpt>
      <trkpt lat="44.91651" lon="5.15561">
        <ele>962.42</ele>
        <time>2019-01-12T11:01:19Z</time>
      </trkpt>
      <trkpt lat="44.91651" lon="5.15555">
        <ele>957.61</ele>
        <time>2019-01-12T11:01:29Z</time>
      </trkpt>
      <trkpt lat="44.9165" lon="5.15554">
        <ele>961.94</ele>
        <time>2019-01-12T11:01:30Z</time>
      </trkpt>
      <trkpt lat="44.9165" lon="5.15554">
        <ele>957.61</ele>
        <time>2019-01-12T11:01:31Z</time>
      </trkpt>
      <trkpt lat="44.91648" lon="5.15549">
        <ele>951.36</ele>
        <time>2019-01-12T11:01:40Z</time>
      </trkpt>
      <trkpt lat="44.91648" lon="5.15549">
        <ele>965.78</ele>
        <time>2019-01-12T11:01:42Z</time>
      </trkpt>
      <trkpt lat="44.91648" lon="5.15549">
        <ele>957.13</ele>
        <time>2019-01-12T11:01:43Z</time>
      </trkpt>
      <trkpt lat="44.91648" lon="5.15548">
        <ele>956.17</ele>
        <time>2019-01-12T11:01:45Z</time>
      </trkpt>
      <trkpt lat="44.91646" lon="5.15545">
        <ele>954.25</ele>
        <time>2019-01-12T11:01:51Z</time>
      </trkpt>
      <trkpt lat="44.91639" lon="5.15535">
        <ele>950.88</ele>
        <time>2019-01-12T11:02:02Z</time>
      </trkpt>
      <trkpt lat="44.91637" lon="5.15526">
        <ele>947.04</ele>
        <time>2019-01-12T11:02:13Z</time>
      </trkpt>
      <trkpt lat="44.91637" lon="5.15519">
        <ele>944.15</ele>
        <time>2019-01-12T11:02:22Z</time>
      </trkpt>
      <trkpt lat="44.91636" lon="5.15509">
        <ele>940.79</ele>
        <time>2019-01-12T11:02:31Z</time>
      </trkpt>
      <trkpt lat="44.91635" lon="5.15501">
        <ele>937.9</ele>
        <time>2019-01-12T11:02:39Z</time>
      </trkpt>
      <trkpt lat="44.9163" lon="5.15487">
        <ele>934.54</ele>
        <time>2019-01-12T11:02:48Z</time>
      </trkpt>
      <trkpt lat="44.91629" lon="5.15486">
        <ele>934.54</ele>
        <time>2019-01-12T11:02:49Z</time>
      </trkpt>
      <trkpt lat="44.91628" lon="5.15482">
        <ele>933.58</ele>
        <time>2019-01-12T11:02:51Z</time>
      </trkpt>
      <trkpt lat="44.91625" lon="5.15472">
        <ele>930.69</ele>
        <time>2019-01-12T11:02:59Z</time>
      </trkpt>
      <trkpt lat="44.91622" lon="5.15455">
        <ele>928.29</ele>
        <time>2019-01-12T11:03:10Z</time>
      </trkpt>
      <trkpt lat="44.91621" lon="5.15449">
        <ele>924.93</ele>
        <time>2019-01-12T11:03:18Z</time>
      </trkpt>
      <trkpt lat="44.9162" lon="5.15439">
        <ele>921.56</ele>
        <time>2019-01-12T11:03:26Z</time>
      </trkpt>
      <trkpt lat="44.9162" lon="5.15434">
        <ele>918.68</ele>
        <time>2019-01-12T11:03:32Z</time>
      </trkpt>
      <trkpt lat="44.9162" lon="5.1543">
        <ele>915.31</ele>
        <time>2019-01-12T11:03:39Z</time>
      </trkpt>
      <trkpt lat="44.91619" lon="5.15422">
        <ele>914.35</ele>
        <time>2019-01-12T11:03:53Z</time>
      </trkpt>
      <trkpt lat="44.91616" lon="5.15414">
        <ele>911.47</ele>
        <time>2019-01-12T11:04:00Z</time>
      </trkpt>
      <trkpt lat="44.91613" lon="5.15403">
        <ele>908.58</ele>
        <time>2019-01-12T11:04:10Z</time>
      </trkpt>
      <trkpt lat="44.91612" lon="5.15387">
        <ele>905.22</ele>
        <time>2019-01-12T11:04:19Z</time>
      </trkpt>
      <trkpt lat="44.91612" lon="5.15374">
        <ele>901.85</ele>
        <time>2019-01-12T11:04:28Z</time>
      </trkpt>
      <trkpt lat="44.9161" lon="5.15371">
        <ele>900.89</ele>
        <time>2019-01-12T11:04:30Z</time>
      </trkpt>
      <trkpt lat="44.91608" lon="5.15365">
        <ele>899.45</ele>
        <time>2019-01-12T11:04:33Z</time>
      </trkpt>
      <trkpt lat="44.91607" lon="5.15353">
        <ele>896.57</ele>
        <time>2019-01-12T11:04:42Z</time>
      </trkpt>
      <trkpt lat="44.91606" lon="5.15339">
        <ele>894.16</ele>
        <time>2019-01-12T11:04:52Z</time>
      </trkpt>
      <trkpt lat="44.91604" lon="5.15335">
        <ele>893.68</ele>
        <time>2019-01-12T11:05:05Z</time>
      </trkpt>
      <trkpt lat="44.91602" lon="5.15334">
        <ele>893.2</ele>
        <time>2019-01-12T11:05:19Z</time>
      </trkpt>
      <trkpt lat="44.91602" lon="5.15334">
        <ele>893.2</ele>
        <time>2019-01-12T11:05:41Z</time>
      </trkpt>
      <trkpt lat="44.91602" lon="5.15334">
        <ele>893.2</ele>
        <time>2019-01-12T11:06:03Z</time>
      </trkpt>
      <trkpt lat="44.91602" lon="5.15334">
        <ele>893.68</ele>
        <time>2019-01-12T11:06:12Z</time>
      </trkpt>
      <trkpt lat="44.91603" lon="5.15333">
        <ele>892.72</ele>
        <time>2019-01-12T11:06:14Z</time>
      </trkpt>
      <trkpt lat="44.91602" lon="5.15333">
        <ele>893.2</ele>
        <time>2019-01-12T11:06:33Z</time>
      </trkpt>
      <trkpt lat="44.91602" lon="5.15333">
        <ele>894.16</ele>
        <time>2019-01-12T11:06:50Z</time>
      </trkpt>
      <trkpt lat="44.91603" lon="5.15333">
        <ele>893.68</ele>
        <time>2019-01-12T11:07:06Z</time>
      </trkpt>
      <trkpt lat="44.91603" lon="5.15333">
        <ele>894.16</ele>
        <time>2019-01-12T11:07:13Z</time>
      </trkpt>
      <trkpt lat="44.91602" lon="5.15319">
        <ele>890.8</ele>
        <time>2019-01-12T11:07:24Z</time>
      </trkpt>
      <trkpt lat="44.91602" lon="5.15318">
        <ele>890.8</ele>
        <time>2019-01-12T11:07:25Z</time>
      </trkpt>
      <trkpt lat="44.91599" lon="5.15313">
        <ele>889.36</ele>
        <time>2019-01-12T11:07:29Z</time>
      </trkpt>
      <trkpt lat="44.91598" lon="5.15309">
        <ele>888.88</ele>
        <time>2019-01-12T11:07:31Z</time>
      </trkpt>
      <trkpt lat="44.91597" lon="5.15302">
        <ele>889.36</ele>
        <time>2019-01-12T11:07:44Z</time>
      </trkpt>
      <trkpt lat="44.91594" lon="5.15287">
        <ele>885.51</ele>
        <time>2019-01-12T11:07:52Z</time>
      </trkpt>
      <trkpt lat="44.91592" lon="5.1528">
        <ele>883.59</ele>
        <time>2019-01-12T11:08:02Z</time>
      </trkpt>
      <trkpt lat="44.91591" lon="5.15275">
        <ele>882.63</ele>
        <time>2019-01-12T11:08:06Z</time>
      </trkpt>
      <trkpt lat="44.91587" lon="5.15259">
        <ele>879.26</ele>
        <time>2019-01-12T11:08:17Z</time>
      </trkpt>
      <trkpt lat="44.91588" lon="5.15243">
        <ele>876.38</ele>
        <time>2019-01-12T11:08:29Z</time>
      </trkpt>
      <trkpt lat="44.91587" lon="5.1524">
        <ele>875.9</ele>
        <time>2019-01-12T11:08:31Z</time>
      </trkpt>
      <trkpt lat="44.91587" lon="5.15231">
        <ele>871.57</ele>
        <time>2019-01-12T11:08:39Z</time>
      </trkpt>
      <trkpt lat="44.91587" lon="5.15228">
        <ele>870.13</ele>
        <time>2019-01-12T11:08:41Z</time>
      </trkpt>
      <trkpt lat="44.91587" lon="5.15226">
        <ele>870.13</ele>
        <time>2019-01-12T11:08:42Z</time>
      </trkpt>
      <trkpt lat="44.91582" lon="5.15211">
        <ele>867.25</ele>
        <time>2019-01-12T11:08:54Z</time>
      </trkpt>
      <trkpt lat="44.9158" lon="5.15199">
        <ele>863.88</ele>
        <time>2019-01-12T11:09:03Z</time>
      </trkpt>
      <trkpt lat="44.91582" lon="5.15188">
        <ele>860.52</ele>
        <time>2019-01-12T11:09:11Z</time>
      </trkpt>
      <trkpt lat="44.91583" lon="5.15176">
        <ele>857.63</ele>
        <time>2019-01-12T11:09:20Z</time>
      </trkpt>
      <trkpt lat="44.91583" lon="5.15165">
        <ele>855.71</ele>
        <time>2019-01-12T11:09:28Z</time>
      </trkpt>
      <trkpt lat="44.91584" lon="5.15158">
        <ele>854.27</ele>
        <time>2019-01-12T11:09:31Z</time>
      </trkpt>
      <trkpt lat="44.91583" lon="5.15149">
        <ele>852.35</ele>
        <time>2019-01-12T11:09:38Z</time>
      </trkpt>
      <trkpt lat="44.91583" lon="5.15141">
        <ele>850.9</ele>
        <time>2019-01-12T11:09:43Z</time>
      </trkpt>
      <trkpt lat="44.91584" lon="5.15131">
        <ele>848.02</ele>
        <time>2019-01-12T11:09:56Z</time>
      </trkpt>
      <trkpt lat="44.91583" lon="5.15123">
        <ele>846.58</ele>
        <time>2019-01-12T11:10:10Z</time>
      </trkpt>
      <trkpt lat="44.91584" lon="5.1511">
        <ele>843.21</ele>
        <time>2019-01-12T11:10:20Z</time>
      </trkpt>
      <trkpt lat="44.91585" lon="5.15097">
        <ele>840.81</ele>
        <time>2019-01-12T11:10:32Z</time>
      </trkpt>
      <trkpt lat="44.91585" lon="5.15093">
        <ele>838.89</ele>
        <time>2019-01-12T11:10:41Z</time>
      </trkpt>
      <trkpt lat="44.91589" lon="5.15081">
        <ele>836.48</ele>
        <time>2019-01-12T11:10:49Z</time>
      </trkpt>
      <trkpt lat="44.9159" lon="5.15072">
        <ele>834.56</ele>
        <time>2019-01-12T11:10:55Z</time>
      </trkpt>
      <trkpt lat="44.91591" lon="5.15067">
        <ele>834.08</ele>
        <time>2019-01-12T11:10:58Z</time>
      </trkpt>
      <trkpt lat="44.9159" lon="5.15057">
        <ele>830.24</ele>
        <time>2019-01-12T11:11:06Z</time>
      </trkpt>
      <trkpt lat="44.91592" lon="5.15045">
        <ele>826.87</ele>
        <time>2019-01-12T11:11:17Z</time>
      </trkpt>
      <trkpt lat="44.91592" lon="5.15038">
        <ele>826.39</ele>
        <time>2019-01-12T11:11:31Z</time>
      </trkpt>
      <trkpt lat="44.91594" lon="5.1503">
        <ele>823.03</ele>
        <time>2019-01-12T11:11:40Z</time>
      </trkpt>
      <trkpt lat="44.91593" lon="5.15018">
        <ele>821.1</ele>
        <time>2019-01-12T11:11:55Z</time>
      </trkpt>
      <trkpt lat="44.91595" lon="5.15002">
        <ele>817.74</ele>
        <time>2019-01-12T11:12:04Z</time>
      </trkpt>
      <trkpt lat="44.91595" lon="5.14997">
        <ele>816.3</ele>
        <time>2019-01-12T11:12:09Z</time>
      </trkpt>
      <trkpt lat="44.91598" lon="5.14976">
        <ele>813.41</ele>
        <time>2019-01-12T11:12:21Z</time>
      </trkpt>
      <trkpt lat="44.91601" lon="5.14962">
        <ele>810.53</ele>
        <time>2019-01-12T11:12:30Z</time>
      </trkpt>
      <trkpt lat="44.91603" lon="5.14954">
        <ele>807.16</ele>
        <time>2019-01-12T11:12:38Z</time>
      </trkpt>
      <trkpt lat="44.91605" lon="5.14951">
        <ele>806.2</ele>
        <time>2019-01-12T11:12:41Z</time>
      </trkpt>
      <trkpt lat="44.91612" lon="5.14943">
        <ele>803.32</ele>
        <time>2019-01-12T11:12:48Z</time>
      </trkpt>
      <trkpt lat="44.91622" lon="5.1494">
        <ele>800.44</ele>
        <time>2019-01-12T11:12:58Z</time>
      </trkpt>
      <trkpt lat="44.91624" lon="5.14938">
        <ele>800.44</ele>
        <time>2019-01-12T11:13:00Z</time>
      </trkpt>
      <trkpt lat="44.91626" lon="5.14932">
        <ele>800.44</ele>
        <time>2019-01-12T11:13:03Z</time>
      </trkpt>
      <trkpt lat="44.91623" lon="5.14928">
        <ele>799.47</ele>
        <time>2019-01-12T11:13:14Z</time>
      </trkpt>
      <trkpt lat="44.9162" lon="5.14926">
        <ele>798.03</ele>
        <time>2019-01-12T11:13:23Z</time>
      </trkpt>
      <trkpt lat="44.91617" lon="5.14923">
        <ele>797.07</ele>
        <time>2019-01-12T11:13:28Z</time>
      </trkpt>
      <trkpt lat="44.91617" lon="5.14918">
        <ele>796.11</ele>
        <time>2019-01-12T11:13:31Z</time>
      </trkpt>
      <trkpt lat="44.91614" lon="5.14907">
        <ele>792.74</ele>
        <time>2019-01-12T11:13:42Z</time>
      </trkpt>
      <trkpt lat="44.91612" lon="5.14901">
        <ele>790.34</ele>
        <time>2019-01-12T11:13:50Z</time>
      </trkpt>
      <trkpt lat="44.91609" lon="5.14894">
        <ele>786.98</ele>
        <time>2019-01-12T11:13:59Z</time>
      </trkpt>
      <trkpt lat="44.91609" lon="5.14894">
        <ele>786.5</ele>
        <time>2019-01-12T11:14:00Z</time>
      </trkpt>
      <trkpt lat="44.91608" lon="5.1489">
        <ele>785.05</ele>
        <time>2019-01-12T11:14:03Z</time>
      </trkpt>
      <trkpt lat="44.91604" lon="5.14874">
        <ele>781.69</ele>
        <time>2019-01-12T11:14:13Z</time>
      </trkpt>
      <trkpt lat="44.916" lon="5.1486">
        <ele>778.81</ele>
        <time>2019-01-12T11:14:24Z</time>
      </trkpt>
      <trkpt lat="44.91596" lon="5.14849">
        <ele>775.92</ele>
        <time>2019-01-12T11:14:34Z</time>
      </trkpt>
      <trkpt lat="44.9159" lon="5.14831">
        <ele>772.56</ele>
        <time>2019-01-12T11:14:44Z</time>
      </trkpt>
      <trkpt lat="44.91587" lon="5.1482">
        <ele>771.11</ele>
        <time>2019-01-12T11:14:49Z</time>
      </trkpt>
      <trkpt lat="44.91585" lon="5.1481">
        <ele>767.75</ele>
        <time>2019-01-12T11:14:59Z</time>
      </trkpt>
      <trkpt lat="44.91585" lon="5.14809">
        <ele>766.79</ele>
        <time>2019-01-12T11:15:03Z</time>
      </trkpt>
      <trkpt lat="44.91581" lon="5.14792">
        <ele>763.42</ele>
        <time>2019-01-12T11:15:14Z</time>
      </trkpt>
      <trkpt lat="44.91582" lon="5.14776">
        <ele>760.06</ele>
        <time>2019-01-12T11:15:24Z</time>
      </trkpt>
      <trkpt lat="44.91583" lon="5.14774">
        <ele>759.1</ele>
        <time>2019-01-12T11:15:36Z</time>
      </trkpt>
      <trkpt lat="44.91583" lon="5.14767">
        <ele>755.25</ele>
        <time>2019-01-12T11:15:47Z</time>
      </trkpt>
      <trkpt lat="44.91583" lon="5.14767">
        <ele>750.45</ele>
        <time>2019-01-12T11:15:48Z</time>
      </trkpt>
      <trkpt lat="44.91583" lon="5.14767">
        <ele>764.87</ele>
        <time>2019-01-12T11:15:49Z</time>
      </trkpt>
      <trkpt lat="44.91583" lon="5.14767">
        <ele>757.18</ele>
        <time>2019-01-12T11:15:50Z</time>
      </trkpt>
      <trkpt lat="44.91582" lon="5.14763">
        <ele>753.33</ele>
        <time>2019-01-12T11:15:55Z</time>
      </trkpt>
      <trkpt lat="44.91582" lon="5.14762">
        <ele>759.58</ele>
        <time>2019-01-12T11:15:56Z</time>
      </trkpt>
      <trkpt lat="44.91582" lon="5.14762">
        <ele>756.69</ele>
        <time>2019-01-12T11:15:57Z</time>
      </trkpt>
      <trkpt lat="44.91583" lon="5.1476">
        <ele>755.73</ele>
        <time>2019-01-12T11:15:59Z</time>
      </trkpt>
      <trkpt lat="44.91584" lon="5.14757">
        <ele>755.25</ele>
        <time>2019-01-12T11:16:07Z</time>
      </trkpt>
      <trkpt lat="44.91587" lon="5.14746">
        <ele>753.33</ele>
        <time>2019-01-12T11:16:13Z</time>
      </trkpt>
      <trkpt lat="44.91594" lon="5.14726">
        <ele>750.45</ele>
        <time>2019-01-12T11:16:25Z</time>
      </trkpt>
      <trkpt lat="44.91596" lon="5.14721">
        <ele>749</ele>
        <time>2019-01-12T11:16:36Z</time>
      </trkpt>
      <trkpt lat="44.91598" lon="5.14714">
        <ele>747.08</ele>
        <time>2019-01-12T11:16:43Z</time>
      </trkpt>
      <trkpt lat="44.91606" lon="5.14699">
        <ele>743.24</ele>
        <time>2019-01-12T11:16:55Z</time>
      </trkpt>
      <trkpt lat="44.91607" lon="5.14692">
        <ele>741.79</ele>
        <time>2019-01-12T11:16:59Z</time>
      </trkpt>
      <trkpt lat="44.91606" lon="5.14689">
        <ele>741.31</ele>
        <time>2019-01-12T11:17:01Z</time>
      </trkpt>
      <trkpt lat="44.91608" lon="5.14683">
        <ele>740.35</ele>
        <time>2019-01-12T11:17:05Z</time>
      </trkpt>
      <trkpt lat="44.91611" lon="5.14675">
        <ele>738.43</ele>
        <time>2019-01-12T11:17:10Z</time>
      </trkpt>
      <trkpt lat="44.91614" lon="5.14665">
        <ele>736.03</ele>
        <time>2019-01-12T11:17:17Z</time>
      </trkpt>
      <trkpt lat="44.91616" lon="5.14658">
        <ele>734.58</ele>
        <time>2019-01-12T11:17:21Z</time>
      </trkpt>
      <trkpt lat="44.91618" lon="5.14654">
        <ele>733.62</ele>
        <time>2019-01-12T11:17:25Z</time>
      </trkpt>
      <trkpt lat="44.91625" lon="5.14643">
        <ele>730.26</ele>
        <time>2019-01-12T11:17:36Z</time>
      </trkpt>
      <trkpt lat="44.91625" lon="5.14635">
        <ele>726.41</ele>
        <time>2019-01-12T11:17:45Z</time>
      </trkpt>
      <trkpt lat="44.91625" lon="5.14635">
        <ele>730.74</ele>
        <time>2019-01-12T11:17:46Z</time>
      </trkpt>
      <trkpt lat="44.91625" lon="5.14633">
        <ele>728.82</ele>
        <time>2019-01-12T11:17:52Z</time>
      </trkpt>
      <trkpt lat="44.91619" lon="5.14632">
        <ele>734.1</ele>
        <time>2019-01-12T11:18:04Z</time>
      </trkpt>
      <trkpt lat="44.91619" lon="5.14632">
        <ele>732.66</ele>
        <time>2019-01-12T11:18:05Z</time>
      </trkpt>
      <trkpt lat="44.91619" lon="5.14632">
        <ele>729.3</ele>
        <time>2019-01-12T11:18:06Z</time>
      </trkpt>
      <trkpt lat="44.91619" lon="5.14632">
        <ele>717.28</ele>
        <time>2019-01-12T11:18:08Z</time>
      </trkpt>
      <trkpt lat="44.91619" lon="5.14632">
        <ele>739.87</ele>
        <time>2019-01-12T11:18:09Z</time>
      </trkpt>
      <trkpt lat="44.91619" lon="5.14632">
        <ele>722.57</ele>
        <time>2019-01-12T11:18:10Z</time>
      </trkpt>
      <trkpt lat="44.91619" lon="5.14632">
        <ele>726.89</ele>
        <time>2019-01-12T11:18:12Z</time>
      </trkpt>
      <trkpt lat="44.91619" lon="5.14632">
        <ele>738.43</ele>
        <time>2019-01-12T11:18:13Z</time>
      </trkpt>
      <trkpt lat="44.91619" lon="5.14632">
        <ele>734.58</ele>
        <time>2019-01-12T11:18:14Z</time>
      </trkpt>
      <trkpt lat="44.91619" lon="5.14632">
        <ele>723.53</ele>
        <time>2019-01-12T11:18:15Z</time>
      </trkpt>
      <trkpt lat="44.91619" lon="5.14632">
        <ele>735.55</ele>
        <time>2019-01-12T11:18:16Z</time>
      </trkpt>
      <trkpt lat="44.91619" lon="5.14632">
        <ele>728.34</ele>
        <time>2019-01-12T11:18:17Z</time>
      </trkpt>
      <trkpt lat="44.91619" lon="5.14632">
        <ele>719.2</ele>
        <time>2019-01-12T11:18:18Z</time>
      </trkpt>
      <trkpt lat="44.91619" lon="5.14632">
        <ele>739.39</ele>
        <time>2019-01-12T11:18:19Z</time>
      </trkpt>
      <trkpt lat="44.91619" lon="5.14632">
        <ele>729.3</ele>
        <time>2019-01-12T11:18:20Z</time>
      </trkpt>
      <trkpt lat="44.91616" lon="5.14629">
        <ele>731.22</ele>
        <time>2019-01-12T11:18:26Z</time>
      </trkpt>
      <trkpt lat="44.9161" lon="5.14627">
        <ele>731.7</ele>
        <time>2019-01-12T11:18:31Z</time>
      </trkpt>
      <trkpt lat="44.91601" lon="5.1462">
        <ele>734.1</ele>
        <time>2019-01-12T11:18:44Z</time>
      </trkpt>
      <trkpt lat="44.91598" lon="5.14617">
        <ele>734.58</ele>
        <time>2019-01-12T11:18:47Z</time>
      </trkpt>
      <trkpt lat="44.91588" lon="5.1461">
        <ele>736.03</ele>
        <time>2019-01-12T11:18:59Z</time>
      </trkpt>
      <trkpt lat="44.91586" lon="5.14609">
        <ele>736.03</ele>
        <time>2019-01-12T11:19:03Z</time>
      </trkpt>
      <trkpt lat="44.91574" lon="5.14606">
        <ele>739.39</ele>
        <time>2019-01-12T11:19:16Z</time>
      </trkpt>
      <trkpt lat="44.91565" lon="5.14604">
        <ele>741.31</ele>
        <time>2019-01-12T11:19:27Z</time>
      </trkpt>
      <trkpt lat="44.91558" lon="5.14604">
        <ele>741.79</ele>
        <time>2019-01-12T11:19:34Z</time>
      </trkpt>
      <trkpt lat="44.91549" lon="5.14604">
        <ele>743.72</ele>
        <time>2019-01-12T11:19:43Z</time>
      </trkpt>
      <trkpt lat="44.91546" lon="5.14602">
        <ele>744.68</ele>
        <time>2019-01-12T11:19:46Z</time>
      </trkpt>
      <trkpt lat="44.91538" lon="5.14603">
        <ele>746.6</ele>
        <time>2019-01-12T11:19:57Z</time>
      </trkpt>
      <trkpt lat="44.91538" lon="5.14603">
        <ele>747.08</ele>
        <time>2019-01-12T11:19:58Z</time>
      </trkpt>
      <trkpt lat="44.91532" lon="5.14603">
        <ele>749</ele>
        <time>2019-01-12T11:20:10Z</time>
      </trkpt>
      <trkpt lat="44.91527" lon="5.14603">
        <ele>749.97</ele>
        <time>2019-01-12T11:20:19Z</time>
      </trkpt>
      <trkpt lat="44.91524" lon="5.14602">
        <ele>749.49</ele>
        <time>2019-01-12T11:20:30Z</time>
      </trkpt>
      <trkpt lat="44.91524" lon="5.14602">
        <ele>749.97</ele>
        <time>2019-01-12T11:20:35Z</time>
      </trkpt>
      <trkpt lat="44.91521" lon="5.14601">
        <ele>750.45</ele>
        <time>2019-01-12T11:20:38Z</time>
      </trkpt>
      <trkpt lat="44.91512" lon="5.14598">
        <ele>750.93</ele>
        <time>2019-01-12T11:20:44Z</time>
      </trkpt>
      <trkpt lat="44.9151" lon="5.14599">
        <ele>751.89</ele>
        <time>2019-01-12T11:20:46Z</time>
      </trkpt>
      <trkpt lat="44.91506" lon="5.146">
        <ele>752.37</ele>
        <time>2019-01-12T11:20:51Z</time>
      </trkpt>
      <trkpt lat="44.91501" lon="5.146">
        <ele>754.77</ele>
        <time>2019-01-12T11:21:02Z</time>
      </trkpt>
      <trkpt lat="44.91491" lon="5.14595">
        <ele>756.21</ele>
        <time>2019-01-12T11:21:11Z</time>
      </trkpt>
      <trkpt lat="44.91484" lon="5.1459">
        <ele>758.14</ele>
        <time>2019-01-12T11:21:23Z</time>
      </trkpt>
      <trkpt lat="44.91474" lon="5.14583">
        <ele>759.58</ele>
        <time>2019-01-12T11:21:34Z</time>
      </trkpt>
      <trkpt lat="44.9147" lon="5.14579">
        <ele>761.02</ele>
        <time>2019-01-12T11:21:44Z</time>
      </trkpt>
      <trkpt lat="44.91459" lon="5.14567">
        <ele>762.46</ele>
        <time>2019-01-12T11:21:55Z</time>
      </trkpt>
      <trkpt lat="44.91456" lon="5.14562">
        <ele>762.94</ele>
        <time>2019-01-12T11:21:59Z</time>
      </trkpt>
      <trkpt lat="44.91453" lon="5.14557">
        <ele>763.9</ele>
        <time>2019-01-12T11:22:06Z</time>
      </trkpt>
      <trkpt lat="44.91447" lon="5.14542">
        <ele>764.87</ele>
        <time>2019-01-12T11:22:15Z</time>
      </trkpt>
      <trkpt lat="44.91437" lon="5.14527">
        <ele>766.79</ele>
        <time>2019-01-12T11:22:30Z</time>
      </trkpt>
      <trkpt lat="44.91432" lon="5.14523">
        <ele>767.75</ele>
        <time>2019-01-12T11:22:41Z</time>
      </trkpt>
      <trkpt lat="44.91426" lon="5.14517">
        <ele>766.79</ele>
        <time>2019-01-12T11:22:54Z</time>
      </trkpt>
      <trkpt lat="44.91426" lon="5.14517">
        <ele>766.79</ele>
        <time>2019-01-12T11:23:11Z</time>
      </trkpt>
      <trkpt lat="44.91426" lon="5.14518">
        <ele>766.31</ele>
        <time>2019-01-12T11:23:32Z</time>
      </trkpt>
      <trkpt lat="44.91426" lon="5.14518">
        <ele>765.83</ele>
        <time>2019-01-12T11:23:52Z</time>
      </trkpt>
      <trkpt lat="44.91426" lon="5.14518">
        <ele>766.79</ele>
        <time>2019-01-12T11:24:17Z</time>
      </trkpt>
      <trkpt lat="44.91426" lon="5.14517">
        <ele>766.31</ele>
        <time>2019-01-12T11:24:37Z</time>
      </trkpt>
      <trkpt lat="44.91426" lon="5.14517">
        <ele>765.83</ele>
        <time>2019-01-12T11:24:55Z</time>
      </trkpt>
      <trkpt lat="44.91426" lon="5.14517">
        <ele>765.83</ele>
        <time>2019-01-12T11:25:19Z</time>
      </trkpt>
      <trkpt lat="44.91426" lon="5.14517">
        <ele>765.83</ele>
        <time>2019-01-12T11:25:30Z</time>
      </trkpt>
      <trkpt lat="44.91423" lon="5.14517">
        <ele>765.83</ele>
        <time>2019-01-12T11:25:47Z</time>
      </trkpt>
      <trkpt lat="44.91423" lon="5.14515">
        <ele>764.87</ele>
        <time>2019-01-12T11:26:09Z</time>
      </trkpt>
      <trkpt lat="44.91419" lon="5.14513">
        <ele>765.83</ele>
        <time>2019-01-12T11:26:12Z</time>
      </trkpt>
      <trkpt lat="44.91413" lon="5.14508">
        <ele>766.79</ele>
        <time>2019-01-12T11:26:16Z</time>
      </trkpt>
      <trkpt lat="44.914" lon="5.14502">
        <ele>765.83</ele>
        <time>2019-01-12T11:26:26Z</time>
      </trkpt>
      <trkpt lat="44.9139" lon="5.14497">
        <ele>766.79</ele>
        <time>2019-01-12T11:26:34Z</time>
      </trkpt>
      <trkpt lat="44.9138" lon="5.14494">
        <ele>766.79</ele>
        <time>2019-01-12T11:26:42Z</time>
      </trkpt>
      <trkpt lat="44.91376" lon="5.1449">
        <ele>767.27</ele>
        <time>2019-01-12T11:26:47Z</time>
      </trkpt>
      <trkpt lat="44.91366" lon="5.14485">
        <ele>768.71</ele>
        <time>2019-01-12T11:26:57Z</time>
      </trkpt>
      <trkpt lat="44.91359" lon="5.14482">
        <ele>768.71</ele>
        <time>2019-01-12T11:27:02Z</time>
      </trkpt>
      <trkpt lat="44.91348" lon="5.14477">
        <ele>768.71</ele>
        <time>2019-01-12T11:27:11Z</time>
      </trkpt>
      <trkpt lat="44.91341" lon="5.14474">
        <ele>770.15</ele>
        <time>2019-01-12T11:27:17Z</time>
      </trkpt>
      <trkpt lat="44.91335" lon="5.14471">
        <ele>770.15</ele>
        <time>2019-01-12T11:27:21Z</time>
      </trkpt>
      <trkpt lat="44.91328" lon="5.14468">
        <ele>770.15</ele>
        <time>2019-01-12T11:27:26Z</time>
      </trkpt>
      <trkpt lat="44.91321" lon="5.14466">
        <ele>770.15</ele>
        <time>2019-01-12T11:27:33Z</time>
      </trkpt>
      <trkpt lat="44.91316" lon="5.14463">
        <ele>770.15</ele>
        <time>2019-01-12T11:27:45Z</time>
      </trkpt>
      <trkpt lat="44.91307" lon="5.1446">
        <ele>771.11</ele>
        <time>2019-01-12T11:27:55Z</time>
      </trkpt>
      <trkpt lat="44.913" lon="5.14461">
        <ele>772.08</ele>
        <time>2019-01-12T11:28:04Z</time>
      </trkpt>
      <trkpt lat="44.91293" lon="5.14458">
        <ele>774.96</ele>
        <time>2019-01-12T11:28:14Z</time>
      </trkpt>
      <trkpt lat="44.91286" lon="5.14459">
        <ele>777.36</ele>
        <time>2019-01-12T11:28:26Z</time>
      </trkpt>
      <trkpt lat="44.91284" lon="5.14459">
        <ele>780.73</ele>
        <time>2019-01-12T11:28:30Z</time>
      </trkpt>
      <trkpt lat="44.91283" lon="5.14459">
        <ele>776.88</ele>
        <time>2019-01-12T11:28:31Z</time>
      </trkpt>
      <trkpt lat="44.91278" lon="5.14459">
        <ele>781.69</ele>
        <time>2019-01-12T11:28:42Z</time>
      </trkpt>
      <trkpt lat="44.91278" lon="5.14459">
        <ele>779.77</ele>
        <time>2019-01-12T11:28:43Z</time>
      </trkpt>
      <trkpt lat="44.91278" lon="5.14459">
        <ele>776.4</ele>
        <time>2019-01-12T11:28:44Z</time>
      </trkpt>
      <trkpt lat="44.91278" lon="5.14459">
        <ele>782.65</ele>
        <time>2019-01-12T11:28:45Z</time>
      </trkpt>
      <trkpt lat="44.91278" lon="5.14459">
        <ele>777.84</ele>
        <time>2019-01-12T11:28:48Z</time>
      </trkpt>
      <trkpt lat="44.91277" lon="5.1446">
        <ele>788.9</ele>
        <time>2019-01-12T11:28:49Z</time>
      </trkpt>
      <trkpt lat="44.91276" lon="5.1446">
        <ele>780.73</ele>
        <time>2019-01-12T11:28:50Z</time>
      </trkpt>
      <trkpt lat="44.91273" lon="5.14463">
        <ele>783.13</ele>
        <time>2019-01-12T11:29:03Z</time>
      </trkpt>
      <trkpt lat="44.91269" lon="5.14464">
        <ele>785.05</ele>
        <time>2019-01-12T11:29:15Z</time>
      </trkpt>
      <trkpt lat="44.91268" lon="5.14463">
        <ele>785.05</ele>
        <time>2019-01-12T11:29:16Z</time>
      </trkpt>
      <trkpt lat="44.91263" lon="5.14465">
        <ele>787.94</ele>
        <time>2019-01-12T11:29:28Z</time>
      </trkpt>
      <trkpt lat="44.91258" lon="5.14465">
        <ele>789.86</ele>
        <time>2019-01-12T11:29:40Z</time>
      </trkpt>
      <trkpt lat="44.91252" lon="5.14466">
        <ele>793.22</ele>
        <time>2019-01-12T11:29:52Z</time>
      </trkpt>
      <trkpt lat="44.91247" lon="5.14464">
        <ele>796.11</ele>
        <time>2019-01-12T11:30:03Z</time>
      </trkpt>
      <trkpt lat="44.91241" lon="5.14465">
        <ele>798.99</ele>
        <time>2019-01-12T11:30:14Z</time>
      </trkpt>
      <trkpt lat="44.91234" lon="5.14463">
        <ele>800.92</ele>
        <time>2019-01-12T11:30:25Z</time>
      </trkpt>
      <trkpt lat="44.91229" lon="5.14462">
        <ele>802.36</ele>
        <time>2019-01-12T11:30:32Z</time>
      </trkpt>
      <trkpt lat="44.91224" lon="5.14459">
        <ele>805.24</ele>
        <time>2019-01-12T11:30:44Z</time>
      </trkpt>
      <trkpt lat="44.91215" lon="5.14458">
        <ele>807.64</ele>
        <time>2019-01-12T11:30:54Z</time>
      </trkpt>
      <trkpt lat="44.9121" lon="5.14459">
        <ele>810.05</ele>
        <time>2019-01-12T11:31:03Z</time>
      </trkpt>
      <trkpt lat="44.91207" lon="5.14458">
        <ele>810.53</ele>
        <time>2019-01-12T11:31:07Z</time>
      </trkpt>
      <trkpt lat="44.91204" lon="5.14458">
        <ele>809.09</ele>
        <time>2019-01-12T11:31:20Z</time>
      </trkpt>
      <trkpt lat="44.91204" lon="5.14458">
        <ele>813.89</ele>
        <time>2019-01-12T11:31:21Z</time>
      </trkpt>
      <trkpt lat="44.91204" lon="5.14458">
        <ele>809.09</ele>
        <time>2019-01-12T11:31:24Z</time>
      </trkpt>
      <trkpt lat="44.91204" lon="5.14458">
        <ele>823.99</ele>
        <time>2019-01-12T11:31:25Z</time>
      </trkpt>
      <trkpt lat="44.91204" lon="5.14458">
        <ele>813.41</ele>
        <time>2019-01-12T11:31:26Z</time>
      </trkpt>
      <trkpt lat="44.91207" lon="5.14459">
        <ele>810.05</ele>
        <time>2019-01-12T11:31:39Z</time>
      </trkpt>
      <trkpt lat="44.91208" lon="5.14459">
        <ele>810.05</ele>
        <time>2019-01-12T11:31:43Z</time>
      </trkpt>
      <trkpt lat="44.91213" lon="5.1446">
        <ele>806.2</ele>
        <time>2019-01-12T11:31:51Z</time>
      </trkpt>
      <trkpt lat="44.91217" lon="5.14462">
        <ele>805.72</ele>
        <time>2019-01-12T11:31:54Z</time>
      </trkpt>
      <trkpt lat="44.91219" lon="5.1446">
        <ele>804.28</ele>
        <time>2019-01-12T11:31:57Z</time>
      </trkpt>
      <trkpt lat="44.9122" lon="5.1446">
        <ele>804.28</ele>
        <time>2019-01-12T11:31:58Z</time>
      </trkpt>
      <trkpt lat="44.91229" lon="5.14464">
        <ele>800.44</ele>
        <time>2019-01-12T11:32:07Z</time>
      </trkpt>
      <trkpt lat="44.91229" lon="5.14464">
        <ele>800.44</ele>
        <time>2019-01-12T11:32:08Z</time>
      </trkpt>
      <trkpt lat="44.91233" lon="5.14464">
        <ele>800.44</ele>
        <time>2019-01-12T11:32:11Z</time>
      </trkpt>
      <trkpt lat="44.91236" lon="5.14463">
        <ele>798.99</ele>
        <time>2019-01-12T11:32:14Z</time>
      </trkpt>
      <trkpt lat="44.91236" lon="5.14463">
        <ele>794.19</ele>
        <time>2019-01-12T11:32:16Z</time>
      </trkpt>
      <trkpt lat="44.91236" lon="5.14463">
        <ele>799.47</ele>
        <time>2019-01-12T11:32:17Z</time>
      </trkpt>
      <trkpt lat="44.91236" lon="5.14463">
        <ele>790.34</ele>
        <time>2019-01-12T11:32:19Z</time>
      </trkpt>
      <trkpt lat="44.91236" lon="5.14463">
        <ele>805.72</ele>
        <time>2019-01-12T11:32:20Z</time>
      </trkpt>
      <trkpt lat="44.91236" lon="5.14463">
        <ele>798.51</ele>
        <time>2019-01-12T11:32:21Z</time>
      </trkpt>
      <trkpt lat="44.91236" lon="5.14463">
        <ele>798.51</ele>
        <time>2019-01-12T11:32:25Z</time>
      </trkpt>
      <trkpt lat="44.91237" lon="5.14463">
        <ele>798.03</ele>
        <time>2019-01-12T11:32:30Z</time>
      </trkpt>
      <trkpt lat="44.91239" lon="5.14462">
        <ele>794.19</ele>
        <time>2019-01-12T11:32:32Z</time>
      </trkpt>
      <trkpt lat="44.9124" lon="5.14462">
        <ele>800.92</ele>
        <time>2019-01-12T11:32:33Z</time>
      </trkpt>
      <trkpt lat="44.91241" lon="5.14462">
        <ele>797.55</ele>
        <time>2019-01-12T11:32:34Z</time>
      </trkpt>
      <trkpt lat="44.91243" lon="5.14462">
        <ele>795.15</ele>
        <time>2019-01-12T11:32:40Z</time>
      </trkpt>
      <trkpt lat="44.9125" lon="5.14462">
        <ele>792.74</ele>
        <time>2019-01-12T11:32:51Z</time>
      </trkpt>
      <trkpt lat="44.91251" lon="5.14461">
        <ele>791.3</ele>
        <time>2019-01-12T11:32:54Z</time>
      </trkpt>
      <trkpt lat="44.91255" lon="5.14462">
        <ele>789.86</ele>
        <time>2019-01-12T11:32:58Z</time>
      </trkpt>
      <trkpt lat="44.91258" lon="5.14461">
        <ele>787.46</ele>
        <time>2019-01-12T11:33:05Z</time>
      </trkpt>
      <trkpt lat="44.91262" lon="5.14461">
        <ele>786.02</ele>
        <time>2019-01-12T11:33:08Z</time>
      </trkpt>
      <trkpt lat="44.91266" lon="5.1446">
        <ele>784.57</ele>
        <time>2019-01-12T11:33:11Z</time>
      </trkpt>
      <trkpt lat="44.91267" lon="5.14459">
        <ele>783.13</ele>
        <time>2019-01-12T11:33:14Z</time>
      </trkpt>
      <trkpt lat="44.91273" lon="5.14455">
        <ele>781.69</ele>
        <time>2019-01-12T11:33:20Z</time>
      </trkpt>
      <trkpt lat="44.91275" lon="5.14454">
        <ele>780.73</ele>
        <time>2019-01-12T11:33:30Z</time>
      </trkpt>
      <trkpt lat="44.91276" lon="5.14454">
        <ele>785.05</ele>
        <time>2019-01-12T11:33:33Z</time>
      </trkpt>
      <trkpt lat="44.91276" lon="5.14453">
        <ele>781.69</ele>
        <time>2019-01-12T11:33:34Z</time>
      </trkpt>
      <trkpt lat="44.91276" lon="5.14452">
        <ele>780.25</ele>
        <time>2019-01-12T11:33:37Z</time>
      </trkpt>
      <trkpt lat="44.91273" lon="5.1445">
        <ele>781.21</ele>
        <time>2019-01-12T11:33:44Z</time>
      </trkpt>
      <trkpt lat="44.91263" lon="5.14445">
        <ele>784.09</ele>
        <time>2019-01-12T11:33:57Z</time>
      </trkpt>
      <trkpt lat="44.91255" lon="5.1444">
        <ele>786.98</ele>
        <time>2019-01-12T11:34:10Z</time>
      </trkpt>
      <trkpt lat="44.91248" lon="5.14432">
        <ele>789.86</ele>
        <time>2019-01-12T11:34:23Z</time>
      </trkpt>
      <trkpt lat="44.91241" lon="5.14424">
        <ele>792.26</ele>
        <time>2019-01-12T11:34:35Z</time>
      </trkpt>
      <trkpt lat="44.9124" lon="5.14423">
        <ele>792.26</ele>
        <time>2019-01-12T11:34:36Z</time>
      </trkpt>
      <trkpt lat="44.91237" lon="5.14415">
        <ele>792.74</ele>
        <time>2019-01-12T11:34:42Z</time>
      </trkpt>
      <trkpt lat="44.91237" lon="5.14413">
        <ele>792.74</ele>
        <time>2019-01-12T11:34:44Z</time>
      </trkpt>
      <trkpt lat="44.91235" lon="5.14396">
        <ele>793.22</ele>
        <time>2019-01-12T11:34:56Z</time>
      </trkpt>
      <trkpt lat="44.91235" lon="5.14391">
        <ele>792.74</ele>
        <time>2019-01-12T11:35:09Z</time>
      </trkpt>
      <trkpt lat="44.91237" lon="5.14383">
        <ele>791.78</ele>
        <time>2019-01-12T11:35:19Z</time>
      </trkpt>
      <trkpt lat="44.91237" lon="5.14382">
        <ele>792.26</ele>
        <time>2019-01-12T11:35:29Z</time>
      </trkpt>
      <trkpt lat="44.9124" lon="5.14382">
        <ele>791.3</ele>
        <time>2019-01-12T11:35:42Z</time>
      </trkpt>
      <trkpt lat="44.91242" lon="5.14381">
        <ele>790.34</ele>
        <time>2019-01-12T11:35:44Z</time>
      </trkpt>
      <trkpt lat="44.9125" lon="5.14376">
        <ele>787.46</ele>
        <time>2019-01-12T11:35:57Z</time>
      </trkpt>
      <trkpt lat="44.9125" lon="5.14375">
        <ele>789.38</ele>
        <time>2019-01-12T11:36:19Z</time>
      </trkpt>
      <trkpt lat="44.9125" lon="5.14375">
        <ele>784.57</ele>
        <time>2019-01-12T11:36:30Z</time>
      </trkpt>
      <trkpt lat="44.9125" lon="5.14375">
        <ele>790.82</ele>
        <time>2019-01-12T11:36:31Z</time>
      </trkpt>
      <trkpt lat="44.9125" lon="5.14375">
        <ele>786.02</ele>
        <time>2019-01-12T11:36:34Z</time>
      </trkpt>
      <trkpt lat="44.9125" lon="5.14375">
        <ele>790.34</ele>
        <time>2019-01-12T11:36:35Z</time>
      </trkpt>
      <trkpt lat="44.9125" lon="5.14375">
        <ele>775.92</ele>
        <time>2019-01-12T11:36:38Z</time>
      </trkpt>
      <trkpt lat="44.9125" lon="5.14375">
        <ele>785.53</ele>
        <time>2019-01-12T11:36:39Z</time>
      </trkpt>
      <trkpt lat="44.9125" lon="5.14375">
        <ele>801.88</ele>
        <time>2019-01-12T11:36:40Z</time>
      </trkpt>
      <trkpt lat="44.9125" lon="5.14375">
        <ele>786.98</ele>
        <time>2019-01-12T11:36:41Z</time>
      </trkpt>
      <trkpt lat="44.9125" lon="5.14375">
        <ele>791.78</ele>
        <time>2019-01-12T11:36:43Z</time>
      </trkpt>
      <trkpt lat="44.9125" lon="5.14375">
        <ele>779.29</ele>
        <time>2019-01-12T11:36:44Z</time>
      </trkpt>
      <trkpt lat="44.9125" lon="5.14375">
        <ele>803.32</ele>
        <time>2019-01-12T11:36:45Z</time>
      </trkpt>
      <trkpt lat="44.9125" lon="5.14375">
        <ele>788.42</ele>
        <time>2019-01-12T11:36:46Z</time>
      </trkpt>
      <trkpt lat="44.91247" lon="5.14376">
        <ele>787.46</ele>
        <time>2019-01-12T11:37:02Z</time>
      </trkpt>
      <trkpt lat="44.9125" lon="5.14373">
        <ele>785.53</ele>
        <time>2019-01-12T11:37:17Z</time>
      </trkpt>
      <trkpt lat="44.9125" lon="5.14372">
        <ele>785.05</ele>
        <time>2019-01-12T11:37:19Z</time>
      </trkpt>
      <trkpt lat="44.91258" lon="5.14366">
        <ele>781.69</ele>
        <time>2019-01-12T11:37:26Z</time>
      </trkpt>
      <trkpt lat="44.91264" lon="5.14358">
        <ele>780.25</ele>
        <time>2019-01-12T11:37:33Z</time>
      </trkpt>
      <trkpt lat="44.91265" lon="5.14356">
        <ele>779.29</ele>
        <time>2019-01-12T11:37:34Z</time>
      </trkpt>
      <trkpt lat="44.91268" lon="5.14351">
        <ele>777.36</ele>
        <time>2019-01-12T11:37:40Z</time>
      </trkpt>
      <trkpt lat="44.91274" lon="5.14346">
        <ele>775.92</ele>
        <time>2019-01-12T11:37:51Z</time>
      </trkpt>
      <trkpt lat="44.91274" lon="5.14346">
        <ele>775.92</ele>
        <time>2019-01-12T11:38:14Z</time>
      </trkpt>
      <trkpt lat="44.91279" lon="5.14341">
        <ele>773.52</ele>
        <time>2019-01-12T11:38:26Z</time>
      </trkpt>
      <trkpt lat="44.9129" lon="5.14337">
        <ele>770.15</ele>
        <time>2019-01-12T11:38:36Z</time>
      </trkpt>
      <trkpt lat="44.91294" lon="5.14332">
        <ele>766.31</ele>
        <time>2019-01-12T11:38:45Z</time>
      </trkpt>
      <trkpt lat="44.91297" lon="5.14329">
        <ele>764.39</ele>
        <time>2019-01-12T11:38:51Z</time>
      </trkpt>
      <trkpt lat="44.91302" lon="5.1432">
        <ele>761.98</ele>
        <time>2019-01-12T11:39:04Z</time>
      </trkpt>
      <trkpt lat="44.91308" lon="5.1431">
        <ele>758.62</ele>
        <time>2019-01-12T11:39:14Z</time>
      </trkpt>
      <trkpt lat="44.91308" lon="5.1431">
        <ele>758.62</ele>
        <time>2019-01-12T11:39:16Z</time>
      </trkpt>
      <trkpt lat="44.91318" lon="5.14302">
        <ele>755.25</ele>
        <time>2019-01-12T11:39:29Z</time>
      </trkpt>
      <trkpt lat="44.91321" lon="5.14297">
        <ele>752.37</ele>
        <time>2019-01-12T11:39:41Z</time>
      </trkpt>
      <trkpt lat="44.91321" lon="5.14297">
        <ele>752.37</ele>
        <time>2019-01-12T11:40:07Z</time>
      </trkpt>
      <trkpt lat="44.91322" lon="5.14296">
        <ele>752.37</ele>
        <time>2019-01-12T11:40:29Z</time>
      </trkpt>
      <trkpt lat="44.91325" lon="5.14292">
        <ele>751.89</ele>
        <time>2019-01-12T11:40:49Z</time>
      </trkpt>
      <trkpt lat="44.91331" lon="5.14288">
        <ele>748.52</ele>
        <time>2019-01-12T11:40:59Z</time>
      </trkpt>
      <trkpt lat="44.91332" lon="5.14287">
        <ele>748.52</ele>
        <time>2019-01-12T11:41:00Z</time>
      </trkpt>
      <trkpt lat="44.91337" lon="5.1428">
        <ele>745.64</ele>
        <time>2019-01-12T11:41:12Z</time>
      </trkpt>
      <trkpt lat="44.91339" lon="5.14278">
        <ele>743.72</ele>
        <time>2019-01-12T11:41:18Z</time>
      </trkpt>
      <trkpt lat="44.91343" lon="5.14272">
        <ele>741.31</ele>
        <time>2019-01-12T11:41:26Z</time>
      </trkpt>
      <trkpt lat="44.91351" lon="5.14265">
        <ele>738.43</ele>
        <time>2019-01-12T11:41:37Z</time>
      </trkpt>
      <trkpt lat="44.91354" lon="5.14263">
        <ele>738.91</ele>
        <time>2019-01-12T11:41:48Z</time>
      </trkpt>
      <trkpt lat="44.91354" lon="5.14262">
        <ele>737.95</ele>
        <time>2019-01-12T11:42:00Z</time>
      </trkpt>
      <trkpt lat="44.91354" lon="5.14262">
        <ele>738.91</ele>
        <time>2019-01-12T11:42:25Z</time>
      </trkpt>
      <trkpt lat="44.91354" lon="5.14261">
        <ele>737.95</ele>
        <time>2019-01-12T11:42:37Z</time>
      </trkpt>
      <trkpt lat="44.91357" lon="5.14255">
        <ele>736.03</ele>
        <time>2019-01-12T11:42:55Z</time>
      </trkpt>
      <trkpt lat="44.91359" lon="5.14243">
        <ele>734.1</ele>
        <time>2019-01-12T11:43:06Z</time>
      </trkpt>
      <trkpt lat="44.9136" lon="5.14228">
        <ele>730.74</ele>
        <time>2019-01-12T11:43:18Z</time>
      </trkpt>
      <trkpt lat="44.91363" lon="5.14225">
        <ele>730.74</ele>
        <time>2019-01-12T11:43:30Z</time>
      </trkpt>
      <trkpt lat="44.91363" lon="5.14226">
        <ele>731.7</ele>
        <time>2019-01-12T11:43:44Z</time>
      </trkpt>
      <trkpt lat="44.91363" lon="5.14226">
        <ele>728.34</ele>
        <time>2019-01-12T11:43:48Z</time>
      </trkpt>
      <trkpt lat="44.91363" lon="5.14226">
        <ele>734.1</ele>
        <time>2019-01-12T11:43:51Z</time>
      </trkpt>
      <trkpt lat="44.91363" lon="5.14226">
        <ele>734.1</ele>
        <time>2019-01-12T11:43:52Z</time>
      </trkpt>
      <trkpt lat="44.91363" lon="5.14226">
        <ele>726.89</ele>
        <time>2019-01-12T11:43:53Z</time>
      </trkpt>
      <trkpt lat="44.91363" lon="5.14226">
        <ele>728.34</ele>
        <time>2019-01-12T11:43:54Z</time>
      </trkpt>
      <trkpt lat="44.91363" lon="5.14226">
        <ele>743.72</ele>
        <time>2019-01-12T11:43:55Z</time>
      </trkpt>
      <trkpt lat="44.91363" lon="5.14226">
        <ele>733.62</ele>
        <time>2019-01-12T11:43:56Z</time>
      </trkpt>
      <trkpt lat="44.91362" lon="5.14227">
        <ele>732.18</ele>
        <time>2019-01-12T11:43:58Z</time>
      </trkpt>
      <trkpt lat="44.91352" lon="5.1423">
        <ele>731.7</ele>
        <time>2019-01-12T11:44:11Z</time>
      </trkpt>
      <trkpt lat="44.91347" lon="5.14233">
        <ele>735.07</ele>
        <time>2019-01-12T11:44:19Z</time>
      </trkpt>
      <trkpt lat="44.91337" lon="5.14237">
        <ele>735.07</ele>
        <time>2019-01-12T11:44:31Z</time>
      </trkpt>
      <trkpt lat="44.91337" lon="5.14238">
        <ele>735.55</ele>
        <time>2019-01-12T11:44:32Z</time>
      </trkpt>
      <trkpt lat="44.91334" lon="5.14241">
        <ele>736.99</ele>
        <time>2019-01-12T11:44:42Z</time>
      </trkpt>
      <trkpt lat="44.91329" lon="5.14241">
        <ele>738.43</ele>
        <time>2019-01-12T11:44:49Z</time>
      </trkpt>
      <trkpt lat="44.91323" lon="5.1424">
        <ele>737.95</ele>
        <time>2019-01-12T11:44:59Z</time>
      </trkpt>
      <trkpt lat="44.91317" lon="5.14242">
        <ele>739.39</ele>
        <time>2019-01-12T11:45:07Z</time>
      </trkpt>
      <trkpt lat="44.91317" lon="5.14242">
        <ele>738.91</ele>
        <time>2019-01-12T11:45:11Z</time>
      </trkpt>
      <trkpt lat="44.91317" lon="5.14243">
        <ele>738.43</ele>
        <time>2019-01-12T11:45:14Z</time>
      </trkpt>
      <trkpt lat="44.91323" lon="5.14244">
        <ele>736.51</ele>
        <time>2019-01-12T11:45:27Z</time>
      </trkpt>
      <trkpt lat="44.91323" lon="5.14244">
        <ele>742.28</ele>
        <time>2019-01-12T11:45:29Z</time>
      </trkpt>
      <trkpt lat="44.91323" lon="5.14244">
        <ele>738.91</ele>
        <time>2019-01-12T11:45:30Z</time>
      </trkpt>
      <trkpt lat="44.91323" lon="5.14244">
        <ele>735.55</ele>
        <time>2019-01-12T11:45:31Z</time>
      </trkpt>
      <trkpt lat="44.91323" lon="5.14244">
        <ele>738.91</ele>
        <time>2019-01-12T11:45:32Z</time>
      </trkpt>
      <trkpt lat="44.91324" lon="5.14243">
        <ele>732.18</ele>
        <time>2019-01-12T11:45:34Z</time>
      </trkpt>
      <trkpt lat="44.91324" lon="5.14243">
        <ele>743.72</ele>
        <time>2019-01-12T11:45:35Z</time>
      </trkpt>
      <trkpt lat="44.91325" lon="5.14242">
        <ele>738.91</ele>
        <time>2019-01-12T11:45:36Z</time>
      </trkpt>
      <trkpt lat="44.91327" lon="5.14242">
        <ele>737.95</ele>
        <time>2019-01-12T11:45:38Z</time>
      </trkpt>
      <trkpt lat="44.91328" lon="5.1424">
        <ele>737.47</ele>
        <time>2019-01-12T11:45:42Z</time>
      </trkpt>
      <trkpt lat="44.91339" lon="5.14231">
        <ele>734.1</ele>
        <time>2019-01-12T11:45:55Z</time>
      </trkpt>
      <trkpt lat="44.91341" lon="5.14231">
        <ele>734.1</ele>
        <time>2019-01-12T11:46:00Z</time>
      </trkpt>
      <trkpt lat="44.91344" lon="5.14231">
        <ele>734.1</ele>
        <time>2019-01-12T11:46:03Z</time>
      </trkpt>
      <trkpt lat="44.9135" lon="5.1423">
        <ele>733.62</ele>
        <time>2019-01-12T11:46:13Z</time>
      </trkpt>
      <trkpt lat="44.91353" lon="5.1423">
        <ele>732.66</ele>
        <time>2019-01-12T11:46:15Z</time>
      </trkpt>
      <trkpt lat="44.91361" lon="5.14228">
        <ele>731.22</ele>
        <time>2019-01-12T11:46:24Z</time>
      </trkpt>
      <trkpt lat="44.91368" lon="5.14219">
        <ele>728.34</ele>
        <time>2019-01-12T11:46:32Z</time>
      </trkpt>
      <trkpt lat="44.91371" lon="5.14214">
        <ele>726.89</ele>
        <time>2019-01-12T11:46:35Z</time>
      </trkpt>
      <trkpt lat="44.91377" lon="5.14203">
        <ele>724.97</ele>
        <time>2019-01-12T11:46:45Z</time>
      </trkpt>
      <trkpt lat="44.91381" lon="5.14198">
        <ele>723.53</ele>
        <time>2019-01-12T11:46:49Z</time>
      </trkpt>
      <trkpt lat="44.91385" lon="5.1419">
        <ele>721.61</ele>
        <time>2019-01-12T11:46:54Z</time>
      </trkpt>
      <trkpt lat="44.91387" lon="5.14186">
        <ele>720.65</ele>
        <time>2019-01-12T11:46:58Z</time>
      </trkpt>
      <trkpt lat="44.91393" lon="5.14184">
        <ele>719.2</ele>
        <time>2019-01-12T11:47:03Z</time>
      </trkpt>
      <trkpt lat="44.91395" lon="5.14182">
        <ele>718.72</ele>
        <time>2019-01-12T11:47:05Z</time>
      </trkpt>
      <trkpt lat="44.91399" lon="5.14169">
        <ele>715.36</ele>
        <time>2019-01-12T11:47:14Z</time>
      </trkpt>
      <trkpt lat="44.91399" lon="5.14168">
        <ele>714.88</ele>
        <time>2019-01-12T11:47:15Z</time>
      </trkpt>
      <trkpt lat="44.91403" lon="5.14165">
        <ele>714.4</ele>
        <time>2019-01-12T11:47:23Z</time>
      </trkpt>
      <trkpt lat="44.91403" lon="5.14168">
        <ele>714.88</ele>
        <time>2019-01-12T11:47:27Z</time>
      </trkpt>
      <trkpt lat="44.91403" lon="5.1417">
        <ele>715.36</ele>
        <time>2019-01-12T11:47:29Z</time>
      </trkpt>
      <trkpt lat="44.91403" lon="5.1417">
        <ele>715.84</ele>
        <time>2019-01-12T11:47:30Z</time>
      </trkpt>
      <trkpt lat="44.91405" lon="5.14176">
        <ele>716.32</ele>
        <time>2019-01-12T11:47:40Z</time>
      </trkpt>
      <trkpt lat="44.91404" lon="5.14177">
        <ele>717.76</ele>
        <time>2019-01-12T11:48:01Z</time>
      </trkpt>
      <trkpt lat="44.91406" lon="5.1418">
        <ele>717.28</ele>
        <time>2019-01-12T11:48:22Z</time>
      </trkpt>
      <trkpt lat="44.9141" lon="5.14176">
        <ele>714.88</ele>
        <time>2019-01-12T11:48:31Z</time>
      </trkpt>
      <trkpt lat="44.91413" lon="5.14171">
        <ele>712.47</ele>
        <time>2019-01-12T11:48:35Z</time>
      </trkpt>
      <trkpt lat="44.91417" lon="5.14169">
        <ele>711.51</ele>
        <time>2019-01-12T11:48:38Z</time>
      </trkpt>
      <trkpt lat="44.91425" lon="5.14165">
        <ele>708.15</ele>
        <time>2019-01-12T11:48:48Z</time>
      </trkpt>
      <trkpt lat="44.91427" lon="5.14164">
        <ele>707.67</ele>
        <time>2019-01-12T11:48:49Z</time>
      </trkpt>
      <trkpt lat="44.91431" lon="5.14163">
        <ele>706.23</ele>
        <time>2019-01-12T11:48:54Z</time>
      </trkpt>
      <trkpt lat="44.91432" lon="5.14157">
        <ele>704.78</ele>
        <time>2019-01-12T11:48:57Z</time>
      </trkpt>
      <trkpt lat="44.91434" lon="5.14154">
        <ele>703.82</ele>
        <time>2019-01-12T11:49:00Z</time>
      </trkpt>
      <trkpt lat="44.91438" lon="5.14147">
        <ele>701.9</ele>
        <time>2019-01-12T11:49:04Z</time>
      </trkpt>
      <trkpt lat="44.91445" lon="5.14139">
        <ele>699.02</ele>
        <time>2019-01-12T11:49:13Z</time>
      </trkpt>
      <trkpt lat="44.91446" lon="5.14138">
        <ele>699.02</ele>
        <time>2019-01-12T11:49:14Z</time>
      </trkpt>
      <trkpt lat="44.91446" lon="5.14134">
        <ele>698.05</ele>
        <time>2019-01-12T11:49:17Z</time>
      </trkpt>
      <trkpt lat="44.91445" lon="5.14128">
        <ele>696.61</ele>
        <time>2019-01-12T11:49:21Z</time>
      </trkpt>
      <trkpt lat="44.91447" lon="5.14125">
        <ele>695.17</ele>
        <time>2019-01-12T11:49:28Z</time>
      </trkpt>
      <trkpt lat="44.91446" lon="5.1412">
        <ele>693.73</ele>
        <time>2019-01-12T11:49:32Z</time>
      </trkpt>
      <trkpt lat="44.91446" lon="5.14113">
        <ele>691.81</ele>
        <time>2019-01-12T11:49:38Z</time>
      </trkpt>
      <trkpt lat="44.91439" lon="5.14106">
        <ele>687.96</ele>
        <time>2019-01-12T11:49:48Z</time>
      </trkpt>
      <trkpt lat="44.91438" lon="5.141">
        <ele>686.52</ele>
        <time>2019-01-12T11:49:59Z</time>
      </trkpt>
      <trkpt lat="44.91438" lon="5.14099">
        <ele>687.48</ele>
        <time>2019-01-12T11:50:06Z</time>
      </trkpt>
      <trkpt lat="44.91435" lon="5.14099">
        <ele>686.04</ele>
        <time>2019-01-12T11:50:17Z</time>
      </trkpt>
      <trkpt lat="44.91433" lon="5.14088">
        <ele>683.15</ele>
        <time>2019-01-12T11:50:28Z</time>
      </trkpt>
      <trkpt lat="44.91431" lon="5.14085">
        <ele>682.67</ele>
        <time>2019-01-12T11:50:40Z</time>
      </trkpt>
      <trkpt lat="44.91431" lon="5.14085">
        <ele>680.75</ele>
        <time>2019-01-12T11:50:50Z</time>
      </trkpt>
      <trkpt lat="44.91432" lon="5.14084">
        <ele>681.23</ele>
        <time>2019-01-12T11:51:17Z</time>
      </trkpt>
      <trkpt lat="44.91433" lon="5.14078">
        <ele>679.31</ele>
        <time>2019-01-12T11:51:29Z</time>
      </trkpt>
      <trkpt lat="44.91433" lon="5.1407">
        <ele>677.39</ele>
        <time>2019-01-12T11:51:35Z</time>
      </trkpt>
      <trkpt lat="44.91429" lon="5.14058">
        <ele>674.5</ele>
        <time>2019-01-12T11:51:48Z</time>
      </trkpt>
      <trkpt lat="44.91427" lon="5.14049">
        <ele>672.58</ele>
        <time>2019-01-12T11:51:56Z</time>
      </trkpt>
      <trkpt lat="44.91424" lon="5.14031">
        <ele>669.22</ele>
        <time>2019-01-12T11:52:09Z</time>
      </trkpt>
      <trkpt lat="44.91423" lon="5.14029">
        <ele>668.25</ele>
        <time>2019-01-12T11:52:11Z</time>
      </trkpt>
      <trkpt lat="44.9142" lon="5.14021">
        <ele>665.37</ele>
        <time>2019-01-12T11:52:22Z</time>
      </trkpt>
      <trkpt lat="44.91415" lon="5.14012">
        <ele>662.97</ele>
        <time>2019-01-12T11:52:33Z</time>
      </trkpt>
      <trkpt lat="44.91414" lon="5.14012">
        <ele>662.97</ele>
        <time>2019-01-12T11:52:36Z</time>
      </trkpt>
      <trkpt lat="44.91409" lon="5.14001">
        <ele>660.08</ele>
        <time>2019-01-12T11:52:47Z</time>
      </trkpt>
      <trkpt lat="44.91409" lon="5.13999">
        <ele>659.12</ele>
        <time>2019-01-12T11:52:49Z</time>
      </trkpt>
      <trkpt lat="44.91407" lon="5.13993">
        <ele>658.16</ele>
        <time>2019-01-12T11:52:54Z</time>
      </trkpt>
      <trkpt lat="44.91406" lon="5.1399">
        <ele>657.2</ele>
        <time>2019-01-12T11:52:56Z</time>
      </trkpt>
      <trkpt lat="44.91402" lon="5.13977">
        <ele>655.28</ele>
        <time>2019-01-12T11:53:05Z</time>
      </trkpt>
      <trkpt lat="44.91397" lon="5.13975">
        <ele>646.14</ele>
        <time>2019-01-12T11:53:17Z</time>
      </trkpt>
      <trkpt lat="44.91396" lon="5.13974">
        <ele>662.49</ele>
        <time>2019-01-12T11:53:18Z</time>
      </trkpt>
      <trkpt lat="44.91396" lon="5.13974">
        <ele>655.28</ele>
        <time>2019-01-12T11:53:19Z</time>
      </trkpt>
      <trkpt lat="44.91396" lon="5.13974">
        <ele>659.6</ele>
        <time>2019-01-12T11:53:22Z</time>
      </trkpt>
      <trkpt lat="44.91396" lon="5.13974">
        <ele>655.76</ele>
        <time>2019-01-12T11:53:23Z</time>
      </trkpt>
      <trkpt lat="44.91396" lon="5.13974">
        <ele>660.56</ele>
        <time>2019-01-12T11:53:27Z</time>
      </trkpt>
      <trkpt lat="44.91396" lon="5.13974">
        <ele>655.28</ele>
        <time>2019-01-12T11:53:28Z</time>
      </trkpt>
      <trkpt lat="44.91395" lon="5.13972">
        <ele>654.8</ele>
        <time>2019-01-12T11:53:44Z</time>
      </trkpt>
      <trkpt lat="44.91393" lon="5.13972">
        <ele>655.28</ele>
        <time>2019-01-12T11:53:57Z</time>
      </trkpt>
      <trkpt lat="44.91393" lon="5.13972">
        <ele>656.24</ele>
        <time>2019-01-12T11:54:22Z</time>
      </trkpt>
      <trkpt lat="44.91389" lon="5.13973">
        <ele>656.24</ele>
        <time>2019-01-12T11:54:34Z</time>
      </trkpt>
      <trkpt lat="44.91389" lon="5.13973">
        <ele>655.28</ele>
        <time>2019-01-12T11:54:54Z</time>
      </trkpt>
      <trkpt lat="44.91388" lon="5.13972">
        <ele>655.76</ele>
        <time>2019-01-12T11:55:16Z</time>
      </trkpt>
      <trkpt lat="44.91388" lon="5.13972">
        <ele>656.24</ele>
        <time>2019-01-12T11:55:38Z</time>
      </trkpt>
      <trkpt lat="44.91387" lon="5.13973">
        <ele>656.72</ele>
        <time>2019-01-12T11:55:47Z</time>
      </trkpt>
      <trkpt lat="44.91378" lon="5.1398">
        <ele>657.2</ele>
        <time>2019-01-12T11:55:57Z</time>
      </trkpt>
      <trkpt lat="44.9137" lon="5.13981">
        <ele>660.08</ele>
        <time>2019-01-12T11:56:09Z</time>
      </trkpt>
      <trkpt lat="44.91361" lon="5.13985">
        <ele>662.01</ele>
        <time>2019-01-12T11:56:22Z</time>
      </trkpt>
      <trkpt lat="44.91349" lon="5.13992">
        <ele>662.49</ele>
        <time>2019-01-12T11:56:33Z</time>
      </trkpt>
      <trkpt lat="44.91345" lon="5.13992">
        <ele>662.97</ele>
        <time>2019-01-12T11:56:43Z</time>
      </trkpt>
      <trkpt lat="44.9134" lon="5.13988">
        <ele>664.41</ele>
        <time>2019-01-12T11:56:48Z</time>
      </trkpt>
      <trkpt lat="44.91337" lon="5.13987">
        <ele>663.93</ele>
        <time>2019-01-12T11:56:50Z</time>
      </trkpt>
      <trkpt lat="44.91327" lon="5.13985">
        <ele>662.49</ele>
        <time>2019-01-12T11:56:58Z</time>
      </trkpt>
      <trkpt lat="44.9132" lon="5.13987">
        <ele>662.49</ele>
        <time>2019-01-12T11:57:03Z</time>
      </trkpt>
      <trkpt lat="44.91314" lon="5.13989">
        <ele>663.45</ele>
        <time>2019-01-12T11:57:09Z</time>
      </trkpt>
      <trkpt lat="44.91303" lon="5.1399">
        <ele>665.85</ele>
        <time>2019-01-12T11:57:19Z</time>
      </trkpt>
      <trkpt lat="44.91301" lon="5.1399">
        <ele>666.81</ele>
        <time>2019-01-12T11:57:22Z</time>
      </trkpt>
      <trkpt lat="44.91297" lon="5.13992">
        <ele>667.77</ele>
        <time>2019-01-12T11:57:26Z</time>
      </trkpt>
      <trkpt lat="44.91295" lon="5.13994">
        <ele>667.29</ele>
        <time>2019-01-12T11:57:40Z</time>
      </trkpt>
      <trkpt lat="44.91286" lon="5.13997">
        <ele>666.81</ele>
        <time>2019-01-12T11:57:50Z</time>
      </trkpt>
      <trkpt lat="44.91278" lon="5.13986">
        <ele>667.77</ele>
        <time>2019-01-12T11:58:02Z</time>
      </trkpt>
      <trkpt lat="44.91269" lon="5.1398">
        <ele>665.85</ele>
        <time>2019-01-12T11:58:14Z</time>
      </trkpt>
      <trkpt lat="44.91267" lon="5.13979">
        <ele>665.85</ele>
        <time>2019-01-12T11:58:17Z</time>
      </trkpt>
      <trkpt lat="44.91262" lon="5.13977">
        <ele>665.37</ele>
        <time>2019-01-12T11:58:20Z</time>
      </trkpt>
      <trkpt lat="44.91247" lon="5.13979">
        <ele>663.45</ele>
        <time>2019-01-12T11:58:35Z</time>
      </trkpt>
      <trkpt lat="44.91248" lon="5.13972">
        <ele>663.45</ele>
        <time>2019-01-12T11:58:40Z</time>
      </trkpt>
      <trkpt lat="44.91248" lon="5.13966">
        <ele>663.45</ele>
        <time>2019-01-12T11:58:44Z</time>
      </trkpt>
      <trkpt lat="44.91243" lon="5.13957">
        <ele>663.93</ele>
        <time>2019-01-12T11:58:49Z</time>
      </trkpt>
      <trkpt lat="44.91242" lon="5.13955">
        <ele>663.93</ele>
        <time>2019-01-12T11:58:51Z</time>
      </trkpt>
      <trkpt lat="44.91228" lon="5.13941">
        <ele>663.45</ele>
        <time>2019-01-12T11:59:06Z</time>
      </trkpt>
      <trkpt lat="44.91225" lon="5.1394">
        <ele>662.97</ele>
        <time>2019-01-12T11:59:08Z</time>
      </trkpt>
      <trkpt lat="44.91213" lon="5.13935">
        <ele>661.52</ele>
        <time>2019-01-12T11:59:22Z</time>
      </trkpt>
      <trkpt lat="44.91205" lon="5.13934">
        <ele>659.6</ele>
        <time>2019-01-12T11:59:33Z</time>
      </trkpt>
      <trkpt lat="44.91196" lon="5.13935">
        <ele>656.72</ele>
        <time>2019-01-12T11:59:44Z</time>
      </trkpt>
      <trkpt lat="44.91193" lon="5.13935">
        <ele>655.76</ele>
        <time>2019-01-12T11:59:49Z</time>
      </trkpt>
      <trkpt lat="44.91186" lon="5.13934">
        <ele>654.31</ele>
        <time>2019-01-12T11:59:55Z</time>
      </trkpt>
      <trkpt lat="44.91182" lon="5.13933">
        <ele>652.87</ele>
        <time>2019-01-12T11:59:59Z</time>
      </trkpt>
      <trkpt lat="44.91167" lon="5.13936">
        <ele>651.43</ele>
        <time>2019-01-12T12:00:12Z</time>
      </trkpt>
      <trkpt lat="44.91161" lon="5.13936">
        <ele>650.47</ele>
        <time>2019-01-12T12:00:17Z</time>
      </trkpt>
      <trkpt lat="44.91157" lon="5.13936">
        <ele>649.51</ele>
        <time>2019-01-12T12:00:20Z</time>
      </trkpt>
      <trkpt lat="44.91144" lon="5.13942">
        <ele>648.07</ele>
        <time>2019-01-12T12:00:32Z</time>
      </trkpt>
      <trkpt lat="44.91143" lon="5.13944">
        <ele>648.07</ele>
        <time>2019-01-12T12:00:34Z</time>
      </trkpt>
      <trkpt lat="44.91132" lon="5.13946">
        <ele>646.62</ele>
        <time>2019-01-12T12:00:44Z</time>
      </trkpt>
      <trkpt lat="44.91117" lon="5.13955">
        <ele>647.1</ele>
        <time>2019-01-12T12:00:58Z</time>
      </trkpt>
      <trkpt lat="44.91114" lon="5.13958">
        <ele>647.1</ele>
        <time>2019-01-12T12:01:00Z</time>
      </trkpt>
      <trkpt lat="44.9111" lon="5.13962">
        <ele>647.1</ele>
        <time>2019-01-12T12:01:05Z</time>
      </trkpt>
      <trkpt lat="44.91101" lon="5.13972">
        <ele>646.14</ele>
        <time>2019-01-12T12:01:18Z</time>
      </trkpt>
      <trkpt lat="44.91101" lon="5.13972">
        <ele>646.14</ele>
        <time>2019-01-12T12:01:19Z</time>
      </trkpt>
      <trkpt lat="44.91093" lon="5.13975">
        <ele>645.66</ele>
        <time>2019-01-12T12:01:25Z</time>
      </trkpt>
      <trkpt lat="44.91089" lon="5.13974">
        <ele>645.18</ele>
        <time>2019-01-12T12:01:35Z</time>
      </trkpt>
      <trkpt lat="44.91089" lon="5.13974">
        <ele>645.18</ele>
        <time>2019-01-12T12:01:39Z</time>
      </trkpt>
      <trkpt lat="44.91089" lon="5.13974">
        <ele>638.45</ele>
        <time>2019-01-12T12:01:47Z</time>
      </trkpt>
      <trkpt lat="44.91089" lon="5.13974">
        <ele>650.95</ele>
        <time>2019-01-12T12:01:48Z</time>
      </trkpt>
      <trkpt lat="44.91089" lon="5.13974">
        <ele>644.22</ele>
        <time>2019-01-12T12:01:49Z</time>
      </trkpt>
      <trkpt lat="44.91089" lon="5.13974">
        <ele>650.47</ele>
        <time>2019-01-12T12:01:52Z</time>
      </trkpt>
      <trkpt lat="44.91089" lon="5.13974">
        <ele>642.3</ele>
        <time>2019-01-12T12:01:53Z</time>
      </trkpt>
      <trkpt lat="44.91089" lon="5.13974">
        <ele>650.95</ele>
        <time>2019-01-12T12:01:54Z</time>
      </trkpt>
      <trkpt lat="44.91089" lon="5.13974">
        <ele>645.18</ele>
        <time>2019-01-12T12:01:55Z</time>
      </trkpt>
      <trkpt lat="44.91089" lon="5.13974">
        <ele>637.49</ele>
        <time>2019-01-12T12:01:56Z</time>
      </trkpt>
      <trkpt lat="44.91089" lon="5.13974">
        <ele>650.47</ele>
        <time>2019-01-12T12:01:57Z</time>
      </trkpt>
      <trkpt lat="44.91089" lon="5.13974">
        <ele>632.68</ele>
        <time>2019-01-12T12:01:58Z</time>
      </trkpt>
      <trkpt lat="44.91089" lon="5.13974">
        <ele>654.31</ele>
        <time>2019-01-12T12:01:59Z</time>
      </trkpt>
      <trkpt lat="44.91089" lon="5.13974">
        <ele>627.88</ele>
        <time>2019-01-12T12:02:00Z</time>
      </trkpt>
      <trkpt lat="44.91089" lon="5.13974">
        <ele>663.45</ele>
        <time>2019-01-12T12:02:01Z</time>
      </trkpt>
      <trkpt lat="44.91088" lon="5.13974">
        <ele>636.53</ele>
        <time>2019-01-12T12:02:02Z</time>
      </trkpt>
      <trkpt lat="44.91088" lon="5.13974">
        <ele>652.39</ele>
        <time>2019-01-12T12:02:03Z</time>
      </trkpt>
      <trkpt lat="44.91086" lon="5.13974">
        <ele>645.66</ele>
        <time>2019-01-12T12:02:04Z</time>
      </trkpt>
      <trkpt lat="44.91086" lon="5.13974">
        <ele>635.57</ele>
        <time>2019-01-12T12:02:05Z</time>
      </trkpt>
      <trkpt lat="44.91086" lon="5.13974">
        <ele>635.57</ele>
        <time>2019-01-12T12:02:06Z</time>
      </trkpt>
      <trkpt lat="44.91086" lon="5.13974">
        <ele>638.93</ele>
        <time>2019-01-12T12:02:07Z</time>
      </trkpt>
      <trkpt lat="44.91086" lon="5.13974">
        <ele>660.08</ele>
        <time>2019-01-12T12:02:08Z</time>
      </trkpt>
      <trkpt lat="44.91086" lon="5.13974">
        <ele>648.07</ele>
        <time>2019-01-12T12:02:09Z</time>
      </trkpt>
      <trkpt lat="44.91086" lon="5.13974">
        <ele>623.07</ele>
        <time>2019-01-12T12:02:10Z</time>
      </trkpt>
      <trkpt lat="44.91085" lon="5.13974">
        <ele>665.37</ele>
        <time>2019-01-12T12:02:11Z</time>
      </trkpt>
      <trkpt lat="44.91084" lon="5.13975">
        <ele>646.62</ele>
        <time>2019-01-12T12:02:12Z</time>
      </trkpt>
      <trkpt lat="44.91083" lon="5.13975">
        <ele>623.07</ele>
        <time>2019-01-12T12:02:14Z</time>
      </trkpt>
      <trkpt lat="44.91083" lon="5.13975">
        <ele>668.73</ele>
        <time>2019-01-12T12:02:15Z</time>
      </trkpt>
      <trkpt lat="44.91082" lon="5.13975">
        <ele>636.05</ele>
        <time>2019-01-12T12:02:16Z</time>
      </trkpt>
      <trkpt lat="44.91083" lon="5.13975">
        <ele>654.31</ele>
        <time>2019-01-12T12:02:17Z</time>
      </trkpt>
      <trkpt lat="44.91083" lon="5.13975">
        <ele>648.55</ele>
        <time>2019-01-12T12:02:18Z</time>
      </trkpt>
      <trkpt lat="44.91083" lon="5.13975">
        <ele>645.66</ele>
        <time>2019-01-12T12:02:20Z</time>
      </trkpt>
      <trkpt lat="44.91083" lon="5.13975">
        <ele>642.3</ele>
        <time>2019-01-12T12:02:30Z</time>
      </trkpt>
      <trkpt lat="44.91083" lon="5.13975">
        <ele>648.55</ele>
        <time>2019-01-12T12:02:31Z</time>
      </trkpt>
      <trkpt lat="44.91083" lon="5.13975">
        <ele>645.66</ele>
        <time>2019-01-12T12:02:32Z</time>
      </trkpt>
      <trkpt lat="44.91083" lon="5.13975">
        <ele>645.66</ele>
        <time>2019-01-12T12:02:40Z</time>
      </trkpt>
      <trkpt lat="44.91085" lon="5.13969">
        <ele>645.18</ele>
        <time>2019-01-12T12:02:46Z</time>
      </trkpt>
      <trkpt lat="44.91086" lon="5.13963">
        <ele>644.22</ele>
        <time>2019-01-12T12:02:50Z</time>
      </trkpt>
      <trkpt lat="44.91084" lon="5.1396">
        <ele>643.74</ele>
        <time>2019-01-12T12:02:53Z</time>
      </trkpt>
      <trkpt lat="44.91089" lon="5.13952">
        <ele>643.26</ele>
        <time>2019-01-12T12:02:58Z</time>
      </trkpt>
      <trkpt lat="44.91088" lon="5.13942">
        <ele>643.26</ele>
        <time>2019-01-12T12:03:04Z</time>
      </trkpt>
      <trkpt lat="44.9109" lon="5.13938">
        <ele>643.26</ele>
        <time>2019-01-12T12:03:07Z</time>
      </trkpt>
      <trkpt lat="44.9109" lon="5.13929">
        <ele>642.78</ele>
        <time>2019-01-12T12:03:19Z</time>
      </trkpt>
      <trkpt lat="44.91089" lon="5.13923">
        <ele>642.3</ele>
        <time>2019-01-12T12:03:24Z</time>
      </trkpt>
      <trkpt lat="44.91087" lon="5.13917">
        <ele>641.82</ele>
        <time>2019-01-12T12:03:28Z</time>
      </trkpt>
      <trkpt lat="44.91082" lon="5.13909">
        <ele>641.82</ele>
        <time>2019-01-12T12:03:31Z</time>
      </trkpt>
      <trkpt lat="44.91058" lon="5.13885">
        <ele>641.82</ele>
        <time>2019-01-12T12:03:43Z</time>
      </trkpt>
      <trkpt lat="44.91054" lon="5.13878">
        <ele>641.34</ele>
        <time>2019-01-12T12:03:49Z</time>
      </trkpt>
      <trkpt lat="44.9105" lon="5.13859">
        <ele>639.89</ele>
        <time>2019-01-12T12:04:01Z</time>
      </trkpt>
      <trkpt lat="44.91047" lon="5.13831">
        <ele>638.45</ele>
        <time>2019-01-12T12:04:16Z</time>
      </trkpt>
      <trkpt lat="44.91047" lon="5.13815">
        <ele>638.45</ele>
        <time>2019-01-12T12:04:30Z</time>
      </trkpt>
      <trkpt lat="44.91047" lon="5.13815">
        <ele>638.45</ele>
        <time>2019-01-12T12:04:31Z</time>
      </trkpt>
      <trkpt lat="44.91041" lon="5.1379">
        <ele>638.93</ele>
        <time>2019-01-12T12:04:42Z</time>
      </trkpt>
      <trkpt lat="44.9104" lon="5.13786">
        <ele>638.93</ele>
        <time>2019-01-12T12:04:44Z</time>
      </trkpt>
      <trkpt lat="44.91038" lon="5.13772">
        <ele>636.53</ele>
        <time>2019-01-12T12:04:55Z</time>
      </trkpt>
      <trkpt lat="44.91038" lon="5.13771">
        <ele>636.05</ele>
        <time>2019-01-12T12:04:56Z</time>
      </trkpt>
      <trkpt lat="44.91037" lon="5.1377">
        <ele>635.09</ele>
        <time>2019-01-12T12:05:10Z</time>
      </trkpt>
      <trkpt lat="44.91037" lon="5.13763">
        <ele>635.09</ele>
        <time>2019-01-12T12:05:24Z</time>
      </trkpt>
      <trkpt lat="44.91038" lon="5.13759">
        <ele>632.68</ele>
        <time>2019-01-12T12:05:31Z</time>
      </trkpt>
      <trkpt lat="44.91038" lon="5.13759">
        <ele>632.2</ele>
        <time>2019-01-12T12:05:32Z</time>
      </trkpt>
      <trkpt lat="44.91041" lon="5.13747">
        <ele>630.76</ele>
        <time>2019-01-12T12:05:45Z</time>
      </trkpt>
      <trkpt lat="44.91042" lon="5.13732">
        <ele>630.76</ele>
        <time>2019-01-12T12:05:52Z</time>
      </trkpt>
      <trkpt lat="44.91042" lon="5.13729">
        <ele>630.76</ele>
        <time>2019-01-12T12:06:07Z</time>
      </trkpt>
      <trkpt lat="44.9104" lon="5.13748">
        <ele>631.24</ele>
        <time>2019-01-12T12:06:14Z</time>
      </trkpt>
      <trkpt lat="44.91045" lon="5.13758">
        <ele>633.17</ele>
        <time>2019-01-12T12:06:18Z</time>
      </trkpt>
      <trkpt lat="44.91047" lon="5.13766">
        <ele>631.72</ele>
        <time>2019-01-12T12:06:23Z</time>
      </trkpt>
      <trkpt lat="44.91042" lon="5.13762">
        <ele>631.72</ele>
        <time>2019-01-12T12:06:27Z</time>
      </trkpt>
      <trkpt lat="44.9104" lon="5.1375">
        <ele>631.72</ele>
        <time>2019-01-12T12:06:35Z</time>
      </trkpt>
      <trkpt lat="44.9104" lon="5.13746">
        <ele>631.24</ele>
        <time>2019-01-12T12:06:37Z</time>
      </trkpt>
      <trkpt lat="44.91047" lon="5.1372">
        <ele>632.2</ele>
        <time>2019-01-12T12:06:49Z</time>
      </trkpt>
      <trkpt lat="44.91047" lon="5.13701">
        <ele>632.68</ele>
        <time>2019-01-12T12:06:59Z</time>
      </trkpt>
      <trkpt lat="44.9105" lon="5.13693">
        <ele>631.72</ele>
        <time>2019-01-12T12:07:03Z</time>
      </trkpt>
      <trkpt lat="44.9105" lon="5.13679">
        <ele>630.28</ele>
        <time>2019-01-12T12:07:10Z</time>
      </trkpt>
      <trkpt lat="44.91051" lon="5.13667">
        <ele>627.88</ele>
        <time>2019-01-12T12:07:18Z</time>
      </trkpt>
      <trkpt lat="44.91047" lon="5.13647">
        <ele>625.47</ele>
        <time>2019-01-12T12:07:27Z</time>
      </trkpt>
      <trkpt lat="44.91046" lon="5.1364">
        <ele>624.03</ele>
        <time>2019-01-12T12:07:32Z</time>
      </trkpt>
      <trkpt lat="44.91047" lon="5.13628">
        <ele>622.11</ele>
        <time>2019-01-12T12:07:39Z</time>
      </trkpt>
      <trkpt lat="44.91045" lon="5.13618">
        <ele>620.19</ele>
        <time>2019-01-12T12:07:47Z</time>
      </trkpt>
      <trkpt lat="44.9104" lon="5.13608">
        <ele>618.26</ele>
        <time>2019-01-12T12:07:53Z</time>
      </trkpt>
      <trkpt lat="44.91041" lon="5.13604">
        <ele>617.78</ele>
        <time>2019-01-12T12:07:55Z</time>
      </trkpt>
      <trkpt lat="44.91042" lon="5.13598">
        <ele>616.82</ele>
        <time>2019-01-12T12:07:58Z</time>
      </trkpt>
      <trkpt lat="44.91041" lon="5.13593">
        <ele>616.34</ele>
        <time>2019-01-12T12:08:01Z</time>
      </trkpt>
      <trkpt lat="44.91042" lon="5.13585">
        <ele>615.38</ele>
        <time>2019-01-12T12:08:05Z</time>
      </trkpt>
      <trkpt lat="44.91039" lon="5.13572">
        <ele>612.98</ele>
        <time>2019-01-12T12:08:13Z</time>
      </trkpt>
      <trkpt lat="44.9104" lon="5.13567">
        <ele>612.98</ele>
        <time>2019-01-12T12:08:16Z</time>
      </trkpt>
      <trkpt lat="44.91042" lon="5.13559">
        <ele>611.54</ele>
        <time>2019-01-12T12:08:21Z</time>
      </trkpt>
      <trkpt lat="44.91042" lon="5.13542">
        <ele>610.57</ele>
        <time>2019-01-12T12:08:33Z</time>
      </trkpt>
      <trkpt lat="44.91041" lon="5.13542">
        <ele>610.09</ele>
        <time>2019-01-12T12:08:55Z</time>
      </trkpt>
      <trkpt lat="44.91041" lon="5.13542">
        <ele>608.65</ele>
        <time>2019-01-12T12:09:15Z</time>
      </trkpt>
      <trkpt lat="44.91041" lon="5.13542">
        <ele>609.13</ele>
        <time>2019-01-12T12:09:17Z</time>
      </trkpt>
      <trkpt lat="44.91043" lon="5.13525">
        <ele>606.73</ele>
        <time>2019-01-12T12:09:30Z</time>
      </trkpt>
      <trkpt lat="44.91043" lon="5.13523">
        <ele>606.73</ele>
        <time>2019-01-12T12:09:31Z</time>
      </trkpt>
      <trkpt lat="44.91042" lon="5.13518">
        <ele>605.77</ele>
        <time>2019-01-12T12:09:34Z</time>
      </trkpt>
      <trkpt lat="44.91043" lon="5.1351">
        <ele>605.77</ele>
        <time>2019-01-12T12:09:44Z</time>
      </trkpt>
      <trkpt lat="44.91043" lon="5.13509">
        <ele>606.73</ele>
        <time>2019-01-12T12:10:00Z</time>
      </trkpt>
      <trkpt lat="44.91043" lon="5.13506">
        <ele>604.81</ele>
        <time>2019-01-12T12:10:02Z</time>
      </trkpt>
      <trkpt lat="44.91044" lon="5.13484">
        <ele>602.4</ele>
        <time>2019-01-12T12:10:13Z</time>
      </trkpt>
      <trkpt lat="44.91044" lon="5.1347">
        <ele>600.48</ele>
        <time>2019-01-12T12:10:22Z</time>
      </trkpt>
      <trkpt lat="44.91043" lon="5.13463">
        <ele>599.04</ele>
        <time>2019-01-12T12:10:28Z</time>
      </trkpt>
      <trkpt lat="44.91042" lon="5.13457">
        <ele>598.08</ele>
        <time>2019-01-12T12:10:32Z</time>
      </trkpt>
      <trkpt lat="44.91044" lon="5.13446">
        <ele>596.64</ele>
        <time>2019-01-12T12:10:42Z</time>
      </trkpt>
      <trkpt lat="44.91043" lon="5.13444">
        <ele>595.67</ele>
        <time>2019-01-12T12:10:48Z</time>
      </trkpt>
      <trkpt lat="44.91043" lon="5.13437">
        <ele>595.19</ele>
        <time>2019-01-12T12:10:53Z</time>
      </trkpt>
      <trkpt lat="44.91044" lon="5.13426">
        <ele>593.27</ele>
        <time>2019-01-12T12:11:01Z</time>
      </trkpt>
      <trkpt lat="44.91047" lon="5.13415">
        <ele>592.31</ele>
        <time>2019-01-12T12:11:09Z</time>
      </trkpt>
      <trkpt lat="44.91043" lon="5.13399">
        <ele>590.39</ele>
        <time>2019-01-12T12:11:17Z</time>
      </trkpt>
      <trkpt lat="44.91042" lon="5.13392">
        <ele>588.46</ele>
        <time>2019-01-12T12:11:28Z</time>
      </trkpt>
      <trkpt lat="44.91041" lon="5.13385">
        <ele>588.46</ele>
        <time>2019-01-12T12:11:35Z</time>
      </trkpt>
      <trkpt lat="44.91042" lon="5.1339">
        <ele>587.98</ele>
        <time>2019-01-12T12:11:40Z</time>
      </trkpt>
      <trkpt lat="44.91044" lon="5.13402">
        <ele>590.39</ele>
        <time>2019-01-12T12:11:52Z</time>
      </trkpt>
      <trkpt lat="44.91044" lon="5.13402">
        <ele>594.23</ele>
        <time>2019-01-12T12:11:59Z</time>
      </trkpt>
      <trkpt lat="44.91044" lon="5.13404">
        <ele>590.39</ele>
        <time>2019-01-12T12:12:05Z</time>
      </trkpt>
      <trkpt lat="44.91044" lon="5.13391">
        <ele>588.95</ele>
        <time>2019-01-12T12:12:12Z</time>
      </trkpt>
      <trkpt lat="44.91042" lon="5.13388">
        <ele>588.46</ele>
        <time>2019-01-12T12:12:14Z</time>
      </trkpt>
      <trkpt lat="44.91039" lon="5.13379">
        <ele>587.5</ele>
        <time>2019-01-12T12:12:20Z</time>
      </trkpt>
      <trkpt lat="44.91041" lon="5.13389">
        <ele>588.46</ele>
        <time>2019-01-12T12:12:27Z</time>
      </trkpt>
      <trkpt lat="44.91042" lon="5.13395">
        <ele>589.43</ele>
        <time>2019-01-12T12:12:30Z</time>
      </trkpt>
      <trkpt lat="44.91043" lon="5.13402">
        <ele>590.87</ele>
        <time>2019-01-12T12:12:36Z</time>
      </trkpt>
      <trkpt lat="44.91039" lon="5.1341">
        <ele>590.87</ele>
        <time>2019-01-12T12:12:45Z</time>
      </trkpt>
      <trkpt lat="44.91035" lon="5.13415">
        <ele>589.91</ele>
        <time>2019-01-12T12:12:50Z</time>
      </trkpt>
      <trkpt lat="44.91028" lon="5.13428">
        <ele>588.95</ele>
        <time>2019-01-12T12:13:02Z</time>
      </trkpt>
      <trkpt lat="44.91027" lon="5.13429">
        <ele>588.95</ele>
        <time>2019-01-12T12:13:03Z</time>
      </trkpt>
      <trkpt lat="44.91024" lon="5.13439">
        <ele>588.95</ele>
        <time>2019-01-12T12:13:11Z</time>
      </trkpt>
      <trkpt lat="44.9102" lon="5.13448">
        <ele>588.95</ele>
        <time>2019-01-12T12:13:18Z</time>
      </trkpt>
      <trkpt lat="44.91019" lon="5.13453">
        <ele>588.46</ele>
        <time>2019-01-12T12:13:21Z</time>
      </trkpt>
      <trkpt lat="44.91012" lon="5.13476">
        <ele>587.02</ele>
        <time>2019-01-12T12:13:36Z</time>
      </trkpt>
      <trkpt lat="44.91006" lon="5.13492">
        <ele>587.02</ele>
        <time>2019-01-12T12:13:45Z</time>
      </trkpt>
      <trkpt lat="44.91" lon="5.13499">
        <ele>586.06</ele>
        <time>2019-01-12T12:13:57Z</time>
      </trkpt>
      <trkpt lat="44.90994" lon="5.13503">
        <ele>584.62</ele>
        <time>2019-01-12T12:14:06Z</time>
      </trkpt>
      <trkpt lat="44.90993" lon="5.13504">
        <ele>584.62</ele>
        <time>2019-01-12T12:14:15Z</time>
      </trkpt>
      <trkpt lat="44.90991" lon="5.13501">
        <ele>583.18</ele>
        <time>2019-01-12T12:14:21Z</time>
      </trkpt>
      <trkpt lat="44.90988" lon="5.13494">
        <ele>581.73</ele>
        <time>2019-01-12T12:14:31Z</time>
      </trkpt>
      <trkpt lat="44.90992" lon="5.13488">
        <ele>579.81</ele>
        <time>2019-01-12T12:14:43Z</time>
      </trkpt>
      <trkpt lat="44.90988" lon="5.13476">
        <ele>577.89</ele>
        <time>2019-01-12T12:14:54Z</time>
      </trkpt>
      <trkpt lat="44.90988" lon="5.13475">
        <ele>578.37</ele>
        <time>2019-01-12T12:15:03Z</time>
      </trkpt>
      <trkpt lat="44.90984" lon="5.13469">
        <ele>576.45</ele>
        <time>2019-01-12T12:15:13Z</time>
      </trkpt>
      <trkpt lat="44.90981" lon="5.13464">
        <ele>574.53</ele>
        <time>2019-01-12T12:15:24Z</time>
      </trkpt>
      <trkpt lat="44.90981" lon="5.1346">
        <ele>573.08</ele>
        <time>2019-01-12T12:15:28Z</time>
      </trkpt>
      <trkpt lat="44.90978" lon="5.13452">
        <ele>571.16</ele>
        <time>2019-01-12T12:15:40Z</time>
      </trkpt>
      <trkpt lat="44.90973" lon="5.13448">
        <ele>569.72</ele>
        <time>2019-01-12T12:15:53Z</time>
      </trkpt>
      <trkpt lat="44.90968" lon="5.1345">
        <ele>568.28</ele>
        <time>2019-01-12T12:15:59Z</time>
      </trkpt>
      <trkpt lat="44.90965" lon="5.13453">
        <ele>567.32</ele>
        <time>2019-01-12T12:16:02Z</time>
      </trkpt>
      <trkpt lat="44.90959" lon="5.13457">
        <ele>564.91</ele>
        <time>2019-01-12T12:16:10Z</time>
      </trkpt>
      <trkpt lat="44.90951" lon="5.13459">
        <ele>562.51</ele>
        <time>2019-01-12T12:16:21Z</time>
      </trkpt>
      <trkpt lat="44.90949" lon="5.13459">
        <ele>562.03</ele>
        <time>2019-01-12T12:16:22Z</time>
      </trkpt>
      <trkpt lat="44.90946" lon="5.13467">
        <ele>561.07</ele>
        <time>2019-01-12T12:16:30Z</time>
      </trkpt>
      <trkpt lat="44.90943" lon="5.13468">
        <ele>560.59</ele>
        <time>2019-01-12T12:16:32Z</time>
      </trkpt>
      <trkpt lat="44.90938" lon="5.13467">
        <ele>558.66</ele>
        <time>2019-01-12T12:16:41Z</time>
      </trkpt>
      <trkpt lat="44.90936" lon="5.13472">
        <ele>557.7</ele>
        <time>2019-01-12T12:16:45Z</time>
      </trkpt>
      <trkpt lat="44.9093" lon="5.1348">
        <ele>556.26</ele>
        <time>2019-01-12T12:16:52Z</time>
      </trkpt>
      <trkpt lat="44.90925" lon="5.13484">
        <ele>554.82</ele>
        <time>2019-01-12T12:17:02Z</time>
      </trkpt>
      <trkpt lat="44.90921" lon="5.13491">
        <ele>553.38</ele>
        <time>2019-01-12T12:17:10Z</time>
      </trkpt>
      <trkpt lat="44.90919" lon="5.13491">
        <ele>552.9</ele>
        <time>2019-01-12T12:17:12Z</time>
      </trkpt>
      <trkpt lat="44.90911" lon="5.13492">
        <ele>551.93</ele>
        <time>2019-01-12T12:17:23Z</time>
      </trkpt>
      <trkpt lat="44.90911" lon="5.13492">
        <ele>546.17</ele>
        <time>2019-01-12T12:17:25Z</time>
      </trkpt>
      <trkpt lat="44.90911" lon="5.13492">
        <ele>553.86</ele>
        <time>2019-01-12T12:17:26Z</time>
      </trkpt>
      <trkpt lat="44.90911" lon="5.13492">
        <ele>550.49</ele>
        <time>2019-01-12T12:17:27Z</time>
      </trkpt>
      <trkpt lat="44.90911" lon="5.13492">
        <ele>553.86</ele>
        <time>2019-01-12T12:17:28Z</time>
      </trkpt>
      <trkpt lat="44.90911" lon="5.13492">
        <ele>548.09</ele>
        <time>2019-01-12T12:17:29Z</time>
      </trkpt>
      <trkpt lat="44.90911" lon="5.13492">
        <ele>558.18</ele>
        <time>2019-01-12T12:17:30Z</time>
      </trkpt>
      <trkpt lat="44.90911" lon="5.13492">
        <ele>551.93</ele>
        <time>2019-01-12T12:17:31Z</time>
      </trkpt>
      <trkpt lat="44.90911" lon="5.13492">
        <ele>537.51</ele>
        <time>2019-01-12T12:17:32Z</time>
      </trkpt>
      <trkpt lat="44.90911" lon="5.13492">
        <ele>561.55</ele>
        <time>2019-01-12T12:17:33Z</time>
      </trkpt>
      <trkpt lat="44.90911" lon="5.13492">
        <ele>551.93</ele>
        <time>2019-01-12T12:17:34Z</time>
      </trkpt>
      <trkpt lat="44.9091" lon="5.13491">
        <ele>551.45</ele>
        <time>2019-01-12T12:17:51Z</time>
      </trkpt>
      <trkpt lat="44.9091" lon="5.13487">
        <ele>550.49</ele>
        <time>2019-01-12T12:18:12Z</time>
      </trkpt>
      <trkpt lat="44.90908" lon="5.13478">
        <ele>549.05</ele>
        <time>2019-01-12T12:18:24Z</time>
      </trkpt>
      <trkpt lat="44.90909" lon="5.13469">
        <ele>548.09</ele>
        <time>2019-01-12T12:18:35Z</time>
      </trkpt>
      <trkpt lat="44.90908" lon="5.13469">
        <ele>542.8</ele>
        <time>2019-01-12T12:18:44Z</time>
      </trkpt>
      <trkpt lat="44.90908" lon="5.13469">
        <ele>551.93</ele>
        <time>2019-01-12T12:18:45Z</time>
      </trkpt>
      <trkpt lat="44.90908" lon="5.13469">
        <ele>547.13</ele>
        <time>2019-01-12T12:18:46Z</time>
      </trkpt>
      <trkpt lat="44.90904" lon="5.13462">
        <ele>547.13</ele>
        <time>2019-01-12T12:18:58Z</time>
      </trkpt>
      <trkpt lat="44.90902" lon="5.13458">
        <ele>546.65</ele>
        <time>2019-01-12T12:19:10Z</time>
      </trkpt>
      <trkpt lat="44.909" lon="5.13449">
        <ele>545.69</ele>
        <time>2019-01-12T12:19:21Z</time>
      </trkpt>
      <trkpt lat="44.90899" lon="5.1345">
        <ele>545.2</ele>
        <time>2019-01-12T12:19:34Z</time>
      </trkpt>
      <trkpt lat="44.90896" lon="5.13452">
        <ele>546.65</ele>
        <time>2019-01-12T12:19:47Z</time>
      </trkpt>
      <trkpt lat="44.90896" lon="5.13455">
        <ele>548.09</ele>
        <time>2019-01-12T12:20:06Z</time>
      </trkpt>
      <trkpt lat="44.909" lon="5.13465">
        <ele>548.57</ele>
        <time>2019-01-12T12:20:17Z</time>
      </trkpt>
      <trkpt lat="44.909" lon="5.13467">
        <ele>548.57</ele>
        <time>2019-01-12T12:20:32Z</time>
      </trkpt>
      <trkpt lat="44.909" lon="5.13467">
        <ele>548.09</ele>
        <time>2019-01-12T12:20:53Z</time>
      </trkpt>
      <trkpt lat="44.90899" lon="5.13463">
        <ele>547.61</ele>
        <time>2019-01-12T12:21:16Z</time>
      </trkpt>
      <trkpt lat="44.90899" lon="5.1346">
        <ele>547.13</ele>
        <time>2019-01-12T12:21:19Z</time>
      </trkpt>
      <trkpt lat="44.90899" lon="5.13445">
        <ele>545.2</ele>
        <time>2019-01-12T12:21:29Z</time>
      </trkpt>
      <trkpt lat="44.90902" lon="5.13436">
        <ele>543.28</ele>
        <time>2019-01-12T12:21:41Z</time>
      </trkpt>
      <trkpt lat="44.909" lon="5.13427">
        <ele>543.28</ele>
        <time>2019-01-12T12:21:50Z</time>
      </trkpt>
      <trkpt lat="44.90898" lon="5.1342">
        <ele>541.84</ele>
        <time>2019-01-12T12:21:57Z</time>
      </trkpt>
      <trkpt lat="44.90896" lon="5.13417">
        <ele>540.88</ele>
        <time>2019-01-12T12:22:07Z</time>
      </trkpt>
      <trkpt lat="44.90898" lon="5.13416">
        <ele>540.88</ele>
        <time>2019-01-12T12:22:18Z</time>
      </trkpt>
      <trkpt lat="44.90892" lon="5.13413">
        <ele>534.15</ele>
        <time>2019-01-12T12:22:27Z</time>
      </trkpt>
      <trkpt lat="44.90892" lon="5.13414">
        <ele>542.32</ele>
        <time>2019-01-12T12:22:28Z</time>
      </trkpt>
      <trkpt lat="44.90892" lon="5.13414">
        <ele>538.48</ele>
        <time>2019-01-12T12:22:32Z</time>
      </trkpt>
      <trkpt lat="44.90892" lon="5.13414">
        <ele>542.32</ele>
        <time>2019-01-12T12:22:33Z</time>
      </trkpt>
      <trkpt lat="44.90894" lon="5.13417">
        <ele>541.84</ele>
        <time>2019-01-12T12:22:45Z</time>
      </trkpt>
      <trkpt lat="44.90891" lon="5.13413">
        <ele>541.84</ele>
        <time>2019-01-12T12:22:52Z</time>
      </trkpt>
      <trkpt lat="44.90886" lon="5.13405">
        <ele>541.36</ele>
        <time>2019-01-12T12:22:58Z</time>
      </trkpt>
      <trkpt lat="44.9088" lon="5.13403">
        <ele>540.88</ele>
        <time>2019-01-12T12:23:02Z</time>
      </trkpt>
      <trkpt lat="44.90877" lon="5.13402">
        <ele>541.36</ele>
        <time>2019-01-12T12:23:06Z</time>
      </trkpt>
      <trkpt lat="44.90868" lon="5.13399">
        <ele>540.88</ele>
        <time>2019-01-12T12:23:17Z</time>
      </trkpt>
      <trkpt lat="44.90863" lon="5.13396">
        <ele>541.84</ele>
        <time>2019-01-12T12:23:21Z</time>
      </trkpt>
      <trkpt lat="44.90852" lon="5.13388">
        <ele>541.36</ele>
        <time>2019-01-12T12:23:32Z</time>
      </trkpt>
      <trkpt lat="44.90839" lon="5.13376">
        <ele>541.36</ele>
        <time>2019-01-12T12:23:42Z</time>
      </trkpt>
      <trkpt lat="44.90837" lon="5.13374">
        <ele>540.88</ele>
        <time>2019-01-12T12:23:44Z</time>
      </trkpt>
      <trkpt lat="44.90832" lon="5.13369">
        <ele>541.36</ele>
        <time>2019-01-12T12:23:48Z</time>
      </trkpt>
      <trkpt lat="44.90828" lon="5.13363">
        <ele>541.84</ele>
        <time>2019-01-12T12:24:00Z</time>
      </trkpt>
      <trkpt lat="44.90826" lon="5.13358">
        <ele>541.84</ele>
        <time>2019-01-12T12:24:12Z</time>
      </trkpt>
      <trkpt lat="44.90823" lon="5.13357">
        <ele>542.32</ele>
        <time>2019-01-12T12:24:18Z</time>
      </trkpt>
      <trkpt lat="44.90814" lon="5.13351">
        <ele>541.84</ele>
        <time>2019-01-12T12:24:27Z</time>
      </trkpt>
      <trkpt lat="44.90803" lon="5.13345">
        <ele>541.84</ele>
        <time>2019-01-12T12:24:34Z</time>
      </trkpt>
      <trkpt lat="44.90783" lon="5.13333">
        <ele>541.36</ele>
        <time>2019-01-12T12:24:47Z</time>
      </trkpt>
      <trkpt lat="44.90764" lon="5.13334">
        <ele>543.76</ele>
        <time>2019-01-12T12:25:02Z</time>
      </trkpt>
      <trkpt lat="44.90758" lon="5.13336">
        <ele>544.24</ele>
        <time>2019-01-12T12:25:08Z</time>
      </trkpt>
      <trkpt lat="44.90743" lon="5.13338">
        <ele>546.65</ele>
        <time>2019-01-12T12:25:21Z</time>
      </trkpt>
      <trkpt lat="44.90736" lon="5.13338">
        <ele>546.17</ele>
        <time>2019-01-12T12:25:26Z</time>
      </trkpt>
      <trkpt lat="44.9072" lon="5.13336">
        <ele>548.57</ele>
        <time>2019-01-12T12:25:40Z</time>
      </trkpt>
      <trkpt lat="44.90712" lon="5.13334">
        <ele>549.05</ele>
        <time>2019-01-12T12:25:49Z</time>
      </trkpt>
      <trkpt lat="44.90703" lon="5.13335">
        <ele>550.01</ele>
        <time>2019-01-12T12:25:55Z</time>
      </trkpt>
      <trkpt lat="44.9069" lon="5.13333">
        <ele>553.38</ele>
        <time>2019-01-12T12:26:07Z</time>
      </trkpt>
      <trkpt lat="44.90681" lon="5.13331">
        <ele>555.78</ele>
        <time>2019-01-12T12:26:14Z</time>
      </trkpt>
      <trkpt lat="44.90668" lon="5.13332">
        <ele>558.18</ele>
        <time>2019-01-12T12:26:27Z</time>
      </trkpt>
      <trkpt lat="44.90663" lon="5.13329">
        <ele>558.18</ele>
        <time>2019-01-12T12:26:31Z</time>
      </trkpt>
      <trkpt lat="44.90646" lon="5.13325">
        <ele>560.59</ele>
        <time>2019-01-12T12:26:44Z</time>
      </trkpt>
      <trkpt lat="44.90633" lon="5.13318">
        <ele>559.62</ele>
        <time>2019-01-12T12:26:56Z</time>
      </trkpt>
      <trkpt lat="44.90628" lon="5.13308">
        <ele>560.11</ele>
        <time>2019-01-12T12:27:04Z</time>
      </trkpt>
      <trkpt lat="44.90626" lon="5.13304">
        <ele>558.66</ele>
        <time>2019-01-12T12:27:10Z</time>
      </trkpt>
      <trkpt lat="44.90624" lon="5.13295">
        <ele>559.14</ele>
        <time>2019-01-12T12:27:20Z</time>
      </trkpt>
      <trkpt lat="44.90622" lon="5.13284">
        <ele>558.66</ele>
        <time>2019-01-12T12:27:27Z</time>
      </trkpt>
      <trkpt lat="44.90619" lon="5.13268">
        <ele>557.7</ele>
        <time>2019-01-12T12:27:38Z</time>
      </trkpt>
      <trkpt lat="44.90617" lon="5.13265">
        <ele>557.22</ele>
        <time>2019-01-12T12:27:40Z</time>
      </trkpt>
      <trkpt lat="44.90613" lon="5.13252">
        <ele>557.7</ele>
        <time>2019-01-12T12:27:52Z</time>
      </trkpt>
      <trkpt lat="44.90613" lon="5.13252">
        <ele>559.14</ele>
        <time>2019-01-12T12:28:22Z</time>
      </trkpt>
      <trkpt lat="44.90613" lon="5.13251">
        <ele>557.7</ele>
        <time>2019-01-12T12:28:38Z</time>
      </trkpt>
      <trkpt lat="44.90612" lon="5.13246">
        <ele>558.66</ele>
        <time>2019-01-12T12:28:43Z</time>
      </trkpt>
      <trkpt lat="44.90607" lon="5.13232">
        <ele>558.18</ele>
        <time>2019-01-12T12:28:53Z</time>
      </trkpt>
      <trkpt lat="44.90606" lon="5.13221">
        <ele>557.7</ele>
        <time>2019-01-12T12:29:02Z</time>
      </trkpt>
      <trkpt lat="44.90605" lon="5.1322">
        <ele>557.22</ele>
        <time>2019-01-12T12:29:03Z</time>
      </trkpt>
      <trkpt lat="44.90604" lon="5.13212">
        <ele>556.26</ele>
        <time>2019-01-12T12:29:13Z</time>
      </trkpt>
      <trkpt lat="44.906" lon="5.13187">
        <ele>555.78</ele>
        <time>2019-01-12T12:29:25Z</time>
      </trkpt>
      <trkpt lat="44.90598" lon="5.13181">
        <ele>555.3</ele>
        <time>2019-01-12T12:29:34Z</time>
      </trkpt>
      <trkpt lat="44.90596" lon="5.13176">
        <ele>554.82</ele>
        <time>2019-01-12T12:29:38Z</time>
      </trkpt>
      <trkpt lat="44.90595" lon="5.1317">
        <ele>556.74</ele>
        <time>2019-01-12T12:29:41Z</time>
      </trkpt>
      <trkpt lat="44.90595" lon="5.13166">
        <ele>556.26</ele>
        <time>2019-01-12T12:29:48Z</time>
      </trkpt>
      <trkpt lat="44.90593" lon="5.13162">
        <ele>556.26</ele>
        <time>2019-01-12T12:29:51Z</time>
      </trkpt>
      <trkpt lat="44.9059" lon="5.13137">
        <ele>557.7</ele>
        <time>2019-01-12T12:30:05Z</time>
      </trkpt>
      <trkpt lat="44.90586" lon="5.13123">
        <ele>557.22</ele>
        <time>2019-01-12T12:30:13Z</time>
      </trkpt>
      <trkpt lat="44.90586" lon="5.13116">
        <ele>558.66</ele>
        <time>2019-01-12T12:30:17Z</time>
      </trkpt>
      <trkpt lat="44.90585" lon="5.1311">
        <ele>558.66</ele>
        <time>2019-01-12T12:30:20Z</time>
      </trkpt>
      <trkpt lat="44.90575" lon="5.13097">
        <ele>558.18</ele>
        <time>2019-01-12T12:30:28Z</time>
      </trkpt>
      <trkpt lat="44.90571" lon="5.13096">
        <ele>556.74</ele>
        <time>2019-01-12T12:30:36Z</time>
      </trkpt>
      <trkpt lat="44.90569" lon="5.13095">
        <ele>557.22</ele>
        <time>2019-01-12T12:30:39Z</time>
      </trkpt>
      <trkpt lat="44.90561" lon="5.13091">
        <ele>557.22</ele>
        <time>2019-01-12T12:30:50Z</time>
      </trkpt>
      <trkpt lat="44.90553" lon="5.1309">
        <ele>556.74</ele>
        <time>2019-01-12T12:31:00Z</time>
      </trkpt>
      <trkpt lat="44.9055" lon="5.1309">
        <ele>556.74</ele>
        <time>2019-01-12T12:31:02Z</time>
      </trkpt>
      <trkpt lat="44.90537" lon="5.13087">
        <ele>556.74</ele>
        <time>2019-01-12T12:31:15Z</time>
      </trkpt>
      <trkpt lat="44.90526" lon="5.13084">
        <ele>556.26</ele>
        <time>2019-01-12T12:31:24Z</time>
      </trkpt>
      <trkpt lat="44.90509" lon="5.13079">
        <ele>555.3</ele>
        <time>2019-01-12T12:31:34Z</time>
      </trkpt>
      <trkpt lat="44.90501" lon="5.13086">
        <ele>555.3</ele>
        <time>2019-01-12T12:31:41Z</time>
      </trkpt>
      <trkpt lat="44.90495" lon="5.13094">
        <ele>554.34</ele>
        <time>2019-01-12T12:31:50Z</time>
      </trkpt>
      <trkpt lat="44.90491" lon="5.13097">
        <ele>554.34</ele>
        <time>2019-01-12T12:31:53Z</time>
      </trkpt>
      <trkpt lat="44.90482" lon="5.13116">
        <ele>553.86</ele>
        <time>2019-01-12T12:32:05Z</time>
      </trkpt>
      <trkpt lat="44.90481" lon="5.13116">
        <ele>553.38</ele>
        <time>2019-01-12T12:32:09Z</time>
      </trkpt>
      <trkpt lat="44.90479" lon="5.13124">
        <ele>553.38</ele>
        <time>2019-01-12T12:32:18Z</time>
      </trkpt>
      <trkpt lat="44.90478" lon="5.13131">
        <ele>553.86</ele>
        <time>2019-01-12T12:32:22Z</time>
      </trkpt>
      <trkpt lat="44.90476" lon="5.13135">
        <ele>553.38</ele>
        <time>2019-01-12T12:32:25Z</time>
      </trkpt>
      <trkpt lat="44.90475" lon="5.1314">
        <ele>553.38</ele>
        <time>2019-01-12T12:32:28Z</time>
      </trkpt>
      <trkpt lat="44.90475" lon="5.13144">
        <ele>553.38</ele>
        <time>2019-01-12T12:32:31Z</time>
      </trkpt>
      <trkpt lat="44.90473" lon="5.13154">
        <ele>553.38</ele>
        <time>2019-01-12T12:32:37Z</time>
      </trkpt>
      <trkpt lat="44.9047" lon="5.13164">
        <ele>552.9</ele>
        <time>2019-01-12T12:32:43Z</time>
      </trkpt>
      <trkpt lat="44.90469" lon="5.13166">
        <ele>552.41</ele>
        <time>2019-01-12T12:32:49Z</time>
      </trkpt>
      <trkpt lat="44.90468" lon="5.13169">
        <ele>552.41</ele>
        <time>2019-01-12T12:32:51Z</time>
      </trkpt>
      <trkpt lat="44.90464" lon="5.13181">
        <ele>552.41</ele>
        <time>2019-01-12T12:32:59Z</time>
      </trkpt>
      <trkpt lat="44.90462" lon="5.13193">
        <ele>551.93</ele>
        <time>2019-01-12T12:33:05Z</time>
      </trkpt>
      <trkpt lat="44.90456" lon="5.13213">
        <ele>552.41</ele>
        <time>2019-01-12T12:33:17Z</time>
      </trkpt>
      <trkpt lat="44.90454" lon="5.13216">
        <ele>552.41</ele>
        <time>2019-01-12T12:33:19Z</time>
      </trkpt>
      <trkpt lat="44.90451" lon="5.13218">
        <ele>552.9</ele>
        <time>2019-01-12T12:33:26Z</time>
      </trkpt>
      <trkpt lat="44.90448" lon="5.13216">
        <ele>552.9</ele>
        <time>2019-01-12T12:33:29Z</time>
      </trkpt>
      <trkpt lat="44.90446" lon="5.13212">
        <ele>552.9</ele>
        <time>2019-01-12T12:33:32Z</time>
      </trkpt>
      <trkpt lat="44.90444" lon="5.13207">
        <ele>552.41</ele>
        <time>2019-01-12T12:33:35Z</time>
      </trkpt>
      <trkpt lat="44.90442" lon="5.13201">
        <ele>551.45</ele>
        <time>2019-01-12T12:33:42Z</time>
      </trkpt>
      <trkpt lat="44.9044" lon="5.13198">
        <ele>551.93</ele>
        <time>2019-01-12T12:33:44Z</time>
      </trkpt>
      <trkpt lat="44.90436" lon="5.13195">
        <ele>551.45</ele>
        <time>2019-01-12T12:33:47Z</time>
      </trkpt>
      <trkpt lat="44.90432" lon="5.13186">
        <ele>551.93</ele>
        <time>2019-01-12T12:33:54Z</time>
      </trkpt>
      <trkpt lat="44.90429" lon="5.13182">
        <ele>550.97</ele>
        <time>2019-01-12T12:33:57Z</time>
      </trkpt>
      <trkpt lat="44.90427" lon="5.13177">
        <ele>550.49</ele>
        <time>2019-01-12T12:34:00Z</time>
      </trkpt>
      <trkpt lat="44.90424" lon="5.13167">
        <ele>549.05</ele>
        <time>2019-01-12T12:34:07Z</time>
      </trkpt>
      <trkpt lat="44.90417" lon="5.13155">
        <ele>550.01</ele>
        <time>2019-01-12T12:34:16Z</time>
      </trkpt>
      <trkpt lat="44.90416" lon="5.13152">
        <ele>546.17</ele>
        <time>2019-01-12T12:34:18Z</time>
      </trkpt>
      <trkpt lat="44.90416" lon="5.1315">
        <ele>548.09</ele>
        <time>2019-01-12T12:34:19Z</time>
      </trkpt>
      <trkpt lat="44.90416" lon="5.13149">
        <ele>551.93</ele>
        <time>2019-01-12T12:34:20Z</time>
      </trkpt>
      <trkpt lat="44.90416" lon="5.13147">
        <ele>548.09</ele>
        <time>2019-01-12T12:34:21Z</time>
      </trkpt>
      <trkpt lat="44.90413" lon="5.13131">
        <ele>548.57</ele>
        <time>2019-01-12T12:34:32Z</time>
      </trkpt>
      <trkpt lat="44.90409" lon="5.13117">
        <ele>552.9</ele>
        <time>2019-01-12T12:34:42Z</time>
      </trkpt>
      <trkpt lat="44.90409" lon="5.13115">
        <ele>547.61</ele>
        <time>2019-01-12T12:34:43Z</time>
      </trkpt>
      <trkpt lat="44.90406" lon="5.13108">
        <ele>547.13</ele>
        <time>2019-01-12T12:34:47Z</time>
      </trkpt>
      <trkpt lat="44.90404" lon="5.13103">
        <ele>545.69</ele>
        <time>2019-01-12T12:34:49Z</time>
      </trkpt>
      <trkpt lat="44.90401" lon="5.13096">
        <ele>545.69</ele>
        <time>2019-01-12T12:34:53Z</time>
      </trkpt>
      <trkpt lat="44.90399" lon="5.13094">
        <ele>546.17</ele>
        <time>2019-01-12T12:34:55Z</time>
      </trkpt>
      <trkpt lat="44.90391" lon="5.13081">
        <ele>546.65</ele>
        <time>2019-01-12T12:35:07Z</time>
      </trkpt>
      <trkpt lat="44.90391" lon="5.13079">
        <ele>546.17</ele>
        <time>2019-01-12T12:35:10Z</time>
      </trkpt>
      <trkpt lat="44.90388" lon="5.13072">
        <ele>545.2</ele>
        <time>2019-01-12T12:35:14Z</time>
      </trkpt>
      <trkpt lat="44.90384" lon="5.13065">
        <ele>545.69</ele>
        <time>2019-01-12T12:35:18Z</time>
      </trkpt>
      <trkpt lat="44.90381" lon="5.13061">
        <ele>545.2</ele>
        <time>2019-01-12T12:35:21Z</time>
      </trkpt>
      <trkpt lat="44.9038" lon="5.13058">
        <ele>544.72</ele>
        <time>2019-01-12T12:35:24Z</time>
      </trkpt>
      <trkpt lat="44.90378" lon="5.13054">
        <ele>544.24</ele>
        <time>2019-01-12T12:35:27Z</time>
      </trkpt>
      <trkpt lat="44.90376" lon="5.13042">
        <ele>543.76</ele>
        <time>2019-01-12T12:35:34Z</time>
      </trkpt>
      <trkpt lat="44.90372" lon="5.13033">
        <ele>543.28</ele>
        <time>2019-01-12T12:35:39Z</time>
      </trkpt>
      <trkpt lat="44.90365" lon="5.13024">
        <ele>543.28</ele>
        <time>2019-01-12T12:35:46Z</time>
      </trkpt>
      <trkpt lat="44.90362" lon="5.13015">
        <ele>543.28</ele>
        <time>2019-01-12T12:35:52Z</time>
      </trkpt>
      <trkpt lat="44.90357" lon="5.13007">
        <ele>543.28</ele>
        <time>2019-01-12T12:35:59Z</time>
      </trkpt>
      <trkpt lat="44.9035" lon="5.12995">
        <ele>542.8</ele>
        <time>2019-01-12T12:36:10Z</time>
      </trkpt>
      <trkpt lat="44.9035" lon="5.12993">
        <ele>542.8</ele>
        <time>2019-01-12T12:36:12Z</time>
      </trkpt>
      <trkpt lat="44.90345" lon="5.12976">
        <ele>542.32</ele>
        <time>2019-01-12T12:36:23Z</time>
      </trkpt>
      <trkpt lat="44.90344" lon="5.12966">
        <ele>541.84</ele>
        <time>2019-01-12T12:36:29Z</time>
      </trkpt>
      <trkpt lat="44.90342" lon="5.12959">
        <ele>541.84</ele>
        <time>2019-01-12T12:36:33Z</time>
      </trkpt>
      <trkpt lat="44.9034" lon="5.12949">
        <ele>542.32</ele>
        <time>2019-01-12T12:36:37Z</time>
      </trkpt>
      <trkpt lat="44.90338" lon="5.12944">
        <ele>542.8</ele>
        <time>2019-01-12T12:36:43Z</time>
      </trkpt>
      <trkpt lat="44.90337" lon="5.12939">
        <ele>542.32</ele>
        <time>2019-01-12T12:36:46Z</time>
      </trkpt>
      <trkpt lat="44.90334" lon="5.12933">
        <ele>542.32</ele>
        <time>2019-01-12T12:36:50Z</time>
      </trkpt>
      <trkpt lat="44.90333" lon="5.12919">
        <ele>542.32</ele>
        <time>2019-01-12T12:37:01Z</time>
      </trkpt>
      <trkpt lat="44.90334" lon="5.12918">
        <ele>542.32</ele>
        <time>2019-01-12T12:37:02Z</time>
      </trkpt>
      <trkpt lat="44.90334" lon="5.12906">
        <ele>541.84</ele>
        <time>2019-01-12T12:37:10Z</time>
      </trkpt>
      <trkpt lat="44.90334" lon="5.129">
        <ele>541.84</ele>
        <time>2019-01-12T12:37:13Z</time>
      </trkpt>
      <trkpt lat="44.90333" lon="5.12889">
        <ele>541.36</ele>
        <time>2019-01-12T12:37:19Z</time>
      </trkpt>
      <trkpt lat="44.90333" lon="5.12881">
        <ele>540.88</ele>
        <time>2019-01-12T12:37:23Z</time>
      </trkpt>
      <trkpt lat="44.9033" lon="5.12872">
        <ele>540.4</ele>
        <time>2019-01-12T12:37:29Z</time>
      </trkpt>
      <trkpt lat="44.9033" lon="5.12869">
        <ele>540.4</ele>
        <time>2019-01-12T12:37:31Z</time>
      </trkpt>
      <trkpt lat="44.90328" lon="5.12847">
        <ele>540.88</ele>
        <time>2019-01-12T12:37:43Z</time>
      </trkpt>
      <trkpt lat="44.90328" lon="5.12843">
        <ele>540.88</ele>
        <time>2019-01-12T12:37:46Z</time>
      </trkpt>
      <trkpt lat="44.90327" lon="5.12827">
        <ele>539.44</ele>
        <time>2019-01-12T12:37:55Z</time>
      </trkpt>
      <trkpt lat="44.90324" lon="5.1281">
        <ele>538.96</ele>
        <time>2019-01-12T12:38:05Z</time>
      </trkpt>
      <trkpt lat="44.90324" lon="5.12806">
        <ele>538.96</ele>
        <time>2019-01-12T12:38:08Z</time>
      </trkpt>
      <trkpt lat="44.90325" lon="5.12788">
        <ele>537.51</ele>
        <time>2019-01-12T12:38:19Z</time>
      </trkpt>
      <trkpt lat="44.90324" lon="5.12767">
        <ele>535.59</ele>
        <time>2019-01-12T12:38:31Z</time>
      </trkpt>
      <trkpt lat="44.90324" lon="5.12759">
        <ele>535.59</ele>
        <time>2019-01-12T12:38:37Z</time>
      </trkpt>
      <trkpt lat="44.90324" lon="5.12751">
        <ele>535.11</ele>
        <time>2019-01-12T12:38:41Z</time>
      </trkpt>
      <trkpt lat="44.90323" lon="5.12742">
        <ele>530.79</ele>
        <time>2019-01-12T12:38:47Z</time>
      </trkpt>
      <trkpt lat="44.90323" lon="5.1274">
        <ele>535.59</ele>
        <time>2019-01-12T12:38:48Z</time>
      </trkpt>
      <trkpt lat="44.90324" lon="5.12733">
        <ele>533.67</ele>
        <time>2019-01-12T12:38:52Z</time>
      </trkpt>
    </trkseg>
  </trk>
</gpx>